[[{"header":{"parameterUnit":"m.s-1","parameterCategory":1,"la1":30.6,"la2":28.766,"lo1":-90.7593,"lo2":-88.6598,"dy":0.0162,"dx":0.0183,"nx":116,"ny":114,"refTime":"2024-05-02T00:00:00:Z","depth":0,"parameterNumber":2,"parameterNumberName":"U-component_of_WINDS"},"data":[0.0,0.0,0.0,0.0,0.0,0.0,0.0,0.0,0.0,0.0,0.0,0.0,0.0,0.0,0.0,0.0,0.0,0.0,0.0,0.0,0.0,0.0,0.0,0.0,0.0,0.0,0.0,0.0,0.0,0.0,0.0,0.0,0.0,0.0,0.0,0.0,0.0,0.0,0.0,0.0,0.0,0.0,0.0,0.0,0.0,0.0,0.0,0.0,0.0,0.0,0.0,0.0,0.0,0.0,0.0,0.0,0.0,0.0,0.0,0.0,0.0,0.0,0.0,0.0,0.0,0.0,0.0,0.0,0.0,0.0,0.0,0.0,0.0,0.0,0.0,0.0,0.0,0.0,0.0,0.0,0.0,0.0,0.0,0.0,0.0,0.0,0.0,0.0,0.0,0.0,0.0,0.0,0.0,0.0,0.0,0.0,0.0,0.0,0.0,0.0,0.0,0.0,0.0,0.0,0.0,0.0,0.0,0.0,0.0,0.0,0.0,0.0,0.0,0.0,0.0,0.0,0.0,0.0,0.0,0.0,0.0,0.0,0.0,0.0,0.0,0.0,0.0,0.0,0.0,0.0,0.0,0.0,0.0,0.0,0.0,0.0,0.0,0.0,0.0,0.0,0.0,0.0,0.0,0.0,0.0,0.0,0.0,0.0,0.0,0.0,0.0,0.0,0.0,0.0,0.0,0.0,0.0,0.0,0.0,0.0,0.0,0.0,0.0,0.0,0.0,0.0,0.0,0.0,0.0,0.0,0.0,0.0,0.0,0.0,0.0,0.0,0.0,0.0,0.0,0.0,0.0,0.0,0.0,0.0,0.0,0.0,0.0,0.0,0.0,0.0,0.0,0.0,0.0,0.0,0.0,0.0,0.0,0.0,0.0,0.0,0.0,0.0,0.0,0.0,0.0,0.0,0.0,0.0,0.0,0.0,0.0,0.0,0.0,0.0,0.0,0.0,0.0,0.0,0.0,0.0,0.0,0.0,0.0,0.0,0.0,0.0,0.0,0.0,0.0,0.0,0.0,0.0,0.0,0.0,0.0,0.0,0.0,0.0,0.0,0.0,0.0,0.0,0.0,0.0,0.0,0.0,0.0,0.0,0.0,0.0,0.0,0.0,0.0,0.0,0.0,0.0,0.0,0.0,0.0,0.0,0.0,0.0,0.0,0.0,0.0,0.0,0.0,0.0,0.0,0.0,0.0,0.0,0.0,0.0,0.0,0.0,0.0,0.0,0.0,0.0,0.0,0.0,0.0,0.0,0.0,0.0,0.0,0.0,0.0,0.0,0.0,0.0,0.0,0.0,0.0,0.0,0.0,0.0,0.0,0.0,0.0,0.0,0.0,0.0,0.0,0.0,0.0,0.0,0.0,0.0,0.0,0.0,0.0,0.0,0.0,0.0,0.0,0.0,0.0,0.0,0.0,0.0,0.0,0.0,0.0,0.0,0.0,0.0,0.0,0.0,0.0,0.0,0.0,0.0,0.0,0.0,0.0,0.0,0.0,0.0,0.0,0.0,0.0,0.0,0.0,0.0,0.0,0.0,0.0,0.0,0.0,0.0,0.0,0.0,0.0,0.0,0.0,0.0,0.0,0.0,0.0,0.0,0.0,0.0,0.0,0.0,0.0,0.0,0.0,0.0,0.0,0.0,0.0,0.0,0.0,0.0,0.0,0.0,0.0,0.0,0.0,0.0,0.0,0.0,0.0,0.0,0.0,0.0,0.0,0.0,0.0,0.0,0.0,0.0,0.0,0.0,0.0,0.0,0.0,0.0,0.0,0.0,0.0,0.0,0.0,0.0,0.0,0.0,0.0,0.0,0.0,0.0,0.0,0.0,0.0,0.0,0.0,0.0,0.0,0.0,0.0,0.0,0.0,0.0,0.0,0.0,0.0,0.0,0.0,0.0,0.0,0.0,0.0,0.0,0.0,0.0,0.0,0.0,0.0,0.0,0.0,0.0,0.0,0.0,0.0,0.0,0.0,0.0,0.0,0.0,0.0,0.0,0.0,0.0,0.0,0.0,0.0,0.0,0.0,0.0,0.0,0.0,0.0,0.0,0.0,0.0,0.0,0.0,0.0,0.0,0.0,0.0,0.0,0.0,0.0,0.0,0.0,0.0,0.0,0.0,0.0,0.0,0.0,0.0,0.0,0.0,0.0,0.0,0.0,0.0,0.0,0.0,0.0,0.0,0.0,0.0,0.0,0.0,0.0,0.0,0.0,0.0,0.0,0.0,0.0,0.0,0.0,0.0,0.0,0.0,0.0,0.0,0.0,0.0,0.0,0.0,0.0,0.0,0.0,0.0,0.0,0.0,0.0,0.0,0.0,0.0,0.0,0.0,0.0,0.0,0.0,0.0,0.0,0.0,0.0,0.0,0.0,0.0,0.0,0.0,0.0,0.0,0.0,0.0,0.0,0.0,0.0,0.0,0.0,0.0,0.0,0.0,0.0,0.0,0.0,0.0,0.0,0.0,0.0,0.0,0.0,0.0,0.0,0.0,0.0,0.0,0.0,0.0,0.0,0.0,0.0,0.0,0.0,0.0,0.0,0.0,0.0,0.0,0.0,0.0,0.0,0.0,0.0,0.0,0.0,0.0,0.0,0.0,0.0,0.0,0.0,0.0,0.0,0.0,0.0,0.0,0.0,0.0,0.0,0.0,0.0,0.0,0.0,0.0,0.0,0.0,0.0,0.0,0.0,0.0,0.0,0.0,0.0,0.0,0.0,0.0,0.0,0.0,0.0,0.0,0.0,0.0,0.0,0.0,0.0,0.0,0.0,0.0,0.0,0.0,0.0,0.0,0.0,0.0,0.0,0.0,0.0,0.0,0.0,0.0,0.0,0.0,0.0,0.0,0.0,0.0,0.0,0.0,0.0,0.0,0.0,0.0,0.0,0.0,0.0,0.0,0.0,0.0,0.0,0.0,0.0,0.0,0.0,0.0,0.0,0.0,0.0,0.0,0.0,0.0,0.0,0.0,0.0,0.0,0.0,0.0,0.0,0.0,0.0,0.0,0.0,0.0,0.0,0.0,0.0,0.0,0.0,0.0,0.0,0.0,0.0,0.0,0.0,0.0,0.0,0.0,0.0,0.0,0.0,0.0,0.0,0.0,0.0,0.0,0.0,0.0,0.0,0.0,0.0,0.0,0.0,0.0,0.0,0.0,0.0,0.0,0.0,0.0,0.0,0.0,0.0,0.0,0.0,0.0,0.0,0.0,0.0,0.0,0.0,0.0,0.0,0.0,0.0,0.0,0.0,0.0,0.0,0.0,0.0,0.0,0.0,0.0,0.0,0.0,0.0,0.0,0.0,0.0,0.0,0.0,0.0,0.0,0.0,0.0,0.0,0.0,0.0,0.0,0.0,0.0,0.0,0.0,0.0,0.0,0.0,0.0,0.0,0.0,0.0,0.0,0.0,0.0,0.0,0.0,0.0,0.0,0.0,0.0,0.0,0.0,0.0,0.0,0.0,0.0,0.0,0.0,0.0,0.0,0.0,0.0,0.0,0.0,0.0,0.0,0.0,0.0,0.0,0.0,0.0,0.0,0.0,0.0,0.0,0.0,0.0,0.0,0.0,0.0,0.0,0.0,0.0,0.0,0.0,0.0,0.0,0.0,0.0,0.0,0.0,0.0,0.0,0.0,0.0,0.0,0.0,0.0,0.0,0.0,0.0,0.0,0.0,0.0,0.0,0.0,0.0,0.0,0.0,0.0,0.0,0.0,0.0,0.0,0.0,0.0,0.0,0.0,0.0,0.0,0.0,0.0,0.0,0.0,0.0,0.0,0.0,0.0,0.0,0.0,0.0,0.0,0.0,0.0,0.0,0.0,0.0,0.0,0.0,0.0,0.0,0.0,0.0,0.0,0.0,0.0,0.0,0.0,0.0,0.0,0.0,0.0,0.0,0.0,0.0,0.0,0.0,0.0,0.0,0.0,0.0,0.0,0.0,0.0,0.0,0.0,0.0,0.0,0.0,0.0,0.0,0.0,0.0,0.0,0.0,0.0,0.0,0.0,0.0,0.0,0.0,0.0,0.0,0.0,0.0,0.0,0.0,0.0,0.0,0.0,0.0,0.0,0.0,0.0,0.0,0.0,0.0,0.0,0.0,0.0,0.0,0.0,0.0,0.0,0.0,0.0,0.0,0.0,0.0,0.0,0.0,0.0,0.0,0.0,0.0,0.0,0.0,0.0,0.0,0.0,0.0,0.0,0.0,0.0,0.0,0.0,0.0,0.0,0.0,0.0,0.0,0.0,0.0,0.0,0.0,0.0,0.0,0.0,0.0,0.0,0.0,0.0,0.0,0.0,0.0,0.0,0.0,0.0,0.0,0.0,0.0,0.0,0.0,0.0,0.0,0.0,0.0,0.0,0.0,0.0,0.0,0.0,0.0,0.0,0.0,0.0,0.0,0.0,0.0,0.0,0.0,0.0,0.0,0.0,0.0,0.0,0.0,0.0,0.0,0.0,0.0,0.0,0.0,0.0,0.0,0.0,0.0,0.0,0.0,0.0,0.0,0.0,0.0,0.0,0.0,0.0,0.0,0.0,0.0,0.0,0.0,0.0,0.0,0.0,0.0,0.0,0.0,0.0,0.0,0.0,0.0,0.0,0.0,0.0,0.0,0.0,0.0,0.0,0.0,0.0,0.0,0.0,0.0,0.0,0.0,0.0,0.0,0.0,0.0,0.0,0.0,0.0,0.0,0.0,0.0,0.0,0.0,0.0,0.0,0.0,0.0,0.0,0.0,0.0,0.0,0.0,0.0,0.0,0.0,0.0,0.0,0.0,0.0,0.0,0.0,0.0,0.0,0.0,0.0,0.0,0.0,0.0,0.0,0.0,0.0,0.0,0.0,0.0,0.0,0.0,0.0,0.0,0.0,0.0,0.0,0.0,0.0,0.0,0.0,0.0,0.0,0.0,0.0,0.0,0.0,0.0,0.0,0.0,0.0,0.0,0.0,0.0,0.0,0.0,0.0,0.0,0.0,0.0,0.0,0.0,0.0,0.0,0.0,0.0,0.0,0.0,0.0,0.0,0.0,0.0,0.0,0.0,0.0,0.0,0.0,0.0,0.0,0.0,0.0,0.0,0.0,0.0,0.0,0.0,0.0,0.0,0.0,0.0,0.0,0.0,0.0,0.0,0.0,0.0,0.0,0.0,0.0,0.0,0.0,0.0,0.0,0.0,0.0,0.0,0.0,0.0,0.0,0.0,0.0,0.0,0.0,0.0,0.0,0.0,0.0,0.0,0.0,0.0,0.0,0.0,0.0,0.0,0.0,0.0,0.0,0.0,0.0,0.0,0.0,0.0,0.0,0.0,0.0,0.0,0.0,0.0,0.0,0.0,0.0,0.0,0.0,0.0,0.0,0.0,0.0,0.0,0.0,0.0,0.0,0.0,0.0,0.0,0.0,0.0,0.0,0.0,0.0,0.0,0.0,0.0,0.0,0.0,0.0,0.0,0.0,0.0,0.0,0.0,0.0,0.0,0.0,0.0,0.0,0.0,0.0,0.0,0.0,0.0,0.0,0.0,0.0,0.0,0.0,0.0,0.0,0.0,0.0,0.0,0.0,0.0,0.0,0.0,0.0,0.0,0.0,0.0,0.0,0.0,0.0,0.0,0.0,0.0,0.0,0.0,0.0,0.0,0.0,0.0,0.0,0.0,0.0,0.0,0.0,0.0,0.0,0.0,0.0,0.0,0.0,0.0,0.0,0.0,0.0,0.0,0.0,0.0,0.0,0.0,0.0,0.0,0.0,0.0,0.0,0.0,0.0,0.0,0.0,0.0,0.0,0.0,0.0,0.0,0.0,0.0,0.0,0.0,0.0,0.0,0.0,0.0,0.0,0.0,0.0,0.0,0.0,0.0,0.0,0.0,0.0,0.0,0.0,0.0,0.0,0.0,0.0,0.0,0.0,0.0,0.0,0.0,0.0,0.0,0.0,0.0,0.0,0.0,0.0,0.0,0.0,0.0,0.0,0.0,0.0,0.0,0.0,0.0,0.0,0.0,0.0,0.0,0.0,0.0,0.0,0.0,0.0,0.0,0.0,0.0,0.0,0.0,0.0,0.0,0.0,0.0,0.0,0.0,0.0,0.0,0.0,0.0,0.0,0.0,-3.7469,-3.7469,0.0,0.0,0.0,0.0,0.0,0.0,0.0,0.0,0.0,0.0,0.0,0.0,0.0,0.0,0.0,0.0,0.0,0.0,0.0,0.0,0.0,0.0,0.0,-3.4137,-3.438,-3.438,-3.4761,-3.4981,-3.4981,-3.5385,0.0,0.0,0.0,0.0,-3.6303,-3.6303,-3.6303,-3.6303,-3.6303,-3.6303,-3.6266,-3.4954,-3.4321,-3.4305,0.0,0.0,0.0,0.0,0.0,0.0,0.0,0.0,0.0,0.0,0.0,0.0,0.0,0.0,0.0,0.0,0.0,0.0,0.0,0.0,0.0,0.0,0.0,0.0,0.0,0.0,0.0,0.0,0.0,0.0,0.0,0.0,0.0,0.0,0.0,0.0,0.0,0.0,0.0,0.0,0.0,0.0,0.0,0.0,0.0,0.0,0.0,0.0,0.0,0.0,0.0,0.0,0.0,0.0,0.0,0.0,0.0,0.0,0.0,0.0,0.0,0.0,0.0,0.0,0.0,0.0,0.0,0.0,0.0,0.0,-3.8354,-3.8007,0.0,0.0,0.0,0.0,0.0,0.0,0.0,0.0,0.0,0.0,0.0,0.0,0.0,0.0,0.0,0.0,0.0,0.0,0.0,0.0,0.0,-3.4064,-3.4211,-3.4821,-3.5224,-3.5224,-3.5899,-3.6303,-3.6303,-3.6413,-3.6486,-3.6486,-3.6633,-3.6707,-3.6707,-3.6707,-3.6707,-3.6707,-3.6707,-3.6707,-3.6707,-3.6707,-3.6707,-3.6707,-3.6355,0.0,0.0,0.0,0.0,0.0,0.0,0.0,0.0,0.0,0.0,0.0,0.0,0.0,0.0,0.0,0.0,0.0,0.0,0.0,0.0,0.0,0.0,0.0,0.0,0.0,0.0,0.0,0.0,0.0,0.0,0.0,0.0,0.0,0.0,0.0,0.0,0.0,0.0,0.0,0.0,0.0,0.0,0.0,0.0,0.0,0.0,0.0,0.0,0.0,0.0,0.0,0.0,0.0,0.0,0.0,0.0,0.0,0.0,0.0,0.0,0.0,0.0,0.0,-4.0939,-4.0939,-4.0939,-4.0939,-4.0939,-4.09,-3.9469,-3.8738,-3.843,-3.8277,0.0,0.0,0.0,0.0,0.0,0.0,0.0,0.0,0.0,0.0,0.0,0.0,0.0,0.0,0.0,0.0,0.0,0.0,0.0,-3.5114,-3.5899,-3.6083,-3.6119,-3.6119,-3.6229,-3.6303,-3.6303,-3.6942,-3.7345,-3.7345,-3.7991,-3.8395,-3.8395,-3.8395,-3.8395,-3.8395,-3.8395,-3.8395,-3.8395,-3.8395,-3.8395,-3.8307,-3.6485,-3.5607,-3.5435,0.0,0.0,0.0,0.0,0.0,0.0,0.0,0.0,0.0,0.0,0.0,0.0,0.0,0.0,0.0,0.0,0.0,0.0,0.0,0.0,0.0,0.0,0.0,0.0,0.0,0.0,0.0,0.0,0.0,0.0,0.0,0.0,0.0,0.0,0.0,0.0,0.0,0.0,0.0,0.0,0.0,-3.7214,-3.7392,0.0,0.0,0.0,0.0,0.0,0.0,0.0,0.0,0.0,0.0,0.0,0.0,0.0,-4.0854,-4.1623,-4.1623,-4.2008,-4.2777,-4.2777,-4.2777,-4.2777,-4.2777,-4.2777,-4.2739,-4.2508,0.0,-4.0131,-3.9438,0.0,0.0,0.0,0.0,0.0,0.0,0.0,0.0,0.0,0.0,0.0,0.0,0.0,0.0,0.0,0.0,0.0,0.0,0.0,0.0,0.0,-3.6721,-3.6978,-3.6978,-3.7404,-3.7661,-3.7661,-3.7991,-3.8175,-3.8175,-3.8505,-3.8689,-3.8689,-3.8689,-3.8689,-3.8689,-3.8689,-3.8689,-3.8689,-3.8689,-3.8689,-3.8673,-3.775,-3.7103,-3.665,-3.6442,0.0,0.0,0.0,0.0,0.0,0.0,0.0,0.0,0.0,0.0,0.0,0.0,0.0,0.0,0.0,0.0,0.0,0.0,0.0,0.0,0.0,0.0,0.0,0.0,0.0,0.0,0.0,0.0,0.0,0.0,0.0,0.0,0.0,0.0,0.0,0.0,0.0,0.0,0.0,-3.7098,-3.7835,-3.849,-3.8654,-3.8892,0.0,0.0,0.0,0.0,0.0,0.0,0.0,0.0,0.0,-4.197,-4.197,-4.2124,-4.2547,-4.2547,-4.2739,-4.3085,-4.3085,-4.3085,-4.3085,-4.3085,-4.3085,-4.3085,-4.3085,-4.2662,-4.1893,-4.1046,-4.07,-4.0623,0.0,0.0,0.0,0.0,-3.9123,-3.8738,0.0,0.0,0.0,0.0,0.0,0.0,0.0,0.0,0.0,0.0,0.0,0.0,-3.689,-3.7441,-3.7823,-3.7823,-3.8358,-3.8689,-3.8689,-3.8689,-3.8689,-3.8689,-3.8689,-3.8689,-3.8689,-3.8689,-3.8689,-3.8689,-3.8909,-3.9019,-3.9019,-3.9239,-3.9313,-3.9313,-3.9093,-3.8542,-3.7823,-3.7823,-3.7192,-3.6194,0.0,0.0,0.0,0.0,0.0,0.0,0.0,0.0,0.0,0.0,0.0,0.0,0.0,0.0,0.0,0.0,0.0,0.0,0.0,0.0,0.0,0.0,0.0,0.0,0.0,0.0,0.0,0.0,0.0,0.0,0.0,0.0,0.0,0.0,0.0,0.0,0.0,-3.7917,-3.8665,-3.9792,-3.9931,-4.0239,0.0,0.0,0.0,0.0,0.0,0.0,-4.2124,-4.2739,-4.3085,-4.3085,-4.3085,-4.3201,-4.3393,-4.3393,-4.3624,-4.4085,-4.4085,-4.4162,-4.4355,-4.4162,-4.4085,-4.4047,-4.3855,-4.3739,-4.3662,-4.2585,-4.2124,-4.2085,-4.1431,-4.117,-4.117,-4.117,-4.0785,-4.0277,0.0,0.0,0.0,0.0,0.0,0.0,0.0,0.0,0.0,0.0,0.0,-3.7749,-3.8505,-3.8615,-3.8652,-3.8652,-3.8689,-3.8689,-3.8689,-3.8689,-3.8689,-3.8689,-3.8689,-3.8689,-3.8689,-3.8689,-3.8689,-3.8689,-3.946,-3.9827,-3.9863,-4.0618,-4.0985,-4.0948,-4.0194,-3.9386,-3.8652,-3.8652,-3.8307,-3.7785,-3.7785,0.0,0.0,0.0,0.0,0.0,0.0,0.0,0.0,0.0,0.0,0.0,0.0,0.0,0.0,0.0,0.0,0.0,0.0,0.0,0.0,0.0,0.0,0.0,0.0,0.0,0.0,0.0,0.0,0.0,0.0,0.0,0.0,0.0,0.0,0.0,0.0,0.0,0.0,-4.1553,-4.1654,0.0,0.0,0.0,0.0,-4.297,-4.3008,-4.3047,-4.3047,-4.3085,-4.3085,-4.3085,-4.3085,-4.347,-4.4239,-4.4239,-4.5086,-4.6692,-4.6692,-4.7124,-4.7817,-4.7048,-4.6692,-4.6654,-4.5817,-4.5479,-4.5364,-4.3701,-4.3047,-4.3047,-4.3008,-4.297,-4.297,-4.297,-4.2931,-4.2893,0.0,0.0,0.0,0.0,0.0,-3.3876,-3.4321,-3.5666,-3.6817,-3.7419,-3.7955,-3.8395,-3.8689,-3.8689,-3.8689,-3.8689,-3.8689,-3.8689,-3.8689,-3.8689,-3.8946,-3.946,-3.946,-3.946,-3.946,-3.946,-3.946,-3.946,-4.0267,-4.0671,-4.0671,-4.0948,-4.1095,-4.1095,-4.0802,-4.023,-3.9423,-3.8909,-3.8596,-3.8433,-3.8433,-3.8036,0.0,0.0,0.0,0.0,0.0,0.0,0.0,0.0,0.0,0.0,0.0,0.0,0.0,0.0,0.0,0.0,0.0,0.0,0.0,0.0,0.0,0.0,0.0,0.0,0.0,0.0,0.0,0.0,0.0,0.0,0.0,0.0,0.0,0.0,0.0,0.0,0.0,-4.1761,-4.2316,0.0,-4.3085,-4.3085,-4.3085,-4.3085,-4.3585,-4.3855,-4.3855,-4.4932,-4.5547,-4.5547,-4.6047,-4.6471,-4.674,-4.674,-4.7048,-4.7663,-4.7663,-4.7817,-4.8086,-4.7817,-4.7663,-4.7663,-4.7355,-4.7201,-4.7124,-4.6009,-4.4893,-4.3816,-4.3316,-4.3085,-4.3085,-4.3085,-4.3085,-4.3085,0.0,0.0,0.0,-3.2152,-3.328,-3.4395,-3.5063,-3.6504,-3.7603,-3.786,-3.8358,-3.8689,-3.8689,-3.8689,-3.8689,-3.8689,-3.8689,-3.8836,-3.9093,-3.9093,-3.946,-4.0267,-4.0304,-4.0194,-3.9916,-4.0157,-4.0304,-4.0304,-4.1111,-4.1515,-4.1499,-4.1772,-4.1919,-4.1919,-4.1609,-4.1222,-4.0671,-3.9863,-3.9203,-3.8689,-3.8689,-3.8596,-3.8417,0.0,0.0,0.0,0.0,0.0,0.0,0.0,0.0,0.0,0.0,0.0,0.0,0.0,0.0,0.0,0.0,0.0,0.0,0.0,0.0,0.0,0.0,0.0,0.0,0.0,0.0,0.0,0.0,0.0,0.0,0.0,0.0,0.0,0.0,0.0,-4.2194,-4.2615,-4.3162,-4.3624,-4.3893,-4.3932,-4.4085,-4.4355,-4.4893,-4.5316,-4.5586,-4.6701,-4.7308,-4.7308,-4.7817,-4.8086,-4.8086,-4.8086,-4.824,-4.8548,-4.8548,-4.8702,-4.8971,-4.8663,-4.8548,-4.8509,-4.824,-4.8086,-4.8048,-4.7509,-4.6624,-4.547,-4.4355,-4.3932,-4.3932,-4.3932,-4.3932,-4.3893,0.0,-3.1244,-3.1623,-3.2788,-3.3441,-3.4423,-3.6403,-3.7166,-3.7808,-3.8615,-3.8689,-3.8689,-3.8689,-3.8689,-3.8689,-3.8689,-3.8689,-3.9056,-3.9827,-3.99,-4.0267,-4.1095,-4.1132,-4.0781,-3.9974,-4.0744,-4.1132,-4.1132,-4.1956,-4.2323,-4.2359,-4.313,-4.3515,-4.3478,-4.269,-4.2323,-4.2249,-4.1462,-4.0215,-3.8762,-3.8762,-3.8401,-3.7998,0.0,0.0,0.0,0.0,0.0,0.0,0.0,0.0,0.0,0.0,0.0,0.0,0.0,0.0,0.0,0.0,0.0,0.0,0.0,0.0,0.0,0.0,0.0,0.0,0.0,0.0,0.0,0.0,0.0,0.0,0.0,0.0,0.0,-4.2108,-4.2411,-4.3072,-4.4175,-4.4355,-4.4701,-4.5556,-4.5671,-4.6009,-4.6885,-4.6923,-4.7278,-4.8048,-4.8163,-4.8202,-4.8202,-4.824,-4.8279,-4.8279,-4.8279,-4.8663,-4.951,-4.951,-4.9971,-5.075,-4.9894,-4.951,-4.9471,-4.8586,-4.824,-4.8202,-4.8163,-4.8125,-4.7971,-4.6317,-4.5671,-4.5633,-4.5633,-4.5633,-4.5479,-3.119,-3.191,-3.2609,-3.2948,-3.4282,-3.5599,-3.6566,-3.7327,-3.8012,-3.8606,-3.8689,-3.8689,-3.8689,-3.8689,-3.8689,-3.8689,-3.8689,-3.9056,-3.9827,-3.99,-4.0524,-4.1919,-4.1992,-4.1882,-4.1625,-4.1846,-4.1992,-4.1992,-4.2763,-4.3167,-4.3167,-4.3387,-4.3515,-4.3515,-4.3294,-4.2837,-4.2286,-4.2066,-4.1368,-4.0398,-3.979,-3.914,-3.8496,0.0,0.0,0.0,0.0,0.0,0.0,0.0,0.0,0.0,0.0,0.0,0.0,0.0,0.0,0.0,0.0,0.0,0.0,0.0,0.0,0.0,0.0,0.0,0.0,0.0,0.0,0.0,0.0,0.0,0.0,0.0,-4.2382,-4.2557,-4.2405,-4.3216,-4.3948,-4.4269,-4.5432,-4.6278,-4.6509,-4.7086,-4.7509,-4.774,-4.7778,-4.7855,-4.8086,-4.9317,-4.9971,-4.9971,-5.1164,-5.1818,-5.1818,-5.1818,-5.1933,-5.2164,-5.2164,-5.2279,-5.251,-5.2279,-5.2164,-5.2125,-5.1231,-5.0846,-5.0769,-4.9548,-4.9048,-4.8933,-4.7855,-4.7048,-4.6547,-4.6547,-4.6124,-4.5556,-3.1616,-3.2227,-3.2902,-3.3519,-3.4747,-3.5944,-3.6791,-3.7467,-3.8099,-3.8627,-3.8689,-3.8689,-3.8689,-3.8689,-3.8689,-3.8689,-3.9019,-3.9533,-4.0341,-4.1038,-4.1662,-4.2286,-4.2616,-4.2653,-4.2323,-4.2616,-4.28,-4.28,-4.3294,-4.3515,-4.3515,-4.3515,-4.3515,-4.3515,-4.3515,-4.3258,-4.28,-4.2556,-4.1993,-4.1157,-4.0473,-3.9977,-3.968,-3.935,-3.9203,-3.9135,-3.8478,-3.8449,-3.8643,-3.8332,0.0,0.0,0.0,0.0,0.0,0.0,0.0,0.0,0.0,0.0,0.0,0.0,0.0,0.0,0.0,0.0,0.0,0.0,0.0,0.0,0.0,0.0,0.0,0.0,-4.3221,-4.3625,-4.3839,-4.434,-4.4815,-4.5346,-4.6278,-4.7038,-4.7355,-4.7817,-4.8394,-4.9125,-4.9202,-4.951,-5.0202,-5.1202,-5.1741,-5.1741,-5.2702,-5.3203,-5.3203,-5.3203,-5.3203,-5.3203,-5.3203,-5.3203,-5.3203,-5.3203,-5.3203,-5.3164,-5.2654,-5.2423,-5.2346,-5.101,-5.0471,0.0,0.0,0.0,0.0,0.0,-4.6855,-4.6124,-3.2138,-3.2429,-3.297,-3.4269,-3.4966,-3.5759,-3.701,-3.7506,-3.7981,-3.8611,-3.8643,-3.8627,-3.8673,-3.8689,-3.8689,-3.8689,-3.9423,-4.0267,-4.1168,-4.2653,-4.3167,-4.247,-4.313,-4.3167,-4.2433,-4.313,-4.3515,-4.3515,-4.3515,-4.3515,-4.3515,-4.3515,-4.3515,-4.3515,-4.3515,-4.3515,-4.348,-4.2939,-4.2241,-4.1518,-4.0948,-4.0805,-4.0836,-4.0105,-3.9829,-3.9756,-3.9108,-3.8868,-3.8868,-3.8951,0.0,0.0,0.0,0.0,0.0,0.0,0.0,0.0,0.0,0.0,0.0,0.0,0.0,0.0,0.0,0.0,0.0,0.0,0.0,0.0,0.0,0.0,0.0,0.0,-4.4109,-4.4882,-4.5639,-4.5445,-4.5682,-4.6896,-4.7115,-4.7471,-4.8202,-4.8432,-4.9163,-5.0702,-5.0943,-5.1625,-5.3126,0.0,0.0,0.0,0.0,-5.3472,-5.3472,-5.3472,-5.3472,-5.3472,-5.3472,-5.3472,-5.3472,-5.3472,-5.3472,-5.3472,-5.3395,-5.3356,-5.328,-5.2423,-5.2,-5.1654,-4.9202,-4.824,-4.824,-4.8125,-4.7663,-4.7038,-3.2178,-3.3275,-3.4134,-3.4438,-3.5067,-3.5908,-3.7004,-3.6904,-3.7173,-3.8512,-3.8316,-3.8234,-3.8643,-3.8689,-3.8689,-3.8689,-3.9423,-4.0524,-4.1992,-4.2947,-4.3441,-4.3294,-4.3441,-4.3441,-4.3294,-4.3441,-4.3515,-4.3515,-4.3515,-4.3515,-4.3515,-4.3515,-4.3515,-4.3515,-4.3515,-4.3515,-4.348,-4.2939,-4.2621,-4.2383,-4.1807,-4.0831,-3.9711,-3.9569,-3.9498,-3.952,-3.9824,-3.9895,-3.9985,-4.0467,-4.0618,-4.0618,-4.0618,0.0,0.0,0.0,0.0,0.0,0.0,0.0,0.0,0.0,0.0,0.0,0.0,0.0,0.0,0.0,0.0,0.0,0.0,0.0,0.0,-4.3515,-4.4166,-4.4844,-4.5251,-4.5791,-4.6585,-4.7732,-4.8509,-4.8971,-4.9125,-5.0356,-5.1308,-5.1654,-5.2318,-5.2856,-5.3164,-5.3857,-5.4241,-5.4241,-5.4895,-5.5203,-5.5203,-5.5203,-5.5203,-5.5203,0.0,0.0,-5.5203,-5.5203,-5.5203,-5.5164,-5.4511,-5.4241,-5.4164,-5.3318,-5.2538,-5.1731,-4.9856,-4.9163,-4.9048,-4.8355,-4.8009,-4.7855,-3.3305,-3.3964,-3.4607,-3.4979,-3.5385,-3.5876,-3.6701,-3.658,-3.6746,-3.7808,-3.7929,-3.7893,-3.7929,-3.8401,-3.8742,-3.8879,-4.0264,-4.1625,-4.28,-4.3277,-4.3515,-4.3515,-4.3515,-4.3515,-4.3515,-4.3515,-4.3515,-4.3515,-4.3515,-4.3515,-4.3515,-4.3515,-4.3515,-4.3497,-4.3214,-4.3105,-4.3032,-4.2165,-4.181,-4.1746,-4.1173,-4.0481,-3.9777,-3.9926,-3.9994,-3.9964,-3.9834,-3.9789,-3.9847,-4.0147,-4.0438,-4.0631,-4.0631,-4.0876,-4.1168,0.0,0.0,0.0,0.0,0.0,0.0,0.0,0.0,0.0,0.0,0.0,0.0,0.0,0.0,-4.3515,-4.3515,0.0,-4.3625,-4.4048,-4.4569,-4.5305,-4.6313,-4.695,-4.7589,-4.834,-4.8837,-4.9514,-5.0529,-5.1423,-5.2269,-5.3126,-5.3587,-5.4049,-5.4434,-5.4857,-5.5088,-5.5088,-5.5472,-5.5703,-5.5703,-5.5703,-5.5703,-5.5703,-5.5703,-5.5703,-5.5703,-5.5703,-5.5703,-5.5665,-5.528,-5.5088,-5.5049,-5.4203,-5.3356,-5.2462,-5.1625,-5.0779,-5.001,-4.9548,-4.9125,-4.874,-3.4543,-3.4709,-3.4912,-3.5498,-3.56,-3.5766,-3.6312,-3.6291,-3.6478,-3.7116,-3.7451,-3.7506,-3.7229,-3.7998,-3.8749,-3.9282,-4.1007,-4.2436,-4.3302,-4.3463,-4.3515,-4.3515,-4.3515,-4.3515,-4.3515,-4.3515,-4.3515,-4.3515,-4.3515,-4.3515,-4.3515,-4.3515,-4.3515,-4.3497,-4.3069,-4.2789,-4.2635,-4.1552,-4.1036,-4.085,-4.0294,-4.0113,-4.0111,-4.0398,-4.0573,-4.0574,-4.0079,-3.9934,-4.0035,-4.0155,-4.0484,-4.0854,-4.0854,-4.1157,-4.1682,-4.2323,-4.2543,0.0,0.0,0.0,0.0,0.0,0.0,0.0,0.0,0.0,-4.3515,-4.3515,-4.3515,-4.3515,-4.3515,-4.3515,-4.3754,-4.4544,-4.504,-4.5881,-4.7367,-4.7959,-4.8384,-4.8757,-4.9111,-4.9962,-5.1749,-5.2192,-5.301,-5.4395,-5.4626,-5.5011,-5.5665,-5.5703,-5.5703,-5.5703,-5.5703,-5.5703,-5.5703,-5.5703,-5.5703,-5.5703,-5.5703,-5.5703,-5.5703,-5.5703,-5.5703,-5.5703,-5.5703,-5.5703,-5.5665,-5.5011,-5.4241,-5.3433,-5.3433,-5.251,-5.1164,-5.101,-5.0394,-4.9663,-3.5127,-3.5464,-3.5498,-3.56,-3.56,-3.5766,-3.6312,-3.6006,-3.6037,-3.7058,-3.6825,-3.6706,-3.7135,-3.7667,-3.8542,-3.995,-4.079,-4.1696,-4.2736,-4.3232,-4.3515,-4.3515,-4.3515,-4.3515,-4.3515,-4.3515,-4.3515,-4.3515,-4.3515,-4.3515,-4.3515,-4.3515,-4.3515,-4.3497,-4.3445,-4.316,-4.2655,-4.1979,-4.1385,-4.085,-4.0294,-4.0113,-4.0079,-4.0127,-4.0474,-4.0908,-4.137,-4.1874,-4.2421,-4.2868,-4.31,-4.3135,-4.3135,-4.3169,-4.324,-4.3314,0.0,-4.3404,-4.3478,-4.3515,-4.3515,-4.3515,-4.3515,-4.3515,0.0,0.0,-4.3515,-4.3515,-4.3515,-4.3515,-4.3515,-4.3515,-4.3754,-4.4544,-4.5332,-4.614,-4.7059,-4.7795,-4.842,-4.8828,-5.0165,-5.1235,-5.1826,-5.3318,-5.428,-5.4472,-5.5164,-5.5588,-5.5703,-5.5703,-5.5703,-5.5703,-5.5703,-5.5703,-5.5703,-5.5703,-5.5703,-5.5703,-5.5703,-5.5703,-5.5703,-5.5703,-5.5703,-5.5703,-5.5703,-5.5703,-5.5703,-5.5588,-5.5088,-5.4357,-5.4357,-5.378,-5.2818,-5.2038,-5.1241,-5.0558,-3.4797,-3.5339,-3.56,-3.56,-3.56,-3.5689,-3.5898,-3.5722,-3.5744,-3.6207,-3.6354,-3.6354,-3.6291,-3.7408,-3.863,-3.9718,-4.1015,-4.2044,-4.264,-4.3196,-4.3515,-4.3515,-4.3515,-4.3515,-4.3515,-4.3515,-4.3515,-4.3515,-4.3515,-4.3515,-4.3515,-4.3515,-4.3515,-4.348,-4.281,-4.2366,-4.2139,-4.1196,-4.0648,-4.0417,-4.0179,-4.0113,-4.0113,-4.0113,-4.0441,-4.0897,-4.0838,-4.0978,0.0,-4.1796,-4.221,-4.258,-4.2921,-4.325,-4.3515,-4.3515,-4.3515,0.0,-4.3515,-4.3515,0.0,0.0,-4.3515,-4.3515,-4.3515,-4.3515,-4.3515,-4.3515,-4.3515,-4.3515,-4.3515,-4.3864,-4.4452,0.0,-4.6067,-4.6874,-4.7663,-4.8086,-4.8624,-4.948,-5.0628,-5.159,-5.2265,-5.3656,-5.4703,-5.5164,-5.5511,-5.5703,-5.5703,-5.5703,-5.5703,-5.5703,-5.5703,-5.5703,-5.5703,-5.5703,-5.5703,-5.5703,-5.5703,-5.5703,-5.5703,-5.5703,-5.5703,-5.5703,-5.5703,-5.5703,-5.5703,-5.5703,-5.5511,-5.5203,-5.5203,-5.4703,-5.3857,-5.2972,-5.2125,-5.1395,-3.4471,-3.5144,-3.56,-3.56,-3.56,-3.56,-3.56,-3.56,-3.56,-3.56,-3.5941,-3.6114,-3.5832,-3.7026,-3.8144,-3.8863,-4.0524,-4.1687,-4.2122,-4.2868,-4.3339,-4.3497,-4.3515,-4.3515,-4.3515,-4.3515,-4.3515,-4.3515,-4.3339,-4.3268,-4.3268,-4.3105,-4.3032,-4.3014,-4.2165,-4.1725,-4.1508,-4.0672,-4.0229,-4.0113,-4.0113,-4.0113,-4.0113,-4.0113,-4.0343,-4.0672,-4.0417,-4.0417,-4.0625,-4.1013,-4.1429,-4.1916,-4.2518,-4.2976,-4.3303,-4.3463,-4.3515,-4.3515,-4.3515,0.0,0.0,-4.3515,-4.3515,-4.3515,-4.3515,-4.3515,-4.3515,-4.3515,-4.3515,-4.3588,-4.3791,-4.4305,-4.5039,-4.6067,-4.6709,-4.7369,-4.8196,-4.8306,-4.8696,-4.9823,-5.0819,-5.1703,-5.2532,-5.3735,-5.4724,-5.5336,-5.5375,-5.5375,-5.5375,-5.5375,-5.5423,-5.5543,-5.5543,-5.5588,-5.5703,-5.5703,-5.5703,-5.5703,-5.5703,-5.5703,-5.5703,-5.5703,-5.5703,-5.5703,-5.5703,-5.5703,-5.5703,-5.5703,-5.5703,-5.5703,-5.5703,-5.5318,-5.4741,-5.4126,-5.3203,-5.2269,-3.4471,-3.5144,-3.56,-3.56,-3.56,-3.56,-3.56,-3.56,-3.56,-3.56,-3.5622,-3.581,-3.6312,-3.643,-3.6762,-3.749,-3.8822,-3.9924,-4.0704,-4.2008,-4.2976,-4.3497,-4.3515,-4.3515,-4.3515,-4.3515,-4.3515,-4.3515,-4.2995,-4.2713,-4.2693,-4.2124,-4.1853,-4.1853,-4.1832,-4.1486,-4.0943,-4.0897,-4.0577,-4.0113,-4.0113,-4.0113,-4.0113,-4.0113,-4.0113,-4.0179,-4.0685,-4.1228,-4.1768,0.0,-4.1789,-4.1916,-4.2518,-4.2693,0.0,-4.3339,-4.3515,0.0,0.0,0.0,-4.3515,-4.3515,-4.3515,-4.3515,-4.3515,-4.3515,-4.3515,-4.3515,-4.3515,-4.3718,-4.4525,-4.4654,-4.5205,-4.6819,-4.7076,-4.7369,-4.8196,-4.8306,-4.8636,-4.952,-5.0676,-5.1707,0.0,-5.3745,-5.4516,-5.4532,-5.4532,-5.4532,-5.4532,-5.4532,-5.4701,-5.5121,-5.5121,-5.5326,-5.5703,-5.5703,-5.5703,-5.5703,-5.5703,-5.5703,-5.5703,-5.5703,-5.5703,-5.5703,-5.5703,-5.5703,-5.5703,-5.5703,-5.5703,-5.5703,-5.5703,-5.5703,-5.5665,-5.5626,-5.4587,-5.3164,-3.3795,-3.4496,-3.5075,-3.5532,-3.56,-3.56,-3.56,-3.56,-3.56,-3.56,-3.56,0.0,0.0,0.0,0.0,0.0,-3.8084,-3.9156,-4.004,-4.1237,-4.2229,-4.294,-4.2995,-4.3142,-4.3497,-4.316,-4.3142,-4.3515,-4.3303,-4.3232,-4.3214,-4.2674,-4.2382,-4.2362,-4.1538,-4.107,-4.0897,-4.0504,-4.0279,-4.0113,-4.0113,-4.0113,-4.0113,-4.0113,-4.0113,-4.0138,0.0,-4.0514,-4.072,0.0,0.0,0.0,-4.2518,0.0,0.0,-4.3463,-4.3515,-4.3515,-4.3515,0.0,-4.3515,-4.3515,-4.3515,-4.3515,-4.3515,-4.3515,-4.3515,-4.3515,-4.3515,-4.3588,-4.3864,-4.4782,-4.5663,-4.6214,-4.7205,-4.7993,-4.8269,-4.8783,-4.9444,-5.0288,-5.1239,0.0,0.0,0.0,0.0,-5.4484,-5.4484,-5.4484,-5.4484,-5.4484,-5.4671,-5.5094,-5.5107,-5.5275,-5.5703,-5.5703,-5.5703,-5.5703,-5.5703,-5.5703,-5.5703,-5.5703,-5.5703,-5.5703,-5.5703,-5.5703,-5.5703,-5.5703,-5.5703,-5.5703,-5.5703,-5.5703,-5.5703,-5.5703,-5.5318,-5.478,0.0,-3.3802,-3.4471,-3.5121,-3.5214,0.0,0.0,0.0,0.0,0.0,0.0,0.0,0.0,0.0,0.0,0.0,0.0,-3.8188,-3.8955,-4.0185,-4.1221,-4.1972,-4.2239,-4.2541,-4.2866,-4.256,-4.2541,-4.2885,-4.2885,-4.2885,-4.2866,-4.2306,-4.2041,-4.2,-4.1036,-4.0625,-4.0601,-4.0254,-4.0113,-4.0113,-4.0113,-4.0113,-4.0113,-4.0113,-4.0113,0.0,-4.0113,-4.0113,-4.0129,0.0,0.0,0.0,0.0,0.0,0.0,0.0,-4.3515,-4.3515,-4.3515,-4.3515,-4.3515,-4.3515,-4.3515,-4.3515,-4.3515,-4.3515,-4.3515,-4.3515,-4.3515,-4.3571,-4.3864,-4.5002,-4.5993,-4.6287,-4.7462,-4.8306,-4.8306,-4.904,-4.9904,-5.0692,-5.1499,-5.2307,0.0,0.0,0.0,-5.4033,-5.4033,-5.4033,-5.4033,-5.4033,-5.4204,-5.4602,-5.4618,-5.4919,-5.547,-5.5508,-5.5566,-5.5703,-5.5703,-5.561,-5.547,-5.5621,-5.561,-5.547,-5.5621,-5.5703,-5.5703,-5.5703,-5.5703,-5.5703,-5.5703,-5.5703,-5.5703,-5.5703,-5.5703,-5.5626,0.0,0.0,-3.3744,0.0,0.0,0.0,0.0,0.0,0.0,0.0,0.0,0.0,0.0,0.0,0.0,0.0,0.0,0.0,-3.7503,-3.8898,-3.9997,-4.0642,-4.1329,-4.1754,-4.181,-4.1789,-4.1789,-4.181,-4.181,-4.181,-4.1789,-4.1161,-4.092,-4.0897,-4.0343,-4.0113,-4.0113,-4.0113,-4.0113,-4.0113,-4.0113,-4.0113,-4.0113,-4.0113,-4.0113,-4.0113,-4.0113,-4.0113,0.0,0.0,0.0,0.0,0.0,0.0,0.0,0.0,0.0,-4.3515,-4.3515,-4.3515,-4.3515,-4.3515,-4.3515,-4.3515,-4.3515,-4.3515,-4.3515,-4.3515,-4.3515,-4.3718,0.0,0.0,-4.6104,-4.6892,-4.77,-4.8269,-4.8306,-4.9077,-4.9941,0.0,0.0,0.0,0.0,0.0,0.0,-5.3203,0.0,-5.3203,-5.3203,-5.3203,-5.34,-5.3814,-5.3777,-5.42,-5.508,-5.508,-5.525,-5.5621,-5.5682,-5.5446,-5.5094,-5.5508,-5.5446,-5.5107,-5.5458,-5.5632,-5.5682,-5.5682,-5.5692,-5.5703,-5.5703,-5.5703,-5.5703,-5.5703,-5.5703,-5.5703,0.0,0.0,0.0,0.0,0.0,0.0,0.0,0.0,0.0,0.0,0.0,0.0,0.0,0.0,0.0,0.0,0.0,0.0,-3.6956,-3.7745,-3.8708,-3.9953,-4.0197,-4.078,-4.1775,-4.134,-4.134,-4.181,-4.181,-4.181,-4.1789,-4.1161,-4.092,-4.0897,-4.0343,-4.0113,-4.0113,-4.0113,-4.0113,-4.0113,-4.0113,-4.0113,-4.0113,-4.0113,-4.0113,-4.0113,-4.0113,0.0,0.0,0.0,0.0,0.0,0.0,-4.3286,-4.3515,0.0,0.0,-4.3515,-4.3515,-4.3515,-4.3515,-4.3515,-4.3515,-4.3515,-4.3515,-4.3515,-4.3515,-4.3515,-4.3515,-4.3534,0.0,0.0,0.0,-4.6067,-4.6874,0.0,-4.8233,-4.9591,0.0,-5.0765,0.0,-5.2968,-5.3167,-5.3203,0.0,0.0,-5.3203,-5.3203,-5.3203,-5.3203,-5.34,-5.3814,-5.3777,-5.4083,-5.464,-5.464,-5.4701,-5.4804,-5.5121,-5.5053,-5.4655,-5.508,-5.5015,-5.4655,-5.476,-5.4998,-5.5237,-5.5237,-5.5423,-5.5703,-5.5703,-5.5703,-5.5703,-5.5703,-5.5703,-5.5703,0.0,0.0,0.0,0.0,0.0,0.0,0.0,0.0,0.0,0.0,0.0,0.0,0.0,0.0,0.0,0.0,0.0,0.0,0.0,-3.6898,-3.7624,-3.8448,-3.9112,-3.979,-4.0549,-4.0571,-4.072,-4.1036,-4.1308,-4.142,-4.1385,-4.1047,-4.092,-4.0897,-4.0343,-4.0113,-4.0113,-4.0113,-4.0113,0.0,0.0,-4.0113,-4.0113,-4.0113,-4.0113,-4.0113,0.0,0.0,0.0,0.0,0.0,-4.2362,-4.3232,-4.3515,-4.3515,-4.3515,0.0,-4.3515,-4.3515,-4.3515,-4.3515,-4.3515,-4.3515,-4.3515,-4.3515,-4.3515,-4.3515,-4.3515,-4.3515,0.0,-4.3975,-4.4415,0.0,0.0,0.0,0.0,-4.8196,-4.9738,-5.0802,0.0,-5.2234,0.0,-5.3203,-5.3203,-5.3203,0.0,-5.3203,-5.3203,-5.3203,-5.3203,-5.3277,-5.3506,-5.3526,-5.3739,-5.4187,-5.4387,-5.4484,-5.4484,-5.4716,-5.4609,-5.4204,-5.464,-5.4609,-5.4204,-5.4404,-5.4625,-5.4833,-5.4833,-5.496,-5.5186,-5.5375,-5.5435,-5.5446,-5.5621,-5.5703,-5.5703,0.0,0.0,0.0,0.0,0.0,0.0,0.0,0.0,0.0,0.0,-3.56,-3.56,0.0,0.0,0.0,0.0,0.0,0.0,0.0,0.0,-3.6694,-3.6795,-3.8115,-3.8903,-3.9005,-3.974,-4.0113,-4.0113,-4.0577,-4.0803,-4.0803,-4.0803,-4.0803,-4.078,-4.0294,-4.0113,-4.0113,-4.0113,-4.0113,-4.0113,-4.0113,-4.0113,-4.0113,0.0,0.0,0.0,0.0,0.0,0.0,0.0,-4.2221,-4.277,-4.3321,-4.3515,-4.3515,-4.3515,-4.3515,-4.3515,-4.3515,-4.3515,-4.3515,-4.3515,-4.3515,-4.3515,-4.3515,-4.3515,-4.3515,-4.3515,0.0,-4.3864,-4.4544,-4.4764,-4.5351,-4.6856,0.0,-4.7369,-4.8196,-4.9738,-5.0802,-5.0802,-5.2234,-5.3203,-5.3203,-5.3203,-5.3203,-5.3203,-5.3203,-5.3203,-5.3203,-5.3203,-5.3203,-5.3203,-5.3203,-5.338,-5.372,-5.4118,-5.4343,-5.4305,-5.4371,-5.4153,-5.3739,-5.4187,-5.4153,-5.3739,-5.4135,-5.4338,-5.4404,-5.4404,-5.4436,-5.4516,-5.4876,-5.504,-5.508,-5.5458,-5.561,-5.5621,0.0,0.0,0.0,0.0,0.0,0.0,0.0,0.0,0.0,0.0,-3.56,-3.56,0.0,0.0,0.0,0.0,0.0,0.0,0.0,0.0,0.0,-3.6761,-3.7618,-3.8396,-3.8971,-3.974,0.0,0.0,0.0,-4.0254,-4.0254,-4.0254,-4.0254,-4.0229,-4.0129,-4.0113,-4.0113,-4.0113,-4.0113,-4.0113,-4.0113,-4.0113,-4.0113,0.0,0.0,0.0,0.0,0.0,0.0,0.0,-4.2221,-4.277,-4.3321,-4.3515,-4.3515,-4.3515,-4.3515,-4.3515,-4.3515,-4.3515,-4.3515,-4.3515,-4.3515,-4.3515,-4.3515,-4.3515,0.0,0.0,-4.4011,-4.4525,-4.4654,-4.5259,-4.5993,-4.6966,0.0,0.0,0.0,0.0,-5.0802,0.0,0.0,0.0,-5.3203,-5.3203,0.0,0.0,-5.3203,-5.3203,-5.3203,-5.3203,-5.3203,-5.3203,-5.3203,-5.323,-5.3277,-5.338,-5.342,-5.344,-5.3758,-5.3683,-5.3297,-5.372,-5.372,-5.3334,-5.338,0.0,-5.3923,-5.3923,-5.4153,-5.45,-5.4563,-5.4594,-5.464,-5.5067,-5.5199,-5.5237,0.0,0.0,0.0,0.0,0.0,0.0,0.0,-3.5316,-3.5191,-3.5554,-3.56,-3.56,-3.56,-3.56,-3.56,0.0,0.0,0.0,0.0,0.0,0.0,0.0,0.0,0.0,0.0,0.0,0.0,0.0,0.0,0.0,0.0,0.0,0.0,0.0,0.0,0.0,-4.0113,-4.0113,-4.0113,-4.0113,-4.0113,-4.0113,0.0,0.0,0.0,0.0,0.0,0.0,0.0,0.0,-4.1937,-4.277,-4.3321,-4.3515,-4.3515,-4.3515,-4.3515,-4.3515,-4.3515,-4.3515,-4.3515,-4.3515,-4.3515,-4.3515,-4.3515,0.0,0.0,0.0,-4.4452,-4.4948,-4.5792,-4.592,0.0,-4.7516,0.0,0.0,0.0,0.0,0.0,0.0,0.0,0.0,0.0,-5.3203,-5.3203,-5.3203,-5.3203,-5.3203,-5.3203,-5.3203,-5.3203,-5.3203,-5.3203,-5.3203,-5.3203,-5.3203,-5.3203,-5.3225,-5.34,-5.34,-5.3225,-5.342,-5.34,-5.3203,-5.3203,-5.3297,-5.3504,-5.3504,-5.3864,-5.4447,-5.4667,-5.5018,-5.5445,-5.5879,-5.5769,-5.5435,0.0,0.0,0.0,0.0,0.0,0.0,-3.4911,-3.483,-3.4783,-3.5316,-3.5498,-3.56,-3.56,-3.56,-3.56,0.0,0.0,0.0,0.0,0.0,0.0,0.0,0.0,0.0,0.0,0.0,0.0,0.0,0.0,0.0,0.0,0.0,0.0,0.0,0.0,0.0,0.0,0.0,-4.0113,0.0,0.0,0.0,0.0,0.0,0.0,0.0,0.0,0.0,0.0,0.0,-4.1516,-4.2402,-4.2977,-4.3303,-4.3515,-4.3515,-4.3515,-4.3515,-4.3515,-4.3515,-4.3515,-4.3515,-4.3515,-4.3515,-4.3515,-4.3515,0.0,0.0,-4.4838,-4.5406,-4.6856,-4.6728,-4.6838,0.0,-4.7773,0.0,0.0,0.0,0.0,0.0,0.0,0.0,0.0,-5.3203,0.0,-5.3203,-5.3203,-5.3203,-5.3203,-5.3203,-5.3203,-5.3203,-5.3203,-5.3203,-5.3203,-5.3203,-5.3203,-5.3203,-5.3203,-5.3203,-5.3203,-5.3203,-5.3203,-5.3203,-5.3203,-5.3203,-5.3203,-5.3203,-5.3665,-5.4442,-5.4768,-5.5352,-5.6154,-5.6592,-5.6223,-5.5542,0.0,0.0,0.0,0.0,0.0,0.0,-3.3675,-3.4244,-3.464,-3.4688,-3.5214,-3.56,-3.56,-3.56,-3.56,0.0,0.0,0.0,0.0,0.0,0.0,0.0,0.0,0.0,0.0,0.0,0.0,0.0,0.0,0.0,0.0,0.0,0.0,0.0,0.0,0.0,0.0,0.0,0.0,0.0,0.0,0.0,0.0,0.0,0.0,0.0,0.0,0.0,0.0,0.0,0.0,-4.1161,-4.1789,-4.2676,-4.3515,-4.3515,0.0,0.0,-4.3515,-4.3515,-4.3515,-4.3515,-4.3515,-4.3515,-4.3515,0.0,0.0,-4.4525,-4.5296,-4.6067,-4.6929,-4.7626,-4.8122,-4.8269,0.0,-4.8233,0.0,0.0,0.0,0.0,0.0,0.0,0.0,0.0,-5.3203,-5.3203,-5.3203,-5.3203,-5.3203,-5.3203,-5.3203,-5.3203,-5.3203,-5.3203,-5.3203,-5.3203,-5.3203,-5.3203,-5.3203,-5.3203,-5.3203,-5.3203,-5.3203,-5.3203,-5.3203,-5.3203,0.0,-5.3203,-5.3665,-5.4399,-5.4464,-5.4963,-5.569,-5.6097,-5.5771,-5.5137,0.0,0.0,0.0,0.0,0.0,0.0,-3.3443,-3.3853,-3.412,-3.4568,-3.5168,-3.56,-3.56,-3.56,-3.56,-3.56,-3.56,0.0,0.0,0.0,0.0,0.0,0.0,0.0,0.0,0.0,-3.8903,-4.0113,0.0,0.0,0.0,0.0,0.0,0.0,0.0,0.0,0.0,0.0,0.0,0.0,0.0,0.0,0.0,0.0,0.0,0.0,0.0,0.0,0.0,0.0,0.0,0.0,-4.1161,-4.1817,0.0,0.0,-4.3032,-4.3105,-4.3391,-4.3515,-4.3515,-4.3515,-4.3515,-4.3515,-4.3515,0.0,-4.3882,-4.5149,-4.5663,-4.6287,-4.759,-4.8067,-4.8306,-4.8306,0.0,0.0,0.0,0.0,0.0,0.0,0.0,0.0,0.0,0.0,-5.3203,-5.3203,-5.3203,-5.3203,-5.3203,-5.3203,-5.3203,-5.3203,-5.3203,-5.3203,-5.3203,-5.3203,-5.3203,-5.3203,-5.3203,-5.3203,-5.3203,-5.3203,-5.3203,-5.3203,-5.3203,-5.3203,0.0,-5.3739,-5.4399,-5.517,-5.5647,-5.6345,-5.7065,-5.7213,-5.6783,-5.6029,0.0,0.0,0.0,0.0,0.0,-3.1823,-3.281,-3.3339,-3.3726,-3.3971,-3.4759,-3.5316,-3.5316,-3.5121,-3.5178,-3.5577,-3.56,0.0,0.0,0.0,0.0,0.0,0.0,0.0,0.0,0.0,-3.8633,-4.0113,-4.0113,-4.0113,0.0,0.0,0.0,0.0,0.0,0.0,0.0,0.0,0.0,0.0,0.0,0.0,0.0,0.0,0.0,0.0,0.0,0.0,0.0,0.0,0.0,0.0,0.0,0.0,0.0,0.0,-4.2693,-4.2808,-4.3339,-4.3515,-4.3515,-4.3515,-4.3515,-4.3515,0.0,-4.3681,-4.4232,-4.5626,-4.6104,-4.6691,-4.8049,-4.8306,-4.8306,0.0,0.0,-4.8306,0.0,0.0,0.0,0.0,0.0,-5.3203,0.0,-5.3203,-5.3203,-5.3203,-5.3203,-5.3203,-5.3203,-5.3203,-5.3203,-5.3203,-5.3203,-5.3203,-5.3203,-5.3203,-5.3203,-5.3203,-5.3203,-5.3203,-5.3203,-5.3203,-5.3203,-5.3203,-5.3203,-5.3314,0.0,-5.4179,-5.5023,-5.6014,-5.6602,-5.7299,-5.7997,-5.7997,-5.7336,-5.6345,0.0,0.0,0.0,0.0,0.0,-3.1511,-3.1539,-3.2703,-3.3365,-3.2707,-3.3802,-3.4616,-3.4616,-3.3996,-3.4153,-3.5453,-3.56,0.0,0.0,0.0,0.0,0.0,0.0,0.0,-3.7889,-3.7922,-3.8633,-4.0113,-4.0113,-4.0113,-4.0113,-4.0113,-4.0113,0.0,0.0,0.0,0.0,0.0,0.0,0.0,0.0,0.0,-4.0113,0.0,0.0,0.0,0.0,0.0,0.0,0.0,0.0,0.0,0.0,-4.0138,-4.0441,0.0,-4.2693,-4.2808,-4.3339,-4.3515,-4.3515,-4.3515,-4.3515,-4.3515,0.0,-4.4121,-4.4929,-4.5736,-4.6544,-4.7333,-4.8159,-4.8306,-4.8306,-4.8306,0.0,0.0,-4.8306,0.0,0.0,0.0,0.0,-5.3203,-5.3203,-5.3203,-5.3203,-5.3203,-5.3203,0.0,-5.3203,-5.3203,-5.3203,-5.3203,-5.3203,-5.3203,-5.3203,-5.3203,-5.3203,-5.3203,-5.3203,-5.3203,-5.3203,-5.3203,-5.3203,-5.3203,-5.3203,-5.3665,0.0,-5.4399,-5.5354,-5.6785,-5.6822,-5.7299,-5.7997,-5.7997,-5.6969,-5.5633,0.0,0.0,0.0,0.0,0.0,0.0,-3.1511,-3.2327,-3.2841,-3.2629,-3.3365,-3.3928,-3.3928,-3.3751,-3.3777,-3.4202,-3.464,0.0,0.0,0.0,0.0,0.0,0.0,0.0,-3.7889,-3.7922,-3.8633,-4.0113,-4.0113,-4.0113,-4.0113,-4.0113,-4.0113,-4.0113,-4.0113,0.0,0.0,0.0,0.0,0.0,0.0,-4.0113,-4.0113,0.0,0.0,0.0,0.0,0.0,0.0,0.0,0.0,0.0,0.0,0.0,0.0,-4.1196,-4.1451,-4.1703,-4.2657,-4.294,-4.305,-4.3428,-4.3515,-4.3515,-4.3515,-4.4121,-4.4929,-4.5736,-4.6526,-4.7333,-4.8159,-4.8306,-4.8306,-4.8306,-4.8306,0.0,0.0,0.0,0.0,0.0,-5.2234,-5.3203,0.0,0.0,-5.3203,-5.3203,-5.3203,-5.3203,-5.3203,-5.3203,-5.3203,-5.3203,-5.3203,-5.3203,-5.3203,-5.3203,-5.3203,-5.3203,-5.3203,-5.3203,-5.3203,-5.3203,-5.3203,-5.3203,-5.3775,-5.4179,-5.4473,-5.5611,-5.6345,-5.6859,-5.7409,-5.7776,-5.7997,-5.7997,-5.7336,-5.6345,0.0,0.0,0.0,0.0,0.0,0.0,-3.1511,-3.2104,-3.2492,-3.2216,-3.2788,-3.3209,-3.3209,-3.2971,-3.313,-3.3896,-3.412,0.0,0.0,0.0,0.0,0.0,0.0,0.0,-3.7889,-3.8159,-3.8903,-4.0113,-4.0113,-4.0113,-4.0113,-4.0113,-4.0113,-4.0113,-4.0113,-4.0113,0.0,0.0,0.0,0.0,-4.0113,-4.0113,-4.0113,0.0,0.0,0.0,0.0,0.0,0.0,0.0,0.0,0.0,0.0,0.0,0.0,0.0,-4.0601,-4.085,0.0,-4.2537,-4.277,-4.3124,-4.3339,-4.3463,-4.3232,-4.3816,-4.4619,-4.544,-4.6243,-4.7085,-4.8121,-4.8306,-4.8306,-4.8306,-4.8306,0.0,0.0,0.0,0.0,-5.1646,0.0,0.0,0.0,-5.3203,-5.3203,-5.3203,-5.3203,-5.3203,-5.3203,-5.3203,-5.3203,-5.3203,-5.3203,-5.3203,-5.3203,-5.3203,-5.3203,-5.3203,-5.3203,-5.3203,-5.3203,-5.3203,-5.3203,-5.3261,-5.4069,-5.4583,0.0,-5.6271,-5.6969,-5.7299,-5.7813,-5.7997,-5.7997,-5.7997,-5.7299,-5.6271,0.0,0.0,0.0,0.0,0.0,0.0,0.0,-3.2076,-3.2272,-3.1597,-3.2107,-3.252,-3.252,-3.191,-3.2269,-3.4219,-3.3846,0.0,0.0,0.0,0.0,0.0,0.0,-3.7168,-3.7956,-3.8633,-3.9343,-4.0113,-4.0113,-4.0113,-4.0113,-4.0113,-4.0113,-4.0113,-4.0113,-4.0113,-4.0113,-4.0113,-4.0113,-4.0113,-4.0113,-4.0113,0.0,0.0,0.0,0.0,0.0,0.0,0.0,0.0,0.0,0.0,0.0,0.0,0.0,0.0,0.0,0.0,0.0,-4.2139,-4.2577,-4.2616,-4.2995,-4.325,-4.2751,-4.3268,0.0,-4.4955,-4.575,-4.671,-4.8063,-4.8306,-4.8306,-4.8306,0.0,0.0,0.0,-4.9738,0.0,0.0,-5.3203,0.0,-5.3203,-5.3203,-5.3203,-5.3203,-5.3203,-5.3203,-5.3203,-5.3203,-5.3203,-5.3203,-5.3203,-5.3203,-5.3203,-5.3203,-5.3203,-5.3203,-5.3203,-5.3203,-5.3203,-5.3203,-5.3203,0.0,-5.4142,-5.495,-5.5757,-5.6565,-5.7336,-5.7997,-5.7997,-5.7997,-5.7997,-5.7997,-5.6969,-5.5596,0.0,0.0,0.0,0.0,0.0,0.0,0.0,0.0,0.0,0.0,-3.1653,-3.1768,-3.1768,-3.1596,-3.171,0.0,0.0,0.0,0.0,0.0,0.0,0.0,-3.6694,-3.7405,-3.87,-3.8903,-3.9343,-4.0113,-4.0113,-4.0113,-4.0113,-4.0113,-4.0113,-4.0113,-4.0113,-4.0113,-4.0113,-4.0113,-4.0113,-4.0113,-4.0113,-4.0113,0.0,0.0,0.0,0.0,-4.0113,-4.0113,0.0,0.0,0.0,0.0,0.0,0.0,0.0,0.0,-4.0113,-4.0188,-4.0417,0.0,-4.1429,-4.1895,-4.2103,-4.2165,0.0,-4.2647,-4.3578,-4.4838,0.0,-4.671,-4.8063,-4.8306,-4.8306,-4.8306,0.0,0.0,-4.8306,0.0,0.0,-5.2983,-5.3203,-5.3203,-5.3203,-5.3203,-5.3203,-5.3203,-5.3203,-5.3203,-5.3203,-5.3203,-5.3203,-5.3203,-5.3203,-5.3203,-5.3203,-5.3203,-5.3203,-5.3203,-5.3203,-5.3203,-5.3203,-5.3203,-5.3555,-5.4179,-5.495,-5.5757,-5.6565,-5.7373,-5.7813,-5.7997,-5.7997,-5.7997,-5.7997,-5.7997,-5.6969,-5.5596,0.0,0.0,0.0,0.0,0.0,0.0,0.0,0.0,0.0,0.0,-3.1511,-3.1511,-3.1511,-3.1511,-3.1625,0.0,0.0,0.0,0.0,0.0,0.0,-3.6795,-3.7472,-3.8159,-3.8971,-3.9309,-3.9706,-4.0113,-4.0113,-4.0113,-4.0113,-4.0113,-4.0113,-4.0113,-4.0113,-4.0113,-4.0113,-4.0113,-4.0113,-4.0113,-4.0113,0.0,0.0,0.0,0.0,0.0,-4.0113,-4.0113,0.0,-4.0113,-4.0113,-4.0113,0.0,0.0,0.0,0.0,-4.0113,-4.0113,-4.0113,-4.0514,-4.1013,-4.1296,-4.1617,-4.1746,-4.1429,0.0,0.0,0.0,0.0,0.0,0.0,0.0,0.0,0.0,-4.7879,0.0,0.0,0.0,-5.1793,-5.3078,-5.3203,-5.3203,0.0,-5.3203,-5.3203,-5.3203,-5.3203,-5.3203,-5.3203,-5.3203,-5.3203,-5.3203,-5.3203,-5.3203,-5.3203,-5.3203,-5.3203,-5.3203,-5.3203,-5.3203,-5.3203,-5.3592,-5.3995,-5.4473,-5.5647,-5.6418,-5.6859,-5.7666,-5.7997,-5.7997,-5.7997,-5.7776,-5.7446,-5.7446,-5.6418,-5.506,0.0,0.0,0.0,0.0,0.0,0.0,0.0,0.0,0.0,0.0,0.0,0.0,0.0,0.0,0.0,0.0,0.0,0.0,0.0,0.0,-3.7309,-3.6803,-3.8198,-3.9039,-3.9174,-3.9774,-4.0113,-4.0113,-4.0113,-4.0113,-4.0113,-4.0113,-4.0113,-4.0113,-4.0113,-4.0113,-4.0113,-4.0113,-4.0113,-4.0113,-4.0113,0.0,0.0,0.0,0.0,0.0,0.0,0.0,0.0,-4.0113,-4.0113,-4.0113,-4.0113,0.0,0.0,0.0,0.0,0.0,-4.0113,-4.0476,-4.0873,-4.078,-4.1173,-4.142,-4.0897,0.0,0.0,0.0,0.0,0.0,0.0,-4.6389,0.0,0.0,0.0,0.0,-5.0362,-5.1422,-5.2307,-5.3093,-5.3203,0.0,-5.3203,-5.3203,-5.3203,-5.3203,-5.3203,-5.3203,-5.3203,-5.3203,-5.3203,-5.3203,-5.3203,-5.3203,-5.3203,-5.3203,-5.3203,-5.3203,-5.3203,-5.3203,-5.3203,-5.4032,-5.4473,-5.4656,0.0,0.0,-5.7042,-5.7703,-5.7997,-5.7997,-5.7997,-5.7519,-5.6822,-5.6822,-5.5794,-5.4363,0.0,0.0,0.0,0.0,0.0,0.0,0.0,0.0,0.0,0.0,0.0,0.0,0.0,0.0,0.0,0.0,0.0,0.0,0.0,-3.5485,-3.6172,-3.6662,-3.8177,-3.9276,-3.991,-4.0045,-4.0113,-4.0113,-4.0113,-4.0113,-4.0113,-4.0113,-4.0113,-4.0113,-4.0113,-4.0113,-4.0113,-4.0113,-4.0113,-4.0113,-4.0113,0.0,0.0,0.0,0.0,0.0,0.0,0.0,0.0,-4.0113,-4.0113,-4.0113,-4.0113,0.0,0.0,0.0,0.0,0.0,-4.0113,-4.0154,-4.0229,-4.0229,-4.0303,-4.0353,-4.0254,0.0,0.0,0.0,0.0,0.0,0.0,-4.6389,-4.6413,0.0,0.0,-4.8764,0.0,0.0,-5.2307,-5.3093,0.0,-5.3203,-5.3203,-5.3203,-5.3203,-5.3203,-5.3203,-5.3203,-5.3203,-5.3203,-5.3203,-5.3203,-5.3203,-5.3203,-5.3203,-5.3203,-5.3203,-5.3203,-5.3203,-5.3203,-5.3203,-5.4032,-5.4766,-5.5464,0.0,-5.7189,-5.7813,-5.796,-5.7997,-5.7997,-5.7997,-5.7519,-5.6822,-5.6822,-5.5794,-5.4289,0.0,0.0,0.0,0.0,0.0,0.0,0.0,0.0,0.0,0.0,0.0,0.0,0.0,0.0,0.0,0.0,0.0,0.0,0.0,-3.6148,-3.7109,-3.7871,-3.858,-3.9087,-3.9447,-3.9876,-4.0113,-4.0113,-4.0113,-4.0113,-4.0113,-4.0113,-4.0113,-4.0113,-4.0113,-4.0113,-4.0113,-4.0113,-4.0113,-4.0113,0.0,0.0,0.0,0.0,0.0,0.0,0.0,0.0,0.0,0.0,-4.0113,-4.0113,-4.0113,0.0,0.0,0.0,0.0,0.0,-4.0113,-4.0113,-4.0113,-4.0113,-4.0113,-4.0113,-4.0113,-4.0113,0.0,0.0,0.0,0.0,0.0,0.0,-4.552,-4.584,0.0,-4.8853,-4.9234,-5.0581,-5.1645,0.0,0.0,-5.2196,-5.2576,-5.2599,-5.2769,-5.3146,-5.3203,-5.3203,-5.3203,-5.3203,-5.3203,-5.3203,-5.3203,-5.3203,-5.3203,-5.3203,-5.3203,-5.3203,-5.3203,-5.3203,-5.3203,-5.4032,-5.484,-5.5647,0.0,-5.7262,-5.7997,-5.7997,-5.7997,-5.796,-5.7519,-5.6859,-5.6051,-5.517,-5.4399,-5.3702,0.0,0.0,0.0,0.0,0.0,0.0,0.0,0.0,0.0,0.0,0.0,0.0,0.0,0.0,0.0,0.0,0.0,0.0,0.0,-3.6654,-3.7587,-3.8325,-3.8553,-3.8799,-3.9183,-3.9765,-4.0113,-4.0113,-4.0113,-4.0113,-4.0113,-4.0113,-4.0113,-4.0113,-4.0113,-4.0113,-4.0113,-4.0113,-4.0113,-4.0113,0.0,0.0,0.0,0.0,0.0,0.0,0.0,0.0,0.0,0.0,0.0,0.0,0.0,0.0,0.0,-4.0113,-4.0113,-4.0113,-4.0113,-4.0113,-4.0113,-4.0113,-4.0113,-4.0113,-4.0113,-4.0113,0.0,0.0,0.0,0.0,0.0,-4.4615,0.0,-4.5429,-4.7247,-4.8655,-4.8806,-5.0159,-5.1086,-5.1086,-5.1086,-5.1292,-5.1814,-5.1874,-5.2196,-5.2893,-5.2937,-5.3039,-5.3203,-5.3203,-5.3203,-5.3203,-5.3203,-5.3203,-5.3203,-5.3203,-5.3203,-5.3203,-5.3203,-5.3203,-5.3203,-5.4032,-5.473,-5.5354,-5.6161,-5.6859,-5.7446,-5.7446,-5.7446,-5.7373,-5.6748,-5.6014,-5.5133,-5.3739,-5.3203,-5.3203,0.0,0.0,0.0,0.0,0.0,0.0,0.0,0.0,0.0,0.0,0.0,0.0,0.0,0.0,0.0,0.0,0.0,0.0,-3.5527,-3.5621,-3.5975,-3.6722,-3.7469,-3.8557,-3.9978,-4.0087,-4.0113,-4.0113,-4.0113,-4.0113,-4.0113,-4.0113,-4.0113,-4.0113,-4.0113,-4.0113,-4.0113,-4.0113,-4.0113,-4.0113,-4.0113,0.0,0.0,0.0,0.0,0.0,0.0,0.0,0.0,0.0,0.0,0.0,0.0,0.0,-4.0113,-4.0113,-4.0113,-4.0113,-4.0113,-4.0113,-4.0113,-4.0113,-4.0113,-4.0113,-4.0113,-4.0113,0.0,-4.1982,0.0,0.0,0.0,-4.4615,-4.4818,-4.5557,-4.6914,-4.8097,-4.8792,0.0,-5.1086,-5.1086,-5.1086,-5.1112,-5.1164,-5.1164,-5.1444,-5.2136,-5.2183,-5.2486,-5.3146,-5.3203,-5.3203,-5.3203,-5.3203,-5.3203,-5.3203,-5.3203,-5.3203,-5.3203,-5.3203,-5.3203,-5.3203,-5.4032,-5.4436,-5.4509,-5.5317,-5.5721,-5.578,-5.578,-5.578,-5.578,-5.5706,-5.517,-5.4363,-5.3518,-5.3203,-5.3203,0.0,0.0,0.0,0.0,0.0,0.0,0.0,0.0,0.0,0.0,0.0,0.0,0.0,0.0,0.0,0.0,0.0,0.0,-3.5519,-3.5911,-3.6538,-3.7293,-3.8076,-3.8995,-4.0087,-4.0113,-4.0113,-4.0113,-4.0113,-4.0113,-4.0113,-4.0113,-4.0113,-4.0113,-4.0113,-4.0113,-4.0113,-4.0113,-4.0113,-4.0113,-4.0113,-4.0113,0.0,0.0,0.0,0.0,0.0,0.0,0.0,0.0,-4.0113,-4.0113,-4.0113,-4.0113,-4.0113,-4.0113,-4.0113,-4.0113,-4.0113,-4.0113,-4.0113,-4.0113,-4.0113,0.0,0.0,-4.0426,-4.1068,-4.2083,-4.2658,0.0,0.0,0.0,-4.4852,-4.5568,-4.6538,-4.7455,-4.8177,-4.9159,-4.978,-4.978,-4.978,-4.9982,-5.0362,-5.0417,-5.0716,-5.1419,-5.1469,-5.1593,-5.1874,-5.2289,-5.2312,-5.1898,-5.2289,-5.2312,-5.1898,-5.1874,-5.2125,-5.2531,-5.298,-5.3203,-5.3203,-5.3518,-5.3922,-5.4436,-5.473,-5.5133,-5.5596,-5.5596,-5.5596,-5.5559,-5.506,-5.4363,-5.3628,-5.3314,-5.3203,-5.3203,0.0,0.0,0.0,0.0,0.0,0.0,0.0,0.0,0.0,0.0,0.0,0.0,0.0,0.0,0.0,0.0,0.0,0.0,-3.5519,-3.5975,-3.66,-3.7381,-3.7901,-3.8663,-3.9688,-3.9714,-3.985,-4.0113,-4.0113,-4.0113,-4.0113,-4.0113,-4.0113,-4.0113,-4.0113,-4.0113,-4.0113,-4.0113,-4.0113,-4.0113,-4.0113,-4.0113,0.0,0.0,0.0,0.0,0.0,0.0,0.0,0.0,-4.0113,-4.0113,-4.0113,-4.0113,-4.0113,-4.0113,-4.0113,-4.0113,-4.0113,-4.0113,-4.0113,-4.0113,0.0,0.0,-4.0451,-4.0832,-4.1474,-4.2455,-4.3267,-4.3944,-4.4513,0.0,0.0,0.0,-4.6481,-4.7124,-4.8139,-4.868,-4.9018,-4.9018,-4.9018,-4.9165,-4.9634,-4.9693,-4.9976,-5.0689,-5.0743,-5.085,-5.1086,-5.1544,-5.1569,-5.1112,-5.1544,-5.1569,-5.1112,-5.1086,-5.1343,-5.179,-5.2289,-5.2747,-5.3203,-5.3203,-5.3518,-5.4032,-5.4032,-5.4326,-5.484,-5.484,-5.484,-5.4803,-5.4252,-5.3702,-5.3203,-5.3203,-5.3203,-5.3203,0.0,0.0,0.0,0.0,0.0,0.0,0.0,0.0,-3.5519,-3.5519,-3.5519,0.0,0.0,0.0,0.0,0.0,0.0,0.0,-3.5519,-3.5519,-3.5846,-3.6569,-3.66,-3.732,-3.8881,-3.8908,-3.9315,-4.0113,-4.0113,-4.0113,-4.0113,-4.0113,-4.0113,-4.0113,-4.0113,-4.0113,-4.0113,-4.0113,-4.0113,-4.0113,-4.0113,-4.0113,-4.0113,0.0,0.0,0.0,0.0,0.0,0.0,0.0,-4.0113,-4.0113,-4.0113,-4.0113,-4.0113,-4.0113,-4.0113,-4.0113,-4.0113,-4.0113,-4.0113,-4.0113,0.0,0.0,-4.1204,-4.1238,-4.1644,-4.3105,-4.4045,-4.4615,-4.4615,-4.4615,0.0,-4.6549,-4.6786,-4.7327,-4.8781,-4.9018,-4.9018,-4.9018,-4.9018,-4.9018,-4.9018,-4.9018,-4.9286,-4.9947,-5.0004,-5.0307,-5.1034,-5.1086,-5.1086,-5.1086,-5.1086,-5.1086,-5.1086,-5.1086,-5.1086,-5.1086,-5.1086,-5.1825,-5.3203,-5.3203,-5.3203,-5.3203,-5.3203,-5.3203,-5.3203,-5.3203,-5.3203,-5.3203,-5.3203,-5.3203,-5.3203,-5.3203,-5.3203,-5.3203,0.0,0.0,0.0,0.0,0.0,0.0,0.0,0.0,-3.5519,-3.5519,-3.5519,0.0,0.0,0.0,0.0,0.0,0.0,0.0,-3.5519,-3.5975,-3.6353,-3.6569,-3.7642,-3.8409,-3.8881,-3.9447,-3.9876,-4.0113,-4.0113,-4.0113,-4.0113,-4.0113,-4.0113,-4.0113,-4.0113,-4.0113,-4.0113,-4.0113,-4.0113,-4.0113,-4.0113,-4.0113,-4.0113,0.0,0.0,0.0,0.0,0.0,0.0,0.0,0.0,0.0,-4.0113,-4.0113,-4.0113,-4.0113,-4.0113,-4.0113,-4.0113,-4.0113,0.0,-4.0113,0.0,0.0,0.0,-4.2388,0.0,0.0,-4.4418,-4.4615,-4.4615,-4.4615,0.0,-4.6549,-4.6786,-4.7327,-4.8781,-4.9018,-4.9018,-4.9018,-4.9018,-4.9018,-4.9018,-4.9018,-4.9077,-4.9286,-4.9286,-4.9406,-4.961,-5.0061,-5.0118,-4.9639,-5.009,-5.009,-4.9639,-4.9639,-4.9867,-5.0307,-5.0307,-5.0823,-5.1752,-5.2219,-5.2427,-5.2486,-5.2959,-5.3203,-5.3203,-5.3203,-5.3203,-5.3203,-5.3203,-5.3203,-5.3203,-5.3203,-5.3203,-5.3203,0.0,0.0,0.0,0.0,0.0,0.0,0.0,0.0,-3.5519,-3.5519,-3.5519,-3.5519,0.0,0.0,0.0,0.0,0.0,0.0,-3.5519,-3.5911,-3.6165,-3.6165,-3.7054,-3.7847,-3.8442,-3.9532,-4.0113,-4.0113,-4.0113,-4.0113,-4.0113,-4.0113,-4.0113,-4.0113,-4.0417,-4.0527,-4.0561,-4.0857,-4.0993,-4.0993,-4.0993,-4.0993,-4.0959,0.0,0.0,0.0,0.0,0.0,0.0,0.0,0.0,0.0,-4.0113,-4.0113,-4.0113,-4.0113,-4.0113,-4.0113,-4.0113,-4.0113,0.0,-4.0485,-4.1068,-4.1914,-4.2963,0.0,0.0,0.0,-4.4615,-4.4615,-4.4615,-4.4615,0.0,-4.6549,-4.6786,-4.7327,-4.8781,-4.9018,-4.9018,-4.9018,-4.9018,-4.9018,-4.9018,-4.9018,-4.9018,-4.9018,-4.9018,-4.9018,-4.9018,-4.9372,-4.9402,-4.8984,-4.9372,-4.9402,-4.8984,-4.9018,-4.9195,-4.9576,-4.9576,-4.9838,-5.0314,-5.1544,-5.2112,-5.2136,-5.2893,-5.3203,-5.3203,-5.3203,-5.3203,-5.3203,-5.3203,-5.3203,-5.3203,-5.3203,-5.3203,-5.3203,0.0,0.0,-3.5519,-3.5519,0.0,0.0,0.0,0.0,-3.5519,-3.5519,-3.5519,-3.5519,0.0,0.0,0.0,0.0,0.0,0.0,-3.5519,-3.5519,-3.5519,-3.5519,-3.5554,-3.6321,-3.7879,-3.9262,-4.0003,-4.0113,-4.0113,-4.0146,-4.0214,-4.0214,-4.0248,-4.035,-4.1001,-4.1305,-4.1339,-4.2016,-4.2286,-4.2286,-4.2286,-4.2286,-4.2219,-4.1542,0.0,0.0,0.0,0.0,0.0,0.0,0.0,0.0,-4.0316,-4.0316,-4.0316,-4.0316,-4.0316,-4.0316,-4.0316,-4.0316,0.0,-4.1136,-4.1847,0.0,-4.4276,-4.4615,-4.4615,-4.4615,0.0,-4.4615,-4.4615,-4.4615,-4.5089,-4.6549,-4.6786,-4.7327,-4.8781,-4.9018,-4.9018,-4.9018,-4.9018,-4.9018,-4.9018,-4.9018,-4.9018,-4.9018,-4.9018,-4.9018,-4.9018,-4.9018,-4.9018,-4.9018,-4.9018,-4.9018,-4.9018,-4.9018,-4.9018,-4.9018,-4.9018,-4.9018,-4.9046,-5.1034,-5.197,-5.2042,-5.2725,-5.3017,-5.3017,-5.3017,-5.306,-5.3103,-5.3103,-5.3124,-5.3203,-5.3203,-5.3203,-5.3203,0.0,0.0,-3.5519,-3.5519,0.0,0.0,0.0,0.0,0.0,0.0,0.0,0.0,0.0,0.0,0.0,0.0,0.0,0.0,-3.5519,-3.5519,-3.5519,-3.5519,-3.6039,-3.7084,-3.8635,-3.8989,-3.948,-4.0113,-4.0113,-4.0417,-4.0967,-4.0967,-4.1271,-4.1839,-4.1982,-4.2049,-4.2049,-4.2219,-4.2286,-4.2286,-4.2286,-4.2286,-4.2286,-4.2117,-4.2049,0.0,0.0,0.0,0.0,0.0,0.0,0.0,-4.1839,-4.1839,-4.1839,-4.1839,-4.1839,-4.1839,-4.1839,-4.1839,0.0,0.0,-4.2625,-4.3436,-4.4378,-4.4615,-4.4615,-4.4615,-4.4615,-4.4615,-4.4615,-4.4615,-4.5089,-4.6549,-4.6786,-4.7327,-4.8781,-4.9018,-4.9018,-4.9018,-4.9018,-4.9018,-4.9018,-4.9018,-4.9018,-4.9018,-4.9018,-4.9018,-4.9018,-4.9018,-4.9018,-4.9018,-4.9018,-4.9018,-4.9018,-4.9018,-4.9018,-4.9018,-4.9018,-4.9018,-4.9015,-5.0004,-5.077,-5.1317,-5.1469,-5.1579,-5.1579,-5.1579,-5.1874,-5.2335,-5.2335,-5.2702,-5.3203,-5.3203,-5.3203,-5.3203,0.0,0.0,0.0,0.0,0.0,0.0,0.0,0.0,0.0,0.0,0.0,0.0,0.0,0.0,0.0,0.0,0.0,0.0,-3.5519,-3.5519,-3.5651,-3.6006,-3.6384,-3.7174,-3.8358,-3.8683,-3.9242,-4.0093,-4.0374,-4.0735,-4.1204,-4.1576,-4.1914,-4.232,-4.2658,-4.2828,-4.2861,-4.3234,-4.3396,-4.3396,-4.3396,-4.3396,-4.3362,-4.2963,-4.2828,-4.2794,-4.2422,0.0,0.0,0.0,0.0,0.0,0.0,0.0,-4.2286,-4.2286,-4.2286,-4.2286,-4.2286,0.0,0.0,-4.2726,0.0,-4.4079,-4.4513,-4.4615,-4.4615,-4.4615,-4.4615,-4.4615,-4.4615,-4.4615,-4.5089,-4.6549,-4.6786,-4.7327,-4.8781,-4.9018,-4.9018,-4.9018,-4.9018,-4.9018,-4.9018,-4.9018,-4.9018,-4.9018,-4.9018,-4.9018,-4.9018,-4.9018,-4.9018,-4.9018,-4.9018,-4.9018,-4.9018,-4.9018,-4.9018,-4.9018,-4.9018,-4.9018,-4.9015,-4.9693,-5.039,-5.1086,-5.1086,-5.1086,-5.1086,-5.1086,-5.1292,-5.1618,-5.1618,-5.2042,-5.2644,-5.2644,-5.2893,-5.3203,0.0,0.0,0.0,0.0,0.0,0.0,0.0,0.0,0.0,0.0,0.0,0.0,0.0,0.0,0.0,0.0,0.0,0.0,-3.5669,-3.5759,-3.6082,-3.6722,-3.6754,-3.7126,-3.7909,-3.8631,-3.9421,-4.0254,-4.1003,-4.1494,-4.161,-4.2219,-4.2557,-4.2726,-4.3335,-4.3606,-4.3673,-4.4316,-4.4615,-4.4615,-4.4615,-4.4615,-4.4547,-4.3876,-4.3606,-4.3538,-4.2895,-4.2719,-4.2719,-4.2719,0.0,0.0,0.0,0.0,-4.2719,-4.2719,-4.2719,-4.2719,-4.2719,0.0,-4.2828,-4.347,-4.4113,0.0,-4.4615,-4.4615,-4.4615,-4.4615,-4.4615,-4.4615,-4.4615,-4.4615,-4.5089,-4.6549,-4.6786,-4.7327,-4.8781,-4.9018,-4.9018,-4.9018,-4.9018,-4.9018,-4.9018,-4.9018,-4.9018,-4.9018,-4.9018,-4.9018,-4.9018,-4.9018,-4.9018,-4.9018,-4.9018,-4.9018,-4.9018,-4.9018,-4.9018,-4.9018,-4.9018,-4.9018,-4.9049,-4.958,-5.0174,-5.0716,-5.0716,-5.0716,-5.0716,-5.0716,-5.0796,-5.0903,-5.0903,-5.1343,-5.1946,-5.1946,-5.2381,-5.3002,0.0,0.0,0.0,0.0,0.0,0.0,0.0,0.0,0.0,0.0,-3.5519,-3.5519,0.0,0.0,-3.5519,-3.5519,-3.5519,-3.5759,-3.6327,0.0,0.0,-3.7305,-3.7305,-3.7676,-3.8461,-3.9311,-4.0132,-4.0893,-4.2367,-4.309,-4.3105,-4.3206,-4.3639,-4.431,-4.4412,-4.4445,-4.4445,-4.4547,-4.4615,-4.4615,-4.4615,-4.4615,-4.4581,-4.4479,-4.4445,-4.4445,-4.4344,-4.431,-4.431,-4.431,-4.431,0.0,0.0,0.0,-4.431,-4.431,-4.431,-4.431,0.0,0.0,-4.431,0.0,-4.4513,-4.4615,0.0,0.0,-4.4615,0.0,-4.4615,-4.4615,-4.4615,-4.4615,-4.5089,-4.6549,-4.6786,-4.7327,-4.8781,-4.9018,-4.9018,-4.9018,-4.9018,-4.9018,-4.9018,-4.9018,-4.9018,-4.9018,-4.9018,-4.9018,-4.9018,-4.9018,-4.9018,-4.9018,-4.9018,-4.9018,-4.9018,-4.9018,-4.9018,-4.9018,-4.9018,-4.9018,-4.8984,-4.9077,-4.9199,-4.9286,-4.9286,-4.9286,-4.9286,-4.9286,-4.9639,-5.0174,-5.0174,-5.0581,-5.1241,-5.1241,-5.1643,-5.2266,0.0,0.0,0.0,0.0,0.0,0.0,0.0,0.0,0.0,0.0,0.0,-3.6058,-3.6058,-3.6357,-3.6567,-3.6567,-3.6567,-3.6686,-3.6985,-3.7255,-3.7609,-3.805,-3.7643,-3.7782,-3.8579,-3.8917,-3.969,-4.0996,-4.2073,-4.3123,-4.4079,-4.4079,-4.4248,-4.4615,-4.4615,-4.4615,-4.4615,-4.4615,-4.4615,-4.4615,-4.4615,-4.4615,-4.4615,-4.4615,-4.4615,-4.4615,-4.4615,-4.4615,-4.4615,-4.4615,-4.4615,-4.4615,-4.4615,0.0,0.0,0.0,-4.4615,0.0,-4.4615,-4.4615,-4.4615,0.0,-4.4615,-4.4615,-4.4615,0.0,-4.4615,-4.4615,-4.4615,-4.4615,-4.4615,-4.4615,-4.4953,-4.6007,-4.6515,-4.7158,-4.824,-4.8748,-4.9018,-4.9018,-4.9018,-4.9018,-4.9018,-4.9018,-4.9018,-4.9018,-4.9018,-4.9018,-4.9018,-4.9018,-4.9018,-4.9018,-4.9018,-4.9018,-4.9018,-4.9018,-4.9018,-4.9018,-4.9018,-4.9018,-4.9018,-4.9018,-4.9018,-4.9018,-4.9018,-4.9018,-4.9018,-4.9018,-4.9199,-4.9432,-4.9432,-4.9896,-5.0472,-5.0472,-5.0929,-5.1544,0.0,0.0,0.0,0.0,0.0,0.0,0.0,0.0,0.0,0.0,0.0,-3.6716,-3.6716,0.0,0.0,0.0,-3.7404,-3.7494,-3.7644,-3.7823,-3.8189,-3.8803,-3.8224,-3.8189,-3.8803,-3.8918,-3.961,-4.0928,-4.163,-4.2769,-4.427,-4.427,-4.4384,-4.4615,-4.4615,-4.4615,-4.4615,-4.4818,-4.4857,-4.4857,-4.4857,-4.4857,-4.4886,-4.4682,-4.4615,-4.4615,-4.4615,-4.4615,-4.4615,-4.4615,-4.4615,-4.4615,-4.4615,-4.4615,0.0,0.0,0.0,0.0,0.0,0.0,-4.4615,-4.4615,-4.4615,-4.4615,0.0,0.0,-4.4615,0.0,-4.4615,-4.4615,-4.4615,-4.4615,-4.4852,-4.5568,-4.6143,-4.6853,-4.777,-4.8376,-4.8815,-4.8984,-4.9018,-4.9018,-4.9018,-4.9018,-4.9018,-4.9018,-4.9018,-4.9018,-4.9018,-4.9018,-4.9018,-4.9018,-4.9018,-4.9018,-4.9018,-4.9018,-4.9018,-4.9018,-4.9018,-4.9018,-4.9018,-4.9018,-4.9018,-4.9018,-4.9018,-4.9018,-4.9018,-4.9018,-4.9018,-4.9018,-4.9018,-4.9316,-4.9751,-4.9751,-5.0202,-5.0823,0.0,0.0,0.0,0.0,0.0,0.0,0.0,0.0,0.0,0.0,0.0,-3.7375,-3.7375,-3.7375,-3.7404,-3.7404,-3.7404,-3.7674,-3.8302,-3.896,-3.932,-3.9356,-3.932,0.0,-3.9356,-4.0178,-4.0628,-4.073,-4.1593,-4.2458,-4.3383,-4.3383,-4.3831,-4.4615,-4.4615,-4.4615,-4.4649,-4.5331,-4.5635,-4.5635,-4.5635,-4.5635,-4.5568,-4.4886,-4.4615,-4.4615,-4.4615,-4.4615,-4.4615,-4.4615,-4.4615,-4.4615,-4.4615,-4.4615,-4.4615,0.0,0.0,0.0,0.0,-4.4615,0.0,-4.4615,0.0,0.0,0.0,0.0,-4.4615,-4.4615,-4.4615,-4.4615,-4.4615,-4.4615,-4.4852,-4.5568,-4.5737,-4.6278,-4.7703,-4.7906,-4.824,-4.8917,-4.9018,-4.9018,-4.9018,-4.9018,-4.9018,-4.9018,-4.9018,-4.9018,-4.9018,-4.9018,-4.9018,-4.9018,-4.9018,-4.9018,-4.9018,-4.9018,-4.9018,-4.9018,-4.9018,-4.9018,-4.9018,-4.9018,-4.9018,-4.9018,-4.9018,-4.9018,-4.9018,-4.9018,-4.9018,-4.9018,-4.9018,-4.9015,-4.9046,-4.9046,-4.9492,-5.0061,0.0,0.0,0.0,0.0,0.0,0.0,0.0,0.0,0.0,0.0,0.0,0.0,0.0,-3.8422,-3.8691,-3.8691,-3.8691,-3.8811,-3.905,-3.929,-3.9373,-3.9373,-3.9373,-3.9373,-3.9373,-3.9702,-4.0135,-4.069,-4.156,-4.2458,-4.329,-4.3889,-4.4534,-4.5297,-4.5297,-4.5297,-4.5365,-4.6075,-4.6413,-4.6346,-4.5906,-4.5703,-4.5635,-4.4857,-4.4615,-4.4615,-4.4615,-4.4615,-4.4615,-4.4615,-4.4615,-4.4615,-4.4615,0.0,0.0,0.0,0.0,0.0,0.0,0.0,0.0,-4.4615,-4.4615,-4.4615,-4.4615,-4.4615,-4.4615,-4.4615,-4.4615,-4.4615,-4.4615,-4.4615,-4.4716,-4.4925,-4.5399,-4.5872,-4.6413,-4.7297,-4.7973,-4.8244,-4.8714,-4.9018,-4.9018,-4.9018,-4.9018,-4.9018,-4.9018,-4.9018,-4.9018,-4.9018,-4.9018,-4.9018,-4.9018,-4.9018,-4.9018,-4.9018,-4.9018,-4.9018,-4.9018,-4.9018,-4.9018,-4.9018,-4.9018,-4.9018,-4.9018,-4.9018,-4.9018,-4.9018,-4.9018,-4.9018,-4.9018,-4.9018,-4.9018,-4.9018,-4.9168,-4.9376,0.0,0.0,0.0,-3.7704,0.0,-3.7823,-3.8063,-3.8093,-3.8093,-3.8093,0.0,0.0,0.0,0.0,-3.9373,-3.9373,-3.9373,-3.9373,-3.9373,-3.9373,-3.9373,-3.9373,-3.9373,-3.9373,-3.9373,-3.9373,-3.9666,-4.0274,-4.1162,-4.198,-4.2782,-4.3986,-4.4922,-4.5596,-4.6195,-4.6312,-4.6109,-4.6853,-4.7158,-4.7124,-4.665,-4.6447,-4.638,-4.5602,-4.5359,-4.5326,-4.5089,-4.4987,-4.4925,-4.4682,-4.4615,-4.4615,0.0,0.0,0.0,0.0,0.0,0.0,-4.4615,0.0,0.0,0.0,0.0,-4.4615,-4.4615,0.0,-4.4615,-4.4615,-4.4615,-4.4615,-4.4615,-4.4615,-4.4615,-4.4615,-4.4993,-4.5432,-4.5669,-4.6549,-4.7361,-4.7838,-4.8311,-4.8748,-4.8984,-4.9018,-4.9018,-4.9018,-4.9018,0.0,-4.9018,-4.9018,-4.9018,-4.9018,-4.9018,-4.9018,-4.9018,-4.9018,-4.9018,-4.9018,-4.9018,-4.9018,-4.9018,-4.9018,-4.9018,-4.9018,-4.9018,-4.9018,-4.9018,-4.9018,-4.9018,-4.9018,-4.9018,-4.9018,-4.9018,-4.9018,-4.9018,-4.9018,-3.7464,-3.7464,-3.7674,-3.8302,-3.8422,-3.8631,-3.932,-3.9439,-3.9439,-3.9439,0.0,0.0,0.0,0.0,0.0,-3.9433,-3.9433,-3.9433,-3.9433,-3.9433,-3.9433,-3.9433,-3.9433,-3.9433,-3.9433,-3.9433,-3.9433,-3.9433,-4.0335,-4.1093,-4.1775,-4.3589,-4.4772,-4.5497,-4.7136,-4.753,-4.6921,-4.7631,-4.7906,-4.7906,-4.7906,-4.7906,-4.7804,-4.709,-4.6786,-4.6718,-4.6007,-4.5737,-4.5635,-4.4919,0.0,0.0,0.0,0.0,0.0,0.0,0.0,0.0,0.0,0.0,0.0,0.0,0.0,0.0,-4.4587,0.0,-4.4615,-4.4587,-4.4587,-4.4615,-4.4615,-4.4615,-4.4615,-4.4615,-4.4615,-4.4852,-4.5568,-4.5703,-4.6244,-4.7635,-4.7838,-4.8173,-4.8917,-4.8984,-4.8984,-4.9018,-4.9018,-4.9018,-4.9018,-4.9018,-4.9018,-4.9018,-4.9018,-4.9018,-4.9018,-4.9018,-4.9018,-4.9018,-4.9018,-4.9018,-4.9018,-4.9018,-4.9018,-4.9018,-4.9018,-4.9018,-4.9018,-4.9018,-4.9018,-4.9018,-4.9018,-4.9018,-4.9018,-4.9018,-4.9018,-4.9018,-3.8871,-3.8871,-3.8931,-3.911,-3.914,-3.92,-3.9379,-3.9828,-4.0127,0.0,0.0,0.0,-4.0846,-4.0846,-4.0846,-4.0846,-4.0846,-4.0846,-4.0846,-4.0846,-4.0846,-4.0846,-4.0846,-4.0846,-4.0846,-4.0846,-4.0846,-4.0846,-4.1709,-4.2266,-4.2452,-4.4269,-4.5498,-4.6255,-4.7371,-4.8105,-4.8409,-4.8612,-4.8714,-4.8646,-4.8108,-4.7906,-4.7804,-4.709,-4.6786,-4.6752,-4.6549,-4.6481,-4.6447,-4.6244,-4.5838,-4.5297,0.0,0.0,0.0,0.0,0.0,0.0,-4.4615,0.0,0.0,0.0,0.0,0.0,-4.3798,-4.415,-4.4412,-4.3768,-4.415,-4.4615,-4.4615,-4.4615,-4.4615,-4.4615,-4.4615,-4.4682,-4.4857,-4.5365,-4.5872,-4.6278,-4.6786,-4.7394,-4.8139,-4.8176,-4.8443,0.0,-4.9018,-4.9018,-4.9018,-4.9018,-4.9018,-4.9018,-4.9018,-4.9018,-4.9018,-4.9018,-4.9018,-4.9018,-4.9018,-4.9018,-4.9018,-4.9018,-4.9018,-4.9018,-4.9018,-4.9018,-4.9018,-4.9018,-4.9018,-4.9018,-4.9018,-4.9018,-4.9018,-4.9018,-4.9018,-4.9018,-3.9768,-3.9828,-3.9918,-4.0187,-4.0247,-4.0247,-4.0247,-4.0576,-4.0816,0.0,0.0,0.0,-4.1422,-4.1422,-4.1422,-4.1422,-4.1422,-4.1422,-4.1422,-4.1422,-4.1422,-4.1422,-4.1422,-4.1422,-4.1422,-4.1422,-4.1422,-4.1422,-4.2291,-4.2886,-4.3206,-4.5012,-4.6255,-4.7012,-4.7939,-4.8612,-4.9018,-4.9018,-4.9018,-4.8951,-4.8545,-4.8376,-4.8308,-4.7868,-4.7699,-4.7665,-4.7361,-4.7259,-4.7225,-4.6887,-4.6312,0.0,0.0,0.0,0.0,0.0,0.0,0.0,0.0,0.0,0.0,0.0,0.0,0.0,-4.332,-4.368,-4.4006,-4.3889,-4.427,-4.4468,-4.4121,-4.4064,-4.3948,-4.3558,-4.3827,-4.4179,-4.4559,-4.4668,-4.4922,-4.5612,-4.5778,-4.6227,-4.7331,-4.7462,-4.7767,-4.8511,-4.8545,-4.868,-4.8984,-4.9018,-4.9018,-4.9018,-4.9018,-4.9018,-4.9018,-4.9018,-4.9018,-4.9018,-4.9018,-4.9018,-4.9018,-4.9018,-4.9018,-4.9018,-4.9018,-4.9018,-4.9018,-4.9018,-4.9018,-4.9018,-4.9018,-4.9018,-4.9018,-4.9018,-4.9018,-4.9018,0.0,-4.0516,-4.0696,-4.1294,-4.1422,-4.1422,-4.1422,-4.1482,-4.1542,0.0,-4.1564,-4.1594,-4.1594,-4.1594,-4.1594,-4.1594,-4.1594,-4.1594,-4.1594,-4.1594,-4.1594,-4.1594,-4.1594,-4.1594,-4.1594,-4.1594,-4.1594,-4.1594,-4.2395,-4.3112,-4.3778,-4.5518,-4.6716,-4.7473,-4.845,-4.8892,-4.9018,-4.9018,-4.9018,-4.9018,-4.9018,-4.9018,-4.9018,-4.9018,-4.9018,-4.8917,-4.8274,-4.8007,-4.7906,-4.7158,-4.6481,0.0,0.0,0.0,0.0,0.0,-4.4564,0.0,0.0,0.0,0.0,0.0,-4.2707,0.0,-4.2894,-4.3078,-4.332,-4.4035,-4.4236,-4.4064,-4.329,-4.3139,-4.2925,-4.2141,-4.2645,-4.3443,-4.4179,-4.371,-4.3794,-4.5148,-4.4673,-4.4848,-4.6406,-4.6621,-4.6989,-4.7703,-4.7838,-4.821,-4.8951,-4.9018,-4.9018,-4.9018,-4.9018,-4.9018,-4.9018,-4.9018,-4.9018,-4.9018,-4.9018,-4.9018,-4.9018,-4.9018,-4.9018,-4.9018,-4.9018,-4.9018,-4.9018,-4.9018,-4.9018,-4.9018,-4.9018,-4.9018,-4.9018,-4.9018,-4.9018,-4.9018,-4.1175,-4.1175,-4.1235,-4.1392,-4.1422,-4.1422,-4.1422,-4.1871,-4.2201,-4.2201,-4.2641,-4.2901,-4.2901,-4.2901,-4.2901,-4.2901,-4.2901,-4.2901,-4.2901,-4.2901,-4.2901,-4.2901,-4.2901,-4.2901,-4.2901,-4.2901,-4.2901,-4.2901,-4.3097,-4.3274,-4.3434,-4.4595,-4.5615,-4.6523,-4.744,-4.8289,-4.9018,-4.9018,-4.9018,-4.9018,-4.9018,-4.9018,-4.9018,-4.9018,-4.9018,-4.8984,-4.8849,-4.8781,-4.868,-4.7936,-4.7597,-4.7394,0.0,0.0,0.0,-4.4634,0.0,0.0,0.0,0.0,0.0,0.0,-4.3169,0.0,-4.1462,-4.1723,-4.2077,-4.156,-4.2013,-4.2458,-4.23,-4.2269,-4.2205,-4.2013,-4.2109,-4.2332,-4.2489,-4.2986,-4.3174,-4.2778,-4.3182,-4.3875,-4.4754,-4.5522,-4.621,-4.6955,-4.7564,-4.821,-4.8951,-4.9018,-4.9018,-4.9018,-4.9018,-4.9018,-4.9018,-4.9018,-4.9018,-4.9018,-4.9018,-4.9018,-4.9018,-4.9018,-4.9018,-4.9018,-4.9018,-4.9018,-4.9018,-4.9018,-4.9018,-4.9018,-4.9018,-4.9018,-4.9018,-4.9018,-4.9018,-4.9018,-4.1841,-4.1901,-4.2021,-4.2312,-4.2372,-4.2372,-4.2372,-4.2641,-4.2851,-4.2851,-4.312,-4.329,-4.329,-4.329,-4.329,-4.329,-4.329,-4.329,-4.329,-4.329,-4.329,-4.329,-4.329,-4.329,-4.329,-4.329,-4.329,-4.329,-4.329,-4.3566,-4.4082,-4.4548,-4.53,-4.6244,-4.7172,-4.7868,-4.8321,-4.8798,-4.9018,-4.9018,-4.9018,-4.9018,-4.9018,-4.9018,-4.9018,-4.9018,-4.9018,-4.9018,-4.8951,-4.8578,-4.8176,0.0,-4.7462,-4.6853,-4.6064,0.0,-4.4716,-4.4301,0.0,0.0,0.0,-4.2109,0.0,0.0,0.0,-4.1062,-4.133,-4.133,-4.1691,-4.1853,-4.1429,-4.133,-4.1229,-4.0758,-4.1062,-4.1229,-4.0758,-4.1461,-4.1981,-4.1981,-4.1981,-4.2492,-4.3723,-4.4245,-4.4993,-4.6148,-4.7293,-4.8041,-4.8443,-4.8815,-4.9018,-4.9018,-4.9018,-4.9018,-4.9018,-4.9018,-4.9018,-4.9018,-4.9018,-4.9018,-4.9018,-4.9018,-4.9018,-4.9018,-4.9018,-4.9018,-4.9018,-4.9018,-4.9018,-4.9018,-4.9018,-4.9018,-4.9018,-4.9018,-4.9018,-4.9018,-4.25,-4.259,-4.2731,-4.32,-4.329,-4.329,-4.329,-4.329,-4.329,-4.329,-4.329,-4.329,-4.329,-4.329,-4.329,-4.329,-4.329,-4.329,-4.329,-4.329,-4.329,-4.329,-4.329,-4.329,-4.329,-4.329,-4.329,-4.329,-4.329,-4.3693,-4.451,-4.451,-4.5042,-4.5961,-4.6934,-4.744,-4.7671,-4.8608,-4.9018,-4.9018,-4.9018,-4.9018,-4.9018,-4.9018,-4.9018,-4.9018,-4.9018,-4.9018,-4.9018,-4.9018,-4.8612,-4.8108,-4.8108,-4.7477,0.0,0.0,0.0,0.0,0.0,0.0,0.0,0.0,0.0,-3.9809,0.0,0.0,0.0,-4.133,0.0,0.0,0.0,0.0,0.0,0.0,0.0,0.0,0.0,-3.9934,0.0,-4.1428,-4.1028,-4.1231,-4.2645,-4.3108,-4.383,-4.5102,-4.6608,-4.7507,-4.7625,-4.8351,-4.8849,-4.9018,-4.9018,-4.9018,-4.9018,-4.9018,-4.9018,-4.9018,-4.9018,-4.9018,-4.9018,-4.9018,-4.9018,-4.9018,-4.9018,-4.9018,-4.9018,-4.9018,-4.9018,-4.9018,-4.9018,-4.9018,-4.9018,-4.9018,-4.9018,-4.9018,-4.317,-4.32,-4.32,-4.329,-4.329,-4.329,-4.329,-4.329,-4.329,-4.329,-4.329,-4.329,-4.329,-4.329,-4.329,-4.329,-4.329,-4.329,-4.329,-4.329,-4.329,-4.329,-4.329,-4.329,-4.329,-4.329,-4.329,-4.329,-4.329,-4.3369,-4.3488,-4.3488,-4.4004,-4.5005,-4.5957,-4.6799,-4.7671,0.0,-4.9018,0.0,-4.9018,-4.9018,0.0,-4.9018,-4.9018,-4.9018,-4.9018,-4.9018,-4.9018,0.0,-4.8951,-4.8883,0.0,-4.7782,-4.6387,-4.5464,0.0,0.0,0.0,0.0,0.0,0.0,-4.1052,0.0,0.0,0.0,-3.9589,-3.9666,0.0,0.0,0.0,0.0,0.0,0.0,0.0,0.0,-3.8637,-3.9092,-3.9559,-3.9666,-4.0274,-4.0792,-4.0995,-4.2395,-4.3342,-4.3396,-4.497,-4.6186,-4.6709,-4.7569,-4.8342,-4.8984,-4.9018,-4.9018,-4.9018,-4.9018,-4.9018,-4.9018,-4.9018,-4.9018,-4.9018,-4.9018,-4.9018,-4.9018,-4.9018,-4.9018,-4.9018,-4.9018,-4.9018,-4.9018,-4.9018,-4.9018,-4.9018,-4.9018,-4.9018,-4.9018,-4.3439,-4.329,-4.329,-4.329,-4.329,-4.329,-4.329,-4.3618,-4.4007,-4.4436,-4.4466,-4.4466,-4.4466,-4.4466,-4.4317,0.0,-4.3898,-4.3898,-4.3898,-4.3499,-4.3469,-4.3858,-4.3499,-4.329,-4.329,-4.329,-4.329,-4.329,-4.329,-4.329,-4.329,-4.329,-4.3527,-4.4004,-4.5525,-4.6419,-4.6867,0.0,-4.9018,0.0,0.0,-4.9627,0.0,-4.9627,-4.9627,-4.9627,-4.9627,-4.9357,-4.9018,0.0,-4.9018,0.0,0.0,0.0,0.0,-4.607,0.0,0.0,0.0,0.0,0.0,0.0,0.0,0.0,-4.0051,0.0,-3.9373,0.0,0.0,0.0,0.0,0.0,0.0,0.0,-3.923,0.0,0.0,0.0,-3.9373,0.0,0.0,0.0,-4.0656,-4.182,-4.2492,-4.2462,-4.352,-4.4326,-4.4529,-4.6185,-4.7291,-4.7623,-4.85,-4.9018,-4.9018,-4.9018,-4.9018,-4.9018,-4.9018,-4.9018,-4.9018,-4.9018,-4.9018,-4.9018,-4.9018,-4.9018,-4.9018,-4.9018,-4.9018,-4.9018,-4.9018,-4.9018,-4.9018,-4.9018,-4.9018,-4.9018,-4.4047,0.0,-4.3828,-4.3828,-4.3828,-4.3828,-4.3828,-4.4287,-4.4766,-4.5244,-4.5304,-4.5304,-4.5304,-4.5304,-4.5095,0.0,-4.4586,-4.4586,-4.4586,-4.4137,-4.3977,-4.4317,-4.3828,-4.3469,-4.329,-4.329,-4.329,-4.329,-4.329,-4.329,-4.329,-4.329,-4.329,-4.3369,-4.5048,-4.5814,-4.5889,0.0,-4.8358,-4.8592,-4.9385,-5.0113,-5.0676,-5.0473,-5.0405,-5.0405,-5.0405,-4.974,-4.891,-4.891,-4.8617,0.0,-4.8545,-4.7966,-4.7104,0.0,0.0,0.0,-4.2922,0.0,0.0,0.0,0.0,0.0,0.0,0.0,0.0,0.0,0.0,0.0,0.0,0.0,0.0,0.0,0.0,-3.9349,0.0,-3.9254,0.0,0.0,0.0,0.0,0.0,-4.1129,-4.1528,-4.1329,-4.2233,-4.2781,-4.2741,-4.4594,-4.5929,-4.655,-4.7721,-4.8531,-4.9018,-4.9018,-4.9018,-4.9018,-4.9018,-4.9018,-4.9018,-4.9018,-4.9018,-4.9018,-4.9018,-4.9018,-4.9018,-4.9018,-4.9018,-4.9018,-4.9018,-4.9018,-4.9018,-4.9018,-4.9018,-4.9018,-4.5244,-4.5244,0.0,-4.5244,-4.5244,-4.5244,-4.5244,-4.5244,-4.5274,-4.5304,-4.5304,-4.5304,-4.5304,-4.5304,-4.5274,0.0,-4.5274,-4.5274,-4.5274,-4.5244,-4.4945,-4.4347,0.0,-4.3947,-4.329,-4.329,-4.329,-4.329,-4.329,-4.329,-4.329,-4.329,-4.329,-4.3329,-4.4358,-4.4849,-4.4924,-4.5885,-4.666,-4.7337,-4.8353,-5.0126,-5.2164,0.0,-5.1151,-5.1151,-5.1151,0.0,0.0,-4.8727,-4.7624,-4.6454,-4.734,0.0,0.0,0.0,0.0,0.0,0.0,0.0,0.0,-4.2381,0.0,0.0,0.0,0.0,-4.0367,0.0,0.0,0.0,0.0,0.0,0.0,0.0,0.0,0.0,0.0,0.0,0.0,0.0,0.0,0.0,0.0,-4.0239,-4.0413,0.0,-4.1093,-4.1975,-4.1856,-4.2704,-4.4237,-4.655,-4.6648,-4.7428,-4.8984,-4.9018,-4.9018,-4.9018,-4.9018,-4.9018,-4.9018,-4.9018,-4.9018,-4.9018,-4.9018,-4.9018,-4.9018,-4.9018,-4.9018,-4.9018,-4.9018,-4.9018,-4.9018,-4.9018,-4.9018,-4.9018,-4.6621,0.0,0.0,-4.5454,-4.5304,-4.5454,-4.5903,-4.5963,-4.6142,-4.6561,-4.6621,-4.6621,-4.6621,-4.6621,-4.6441,-4.6022,-4.5963,-4.5963,-4.5963,-4.5544,0.0,-4.5592,-4.5214,-4.4855,0.0,-4.4197,-4.3947,-4.3947,-4.3499,-4.329,-4.329,-4.329,-4.329,-4.3329,-4.4358,-4.5022,0.0,0.0,0.0,0.0,0.0,-5.0278,-5.2023,0.0,-5.1928,-5.1928,-5.1928,-5.1258,-5.0258,-4.9588,-4.8685,-4.7787,-4.744,-4.6375,-4.5264,-4.5264,-4.4586,-4.3732,0.0,0.0,-4.3,-4.3,0.0,0.0,0.0,0.0,0.0,0.0,0.0,0.0,0.0,0.0,0.0,0.0,0.0,0.0,0.0,0.0,0.0,0.0,0.0,0.0,0.0,0.0,0.0,0.0,-3.992,-4.0257,-4.0218,-4.15,-4.2811,-4.4037,-4.5132,-4.6153,-4.7138,-4.777,-4.8063,-4.8096,-4.8702,-4.9018,-4.9018,-4.9018,-4.9018,-4.9018,-4.9018,-4.9018,-4.9018,-4.9018,-4.9018,-4.9018,-4.9018,-4.9018,-4.9018,-4.9018,-4.9018,-4.9018,-4.7309,-4.7309,-4.704,-4.6172,-4.5992,-4.6172,-4.6621,-4.6681,-4.683,-4.7249,-4.7309,-4.7309,-4.7309,-4.7309,-4.713,-4.6711,-4.6681,-4.6681,-4.6681,-4.6262,0.0,-4.6279,-4.5903,-4.5544,0.0,0.0,0.0,0.0,-4.3977,-4.3648,-4.3648,-4.3409,-4.329,-4.3329,-4.4209,-4.4855,-4.5262,-4.6167,-4.6865,0.0,0.0,-5.0019,0.0,0.0,-5.1859,-5.21,-5.1722,-5.0911,-4.9899,-4.9256,-4.8336,-4.7367,-4.685,-4.5953,-4.5084,-4.4874,-4.432,-4.3771,-4.3409,-4.329,0.0,-4.329,-4.303,0.0,-4.2701,0.0,-4.1662,0.0,0.0,0.0,0.0,0.0,0.0,0.0,0.0,0.0,0.0,-3.9373,0.0,0.0,0.0,0.0,0.0,0.0,0.0,-3.9409,-3.9373,-3.9373,0.0,-4.038,-4.1401,-4.2404,-4.3689,-4.4808,-4.5824,-4.6669,-4.7273,-4.7638,-4.8225,-4.8671,-4.9018,-4.9018,-4.9018,-4.9018,-4.9018,-4.9018,-4.9018,-4.9018,-4.9018,-4.9018,-4.9018,-4.9018,-4.9018,-4.9018,-4.9018,-4.9018,-4.7309,-4.7309,-4.7309,-4.7309,-4.7309,-4.7309,-4.7309,-4.7309,-4.7309,-4.7309,-4.7309,-4.7309,-4.7309,-4.7309,-4.7309,-4.7309,-4.7309,-4.7309,-4.7309,-4.7309,0.0,0.0,-4.6339,-4.6052,-4.5394,0.0,0.0,0.0,0.0,-4.4377,-4.4347,-4.3678,-4.3379,-4.3409,-4.4077,0.0,-4.4466,-4.5095,-4.5753,-4.6496,-4.8059,-4.9376,-5.032,-5.0242,-5.0855,-5.1598,-5.0703,-4.9363,-4.7929,-4.7849,-4.6763,-4.5462,-4.5655,-4.5681,-4.5565,-4.4946,-4.4799,-4.4572,-4.3566,-4.329,-4.329,-4.329,-4.329,0.0,0.0,0.0,-4.244,0.0,0.0,0.0,0.0,0.0,0.0,0.0,0.0,0.0,0.0,0.0,0.0,0.0,0.0,0.0,0.0,0.0,-3.8691,-3.9379,-3.9373,-3.9373,0.0,-3.9373,-4.0111,-4.1678,-4.2395,-4.3474,-4.5048,-4.5751,-4.6558,-4.744,-4.7539,-4.8096,-4.8923,-4.8987,-4.9018,-4.9018,-4.9018,-4.9018,-4.9018,-4.9018,-4.9018,-4.9018,-4.9018,-4.9018,-4.9018,-4.9018,-4.9018,-4.9018,-4.7309,-4.7309,-4.7309,-4.7309,-4.7309,-4.7309,-4.7309,-4.7309,-4.7309,-4.7309,-4.7309,-4.7309,-4.7309,-4.7309,-4.7309,-4.7309,-4.7309,0.0,0.0,0.0,0.0,-4.707,-4.704,-4.698,-4.68,-4.6322,-4.6052,-4.6052,0.0,0.0,-4.5035,-4.4855,-4.4796,-4.4796,0.0,-4.5334,-4.5813,-4.5992,-4.6441,-4.707,-4.749,-4.8293,-4.9135,0.0,-4.8718,-4.9694,-5.0204,-5.0115,-4.9638,-4.8805,-4.7926,-4.7017,-4.6353,-4.5796,-4.5293,-4.4629,-4.4448,-4.4248,-4.3489,-4.329,-4.329,-4.329,-4.329,-4.329,0.0,0.0,0.0,0.0,0.0,0.0,0.0,0.0,0.0,0.0,0.0,0.0,0.0,0.0,0.0,-3.917,0.0,0.0,0.0,-3.8482,-3.8691,-3.9379,-3.9373,-3.9373,-3.9373,0.0,-3.9817,-4.074,-4.1405,-4.222,-4.3121,-4.4477,-4.53,-4.5556,-4.6934,-4.7737,-4.7966,-4.8671,-4.9018,-4.9018,-4.9018,-4.9018,-4.9018,-4.9018,-4.9018,-4.9018,-4.9018,-4.9018,-4.9018,-4.9018,-4.9018,-4.9018,-4.7309,-4.7309,-4.7309,-4.7309,-4.7309,-4.7309,-4.7309,-4.7309,-4.7309,-4.7309,-4.7309,-4.7309,-4.7309,-4.7309,-4.7309,-4.7309,-4.7309,0.0,-4.7309,0.0,0.0,-4.7309,-4.7309,-4.7309,-4.7309,-4.695,0.0,-4.6741,0.0,-4.5753,-4.5753,-4.5424,-4.5304,0.0,0.0,-4.5963,-4.6309,-4.6621,-4.695,-4.7309,-4.7309,-4.7636,0.0,-4.7538,-4.7636,-4.821,-4.88,-4.9044,-4.8922,-4.8335,-4.7882,-4.7422,-4.6551,-4.6052,-4.5603,-4.4945,-4.4526,-4.4227,-4.3828,-4.3499,-4.329,-4.329,-4.329,-4.329,-4.329,-4.329,-4.32,0.0,-4.259,-4.2171,0.0,0.0,0.0,0.0,0.0,0.0,0.0,0.0,0.0,0.0,-3.8631,0.0,0.0,-3.8392,-3.8691,-3.9379,-3.9373,-3.9373,0.0,0.0,-3.9553,-3.9948,-4.0876,-4.1602,-4.1961,-4.3403,-4.4358,-4.4812,-4.5885,-4.659,-4.7036,-4.7539,-4.777,-4.7803,-4.8225,-4.8385,-4.8385,-4.8385,-4.8608,-4.9018,-4.9018,-4.9018,-4.9018,-4.9018,-4.9018,-4.9018,-4.7309,-4.7309,-4.7309,-4.7309,-4.7309,-4.7309,-4.7309,-4.7309,-4.7309,-4.7309,-4.7309,-4.7339,-4.7429,-4.7429,-4.7429,-4.7429,-4.7429,-4.7399,-4.7309,-4.7309,-4.7309,-4.7309,-4.7309,-4.7309,-4.7309,-4.7309,-4.7309,0.0,-4.6741,-4.6441,-4.6441,-4.5843,0.0,0.0,0.0,0.0,0.0,-4.707,-4.7309,-4.7309,-4.7309,-4.7309,-4.7309,-4.7309,-4.7309,-4.7309,-4.7309,-4.7309,-4.7309,-4.7309,-4.7309,-4.7219,-4.6621,-4.6441,-4.6322,-4.5633,-4.4975,-4.4436,-4.4347,-4.3798,-4.329,-4.329,-4.329,-4.329,-4.329,-4.329,-4.329,-4.329,-4.288,-4.25,-4.241,0.0,0.0,0.0,0.0,0.0,0.0,0.0,0.0,0.0,0.0,0.0,0.0,-3.8452,-3.8691,-3.9379,-3.9373,0.0,0.0,0.0,-3.9373,-3.9373,-4.0696,-4.1422,-4.1422,-4.2671,-4.3732,-4.4586,-4.4737,-4.5227,-4.5996,-4.6138,-4.6208,-4.6244,-4.707,-4.7473,-4.7572,-4.7473,-4.7966,-4.8829,-4.8829,-4.8892,-4.9018,-4.9018,-4.9018,-4.9018,-4.7309,-4.7309,-4.7309,-4.7309,-4.7309,-4.7309,-4.7309,-4.7309,-4.7309,-4.7309,-4.7309,-4.7519,-4.8057,-4.8117,-4.8117,-4.8117,-4.8117,0.0,0.0,0.0,0.0,-4.7309,-4.7309,-4.7309,-4.7309,-4.7309,-4.7309,-4.7309,-4.7189,-4.713,-4.713,-4.701,0.0,0.0,0.0,0.0,-4.713,-4.7249,0.0,-4.7309,-4.7309,-4.7309,-4.7309,-4.7309,-4.7309,-4.7309,-4.7309,-4.7309,-4.7309,-4.7309,-4.7309,-4.7279,-4.716,-4.713,-4.701,-4.6322,-4.5663,-4.5005,-4.4466,-4.3798,-4.329,-4.329,-4.329,-4.329,-4.329,-4.329,-4.329,-4.329,-4.32,-4.3,-4.25,0.0,0.0,0.0,0.0,0.0,0.0,0.0,0.0,0.0,0.0,-3.923,0.0,0.0,-3.8691,-3.9379,-3.9373,-3.9373,0.0,0.0,-3.9373,0.0,-4.0696,-4.1422,0.0,0.0,-4.3409,-4.3566,-4.4396,-4.4887,-4.5079,-4.585,-4.6208,-4.6208,-4.6384,-4.6867,-4.7539,-4.6765,-4.7002,-4.7836,-4.7836,-4.8321,-4.9018,-4.9018,-4.9018,-4.9018,-4.7309,0.0,0.0,-4.7309,-4.7309,-4.7309,-4.7309,-4.7309,-4.7309,-4.7309,-4.7608,-4.7938,-4.8237,-4.8596,-4.885,-4.885,-4.885,-4.8506,-4.7848,-4.7818,-4.7668,-4.7309,-4.7309,-4.7309,-4.7309,-4.7309,-4.7309,-4.7309,-4.7309,-4.7309,-4.7309,-4.7309,0.0,0.0,0.0,-4.7309,0.0,0.0,-4.7309,-4.7309,-4.7309,-4.7309,-4.7309,-4.7309,-4.7309,-4.7309,-4.7309,-4.7309,-4.7309,-4.7309,-4.7309,-4.7309,-4.7309,-4.7309,-4.7249,-4.692,-4.6352,-4.5693,-4.5005,-4.4347,-4.3738,-4.3379,-4.329,-4.329,-4.329,-4.329,-4.329,-4.329,-4.329,-4.315,-4.253,-4.1871,0.0,0.0,0.0,0.0,0.0,0.0,0.0,0.0,0.0,0.0,0.0,0.0,0.0,0.0,0.0,-3.9373,-3.9373,0.0,-3.9373,0.0,0.0,0.0,-4.1422,0.0,-4.329,-4.329,-4.3771,-4.4043,-4.4043,-4.4479,-4.4675,-4.4713,-4.5232,-4.5742,-4.617,-4.6173,-4.6173,-4.6205,-4.6662,-4.744,-4.8257,-4.8257,-4.8576,-4.9018,-4.7309,-4.7309,-4.7309,-4.7309,-4.7309,-4.7369,-4.7489,-4.7519,-4.7519,-4.7519,-4.7967,-4.8386,-4.8656,-4.9164,-4.9464,-4.9464,-4.9464,-4.9194,-4.8536,-4.8356,-4.8057,-4.7549,-4.7369,-4.7309,-4.7309,-4.7309,-4.7309,-4.7309,-4.7309,-4.7309,-4.7309,-4.7309,0.0,0.0,0.0,0.0,0.0,0.0,-4.7309,-4.7309,-4.7309,-4.7309,-4.7309,-4.7309,-4.7309,-4.7309,-4.7309,-4.7309,-4.7309,-4.7309,-4.7309,-4.7309,-4.7309,-4.7309,-4.7309,-4.7309,-4.683,-4.613,-4.5484,-4.4825,-4.4167,-4.3469,-4.329,-4.329,-4.329,-4.329,-4.329,-4.329,-4.329,-4.314,-4.2671,-4.25,0.0,0.0,0.0,0.0,0.0,0.0,0.0,0.0,0.0,0.0,-3.9373,0.0,0.0,0.0,0.0,-3.9373,-3.9373,-3.9373,-3.9373,0.0,0.0,-4.1422,-4.1422,0.0,-4.329,-4.329,-4.329,-4.329,-4.329,-4.329,-4.329,-4.3329,-4.4159,-4.4472,-4.4548,-4.5525,-4.5452,-4.4887,-4.5597,-4.6454,-4.734,-4.7539,-4.8096,-4.8736,-4.7309,-4.7309,-4.7309,-4.7309,-4.7309,-4.7489,-4.8087,-4.8207,-4.8207,-4.8207,-4.8237,-4.8745,-4.9897,-5.0076,-5.0106,-5.0106,-5.0106,-4.9883,-4.9269,-4.8626,-4.8267,-4.8207,-4.7608,-4.7309,-4.7309,-4.7309,-4.7309,-4.7309,-4.7309,-4.7309,-4.7309,-4.7309,-4.7309,0.0,0.0,0.0,-4.7309,-4.7309,-4.7309,-4.7309,-4.7309,-4.7309,-4.7309,-4.7309,-4.7309,-4.7309,-4.7309,-4.7309,-4.7309,-4.7309,-4.7309,-4.7309,-4.7309,-4.7309,-4.7309,-4.7309,-4.683,-4.613,-4.5484,-4.4825,-4.4167,-4.3469,-4.329,-4.329,-4.329,-4.329,-4.329,-4.329,-4.329,-4.326,-4.323,-4.2761,-4.2351,0.0,0.0,0.0,0.0,0.0,-3.9373,-3.9373,0.0,0.0,0.0,-3.9373,0.0,0.0,-3.9373,-3.9373,-3.9373,-3.9373,-3.9373,-3.9373,-4.0696,-4.1422,-4.1422,-4.2671,-4.329,-4.329,-4.329,-4.329,-4.329,-4.329,-4.329,-4.329,-4.3409,-4.3448,-4.3527,-4.451,-4.4887,-4.4812,-4.4924,-4.5488,-4.6419,-4.7273,-4.7671,-4.7836,-4.7309,-4.7309,-4.7309,-4.7309,-4.7638,-4.7967,-4.8237,-4.8626,-4.9015,-4.9404,-4.9464,-4.9643,-5.0136,-5.0554,-5.0794,-5.0794,-5.0794,-5.0541,-4.9883,-4.9613,-4.9105,-4.8327,-4.8027,-4.7698,-4.7309,-4.7309,-4.7309,0.0,0.0,-4.7309,-4.7309,-4.7309,-4.7309,-4.7309,-4.7309,-4.7309,-4.7309,-4.7309,-4.7309,-4.7309,-4.7309,-4.7309,-4.7309,-4.7309,-4.7309,-4.7309,-4.7309,-4.7309,-4.7309,-4.7309,-4.7309,-4.7309,-4.7309,-4.7309,-4.7309,-4.7309,-4.713,-4.6681,-4.5574,-4.5095,-4.4646,-4.3559,-4.329,-4.329,-4.329,-4.329,-4.329,-4.329,-4.329,-4.329,-4.329,-4.312,-4.2821,-4.247,0.0,0.0,0.0,0.0,0.0,-3.9433,0.0,-3.9373,0.0,-3.9373,0.0,0.0,0.0,-3.9373,-3.9373,-3.9373,-3.9373,-3.9373,0.0,-4.1422,-4.1422,-4.2671,-4.329,-4.329,-4.329,-4.329,-4.329,-4.329,-4.329,-4.329,-4.329,-4.329,-4.3329,-4.3732,-4.3888,-4.3888,-4.3888,-4.451,-4.541,-4.5778,-4.6276,-4.6799,-4.7309,-4.7459,-4.7608,-4.7608,-4.8147,-4.8626,-4.8835,-4.9254,-4.9793,-5.0405,-5.0495,-5.0495,-5.0495,-5.093,-5.1229,-5.1229,-5.1229,-5.102,-5.0524,-5.0315,-4.9733,-4.8626,-4.8386,0.0,-4.7309,-4.7309,-4.7309,-4.7309,-4.7309,0.0,-4.7309,-4.7309,-4.7309,-4.7309,-4.7309,-4.7309,-4.7309,-4.7309,-4.7309,-4.7309,-4.7309,-4.7309,-4.7309,-4.7309,-4.7309,-4.7309,-4.7309,-4.7309,-4.7309,-4.7309,-4.7309,-4.7309,-4.7309,-4.7309,-4.7309,-4.7309,-4.7309,-4.701,-4.5663,-4.5304,-4.4975,-4.3618,-4.329,-4.329,-4.329,-4.329,-4.329,-4.329,-4.329,-4.329,-4.329,-4.329,-4.314,-4.2731,0.0,0.0,0.0,-4.0816,0.0,0.0,-3.9709,-3.9619,-3.9403,-3.9373,0.0,0.0,0.0,-3.9373,-3.9373,-3.9373,-3.9499,0.0,0.0,0.0,-4.1692,-4.2761,-4.329,-4.329,-4.329,-4.329,-4.329,-4.329,-4.329,-4.329,-4.329,-4.329,-4.329,-4.329,-4.329,-4.329,-4.329,-4.3732,-4.4396,-4.4699,-4.5227,-4.585,-4.7309,-4.7818,-4.8267,-4.8267,-4.885,-4.9464,-5.0076,-5.0166,-5.0405,-5.1109,-5.1199,-5.1199,-5.1199,-5.1229,-5.1229,-5.1229,-5.1229,-5.1229,-5.1199,-5.0554,-4.9942,0.0,0.0,-4.7967,-4.7309,-4.7309,-4.7309,-4.7309,0.0,0.0,-4.7309,-4.7309,-4.7309,-4.7309,-4.7309,-4.7309,-4.7309,-4.7309,-4.7309,-4.7309,-4.7309,-4.7309,-4.7309,-4.7309,-4.7309,-4.7309,-4.7309,-4.7309,-4.7309,-4.7309,-4.7309,-4.7309,-4.7309,-4.7309,-4.7309,-4.7309,-4.7309,-4.701,-4.5663,-4.5304,-4.4975,-4.3618,-4.329,-4.329,-4.329,-4.329,-4.329,-4.329,-4.329,-4.329,-4.329,-4.329,-4.329,-4.329,0.0,0.0,0.0,-4.1811,0.0,-4.0457,-4.0397,-4.0127,-3.9433,-3.9373,0.0,0.0,0.0,-3.9373,0.0,0.0,0.0,-4.0367,-4.1025,0.0,-4.2381,-4.3,-4.329,-4.329,-4.329,-4.329,-4.329,-4.329,-4.329,-4.329,-4.329,-4.329,-4.329,-4.329,-4.329,-4.329,-4.329,-4.329,-4.3448,-4.4434,-4.4812,-4.4962,-4.7967,-4.8506,-4.9,-4.9,-4.9494,-5.0002,-5.0166,-5.0584,-5.0943,-5.1199,-5.1229,-5.1229,-5.1229,-5.1229,-5.1229,-5.1229,-5.1229,-5.1229,-5.1229,-5.102,-5.0554,-4.9942,-4.9314,-4.87,-4.7997,-4.7549,-4.7309,-4.7309,0.0,-4.7309,-4.7309,-4.7309,-4.7309,-4.7309,-4.7309,-4.7309,-4.7309,-4.7309,-4.7309,-4.7309,-4.7309,-4.7309,-4.7309,-4.7309,-4.7309,-4.7309,-4.7309,-4.7309,-4.7309,-4.7309,-4.7309,-4.7309,-4.7309,-4.7309,-4.7309,-4.7309,-4.7309,-4.701,-4.5663,-4.5304,-4.4975,-4.3618,-4.329,-4.329,-4.329,-4.329,-4.329,-4.329,-4.329,-4.329,-4.329,-4.329,-4.329,-4.329,-4.311,0.0,-4.247,0.0,-4.1841,-4.1145,-4.1055,-4.0816,-4.0157,-4.0098,0.0,0.0,0.0,0.0,0.0,0.0,0.0,0.0,-4.1474,0.0,-4.241,-4.3,-4.329,-4.329,-4.329,-4.329,-4.329,-4.329,-4.329,-4.329,-4.329,-4.329,-4.329,-4.329,-4.329,-4.329,-4.329,-4.329,-4.3329,-4.3654,-4.3771,-4.381,-4.87,-4.9194,-4.9643,-4.9643,-5.0182,-5.0554,-5.0554,-5.096,-5.1229,-5.1229,-5.1229,-5.1229,-5.1229,-5.1229,-5.1229,-5.1229,-5.1229,-5.1229,-5.1229,-5.1229,-5.0883,-5.0226,-4.9853,-4.9224,-4.8297,-4.7878,-4.7549,-4.7309,-4.7309,-4.7309,-4.7309,-4.7309,-4.7309,-4.7309,-4.7309,-4.7309,-4.7309,-4.7309,-4.7309,-4.7309,-4.7309,-4.7309,-4.7309,-4.7309,-4.7309,-4.7309,-4.7309,-4.7309,-4.7309,-4.7309,-4.7309,-4.7309,-4.7309,-4.7309,-4.7309,-4.7309,-4.7309,-4.701,-4.5663,-4.5304,-4.4975,-4.3618,-4.329,-4.329,-4.329,-4.329,-4.329,-4.329,-4.329,-4.329,-4.329,-4.329,-4.329,-4.329,-4.329,-4.314,-4.2791,0.0,-4.2491,0.0,0.0,-4.1542,0.0,-4.0756,-4.0606,0.0,0.0,0.0,0.0,0.0,-4.0876,-4.1115,-4.1961,-4.253,-4.2731,-4.312,-4.329,-4.329,-4.329,-4.329,-4.329,-4.329,-4.329,-4.329,-4.329,-4.329,-4.329,-4.329,-4.329,-4.329,-4.329,-4.329,-4.329,-4.329,-4.329,-4.329,-4.9389,-4.9853,-5.0255,-5.0255,-5.0764,-5.1229,-5.1229,-5.1229,-5.1229,-5.1229,-5.1229,-5.1229,-5.1229,-5.1229,-5.1229,-5.1229,-5.1229,-5.1229,-5.1229,-5.1229,-5.0913,-5.0285,-5.0226,-4.9673,-4.8446,-4.8327,-4.7967,-4.7309,-4.7309,-4.7309,-4.7309,-4.7309,-4.7309,-4.7309,-4.7309,-4.7309,-4.7309,-4.7309,-4.7309,-4.7309,-4.7309,-4.7309,-4.7309,-4.7309,-4.7309,-4.7309,-4.7309,-4.7309,-4.7309,-4.7309,-4.7309,-4.7309,-4.7309,-4.7309,-4.7309,-4.7309,-4.7309,-4.701,-4.5663,-4.5304,-4.4975,-4.3618,-4.329,-4.329,-4.329,-4.329,-4.329,-4.329,-4.329,-4.329,-4.329,-4.329,-4.329,-4.329,-4.329,-4.329,-4.329,-4.329,-4.312,0.0,0.0,0.0,-4.1504,-4.1444,-4.1482,0.0,0.0,0.0,0.0,0.0,-4.1811,-4.2381,-4.244,-4.2731,-4.329,-4.329,-4.329,-4.329,-4.329,-4.329,-4.329,-4.329,-4.329,-4.329,-4.329,-4.329,-4.329,-4.329,-4.329,-4.329,-4.329,-4.329,-4.329,-4.329,-4.329,-4.329,-5.0002,-5.0495,-5.0943,-5.0943,-5.1063,-5.1229,-5.1229,-5.1229,-5.1229,-5.1229,-5.1229,-5.1229,-5.1229,-5.1229,-5.1229,-5.1229,-5.1229,-5.1229,-5.1229,-5.1229,-5.1139,-5.0943,-5.0465,-5.0046,-4.9747,-4.8805,-4.7967,-4.7309,-4.7309,-4.7309,-4.7309,-4.7309,-4.7309,-4.7309,-4.7309,-4.7309,-4.7309,-4.7309,-4.7309,-4.7309,-4.7309,-4.7309,-4.7309,-4.7309,-4.7309,-4.7309,-4.7309,-4.7309,-4.7309,-4.7309,-4.7309,-4.7309,-4.7309,-4.7309,-4.7309,-4.7309,-4.7309,-4.701,-4.5663,-4.5304,-4.4975,-4.3618,-4.329,-4.329,-4.329,-4.329,-4.329,-4.329,-4.329,-4.329,-4.329,-4.329,-4.329,-4.329,-4.329,-4.329,-4.329,-4.329,-4.323,0.0,-4.312,-4.2851,-4.2231,-4.2171,-4.1961,0.0,0.0,-4.2171,-4.2171,-4.2611,-4.2701,-4.241,-4.2851,-4.314,-4.329,-4.329,-4.329,-4.329,-4.329,-4.329,-4.329,-4.329,-4.329,-4.329,-4.329,-4.329,-4.329,-4.329,-4.329,-4.329,-4.329,-4.329,-4.329,-4.329,-4.329,-4.329,-5.0644,-5.0913,-5.1229,-5.1229,-5.1229,-5.1229,-5.1229,-5.1229,-5.1229,-5.1229,-5.1229,-5.1229,-5.1229,-5.1229,-5.1229,-5.1229,-5.1229,-5.1229,-5.1229,-5.1229,-5.1229,-5.1229,-5.0823,-5.0495,-5.0196,-4.9553,-4.8716,-4.7758,-4.7459,-4.7309,-4.7309,-4.7309,-4.7309,-4.7309,-4.7309,-4.7309,-4.7309,-4.7309,-4.7309,-4.7309,-4.7309,-4.7309,-4.7309,-4.7309,-4.7309,-4.7309,-4.7309,-4.7309,-4.7309,-4.7309,-4.7309,-4.7309,-4.7309,-4.7309,-4.7309,-4.7309,-4.7309,-4.707,-4.6052,-4.5544,-4.4975,-4.3618,-4.329,-4.329,-4.329,-4.329,-4.329,-4.329,-4.329,-4.329,-4.329,-4.329,-4.329,-4.329,-4.329,-4.329,-4.329,-4.329,-4.329,-4.329,-4.329,-4.314,-4.2851,-4.2791,-4.2671,-4.2312,-4.2611,0.0,-4.2791,-4.315,-4.314,-4.2821,-4.315,-4.329,-4.329,-4.329,-4.329,-4.329,-4.329,-4.329,-4.329,-4.329,-4.329,-4.329,-4.329,-4.329,-4.329,-4.329,-4.329,-4.3319,-4.3618,-4.3738,-4.3768,-4.4107,-4.4227,-4.4227,-5.1229,-5.1229,-5.1229,-5.1229,-5.1229,-5.1229,-5.1229,-5.1229,-5.1229,-5.1229,-5.1229,-5.1229,-5.1229,-5.1229,-5.1229,-5.1229,-5.1229,-5.1229,-5.1229,-5.1229,-5.1229,-5.1229,-5.1229,-5.0913,-5.0345,-5.0255,-4.9613,-4.8297,-4.7728,-4.7399,-4.7309,-4.7309,-4.7309,-4.7309,-4.7309,-4.7309,-4.7309,-4.7309,-4.7309,-4.7309,-4.7309,-4.7309,-4.7309,-4.7309,-4.7309,-4.7309,-4.7309,-4.7309,-4.7309,-4.7309,-4.7309,-4.7309,-4.7309,-4.7309,-4.7309,-4.7309,-4.7309,-4.716,-4.6459,-4.5753,-4.4885,-4.3738,-4.3349,-4.329,-4.329,-4.329,-4.329,-4.329,-4.329,-4.329,-4.329,-4.329,-4.329,-4.329,-4.329,-4.329,-4.329,0.0,-4.329,-4.329,-4.329,-4.329,-4.329,-4.329,-4.329,-4.329,-4.329,-4.329,-4.329,-4.329,-4.329,-4.329,-4.329,-4.329,-4.329,-4.329,-4.329,-4.329,-4.329,-4.329,-4.329,-4.329,-4.329,-4.329,-4.329,-4.329,-4.329,-4.3409,-4.3439,-4.3499,-4.4197,-4.4466,-4.4526,-4.5095,-4.5304,-4.5304,-5.1229,-5.1229,-5.1229,-5.1229,-5.1229,-5.1229,-5.1229,-5.1229,-5.1229,-5.1229,-5.1229,-5.1229,-5.1229,-5.1229,-5.1229,-5.1229,-5.1229,-5.1229,-5.1229,-5.1229,-5.1229,-5.1229,-5.1229,-5.1169,-5.1079,-5.0465,-4.9613,-4.8297,-4.8177,-4.7848,-4.7309,-4.7309,-4.7309,-4.7309,-4.7309,-4.7309,-4.7309,-4.7309,-4.7309,-4.7309,-4.7309,-4.7309,-4.7309,-4.7309,-4.7309,-4.7309,-4.7309,-4.7309,-4.7309,-4.7309,-4.7309,-4.7309,-4.7309,-4.7309,-4.7309,-4.7309,-4.7309,-4.716,-4.6459,-4.5424,-4.4407,-4.4227,-4.3708,-4.329,-4.329,-4.329,-4.329,-4.329,-4.329,-4.329,-4.329,-4.329,-4.329,-4.329,-4.329,-4.329,-4.329,0.0,-4.329,-4.329,-4.329,-4.329,-4.329,-4.329,-4.329,-4.329,-4.329,-4.329,-4.329,-4.329,-4.329,-4.329,-4.329,-4.329,-4.329,-4.329,-4.329,-4.329,-4.329,-4.329,-4.329,-4.329,-4.329,-4.329,-4.329,-4.329,-4.3349,-4.3888,-4.4127,-4.4227,-4.4885,-4.5155,-4.5155,-4.5244,-4.5304,-4.5304,-5.1229,-5.1229,-5.1229,-5.1229,-5.1229,-5.1229,-5.1229,-5.1229,-5.1229,-5.1229,-5.1229,-5.1229,-5.1229,-5.1229,-5.1229,-5.1229,-5.1229,-5.1229,-5.1229,-5.1229,-5.1229,-5.1229,-5.1229,-5.1229,-5.1229,-5.0524,-4.9897,-4.9344,-4.8985,-4.8476,-4.7848,-4.7848,-4.7638,-4.7309,-4.7309,-4.7309,-4.7309,-4.7309,-4.7309,-4.7309,-4.7309,-4.7309,-4.7309,-4.7309,-4.7309,-4.7309,-4.7309,-4.7309,-4.7309,-4.7309,-4.7309,-4.7309,-4.7309,-4.7309,-4.7309,-4.7309,-4.7309,-4.716,-4.6459,-4.5831,-4.5173,-4.4496,-4.4077,-4.3738,-4.3379,-4.329,-4.329,-4.329,-4.329,-4.329,-4.329,-4.329,-4.329,-4.329,-4.329,-4.329,-4.329,-4.329,-4.329,-4.329,-4.329,-4.329,-4.329,-4.329,-4.329,-4.329,-4.329,-4.329,-4.329,-4.329,-4.329,-4.329,-4.329,-4.329,-4.329,-4.329,-4.329,-4.329,-4.329,-4.329,-4.329,-4.329,-4.329,-4.329,-4.329,-4.329,-4.3349,-4.4007,-4.4317,-4.4407,-4.5454,-4.5843,-4.5903,-4.6232,-4.6381,-4.6381,-5.1229,-5.1229,-5.1229,-5.1229,-5.1229,-5.1229,-5.1229,-5.1229,-5.1229,-5.1229,-5.1229,-5.1229,-5.1229,-5.1229,-5.1229,-5.1229,-5.1229,-5.1229,-5.1229,-5.1229,-5.1229,-5.1229,-5.1229,-5.1229,-5.1229,-5.0674,-5.0345,-5.0196,-4.9733,-4.9164,-4.8506,-4.8356,-4.8027,-4.7519,-4.7369,-4.7309,-4.7309,-4.7309,-4.7309,-4.7309,-4.7309,-4.7309,-4.7309,-4.7309,-4.7309,-4.7309,-4.7309,-4.7309,-4.7309,-4.7309,-4.7309,-4.7309,-4.7309,-4.7309,-4.7309,-4.7309,-4.7309,-4.7189,-4.6681,-4.6441,-4.604,-4.5035,-4.4556,-4.4197,-4.3648,-4.3409,-4.329,-4.329,-4.329,-4.329,-4.329,-4.329,-4.329,-4.329,0.0,-4.329,-4.329,-4.329,-4.329,-4.329,-4.329,-4.329,-4.329,-4.329,-4.329,-4.329,-4.329,-4.329,-4.329,-4.329,-4.329,-4.329,-4.329,-4.329,-4.329,-4.329,-4.329,-4.329,-4.329,-4.329,-4.329,-4.329,-4.329,-4.329,-4.329,-4.329,-4.3349,-4.4197,-4.4556,-4.4676,-4.6022,-4.6518,-4.6578,-4.713,-4.7309,-4.7309,-5.1229,-5.1229,-5.1229,-5.1229,-5.1229,-5.1229,-5.1229,-5.1229,-5.1229,-5.1229,-5.1229,-5.1229,-5.1229,-5.1229,-5.1229,-5.1229,-5.1229,-5.1229,-5.1229,-5.1229,-5.1229,-5.1229,-5.1229,-5.1229,-5.1229,-5.1169,-5.0794,-5.0196,-5.0136,-4.9823,-4.9209,-4.8566,-4.8267,-4.8177,-4.7578,-4.7309,-4.7309,-4.7309,-4.7309,-4.7309,-4.7309,-4.7309,-4.7309,-4.7309,-4.7309,-4.7309,-4.7309,-4.7309,-4.7309,-4.7309,-4.7309,-4.7309,-4.7309,-4.7309,-4.7309,-4.7309,-4.7309,-4.7309,-4.7249,-4.68,-4.6249,-4.616,-4.5244,-4.4317,-4.4257,-4.3738,-4.329,-4.329,-4.329,-4.329,-4.329,-4.329,-4.329,-4.329,0.0,0.0,-4.329,-4.329,-4.329,-4.329,-4.329,-4.329,-4.329,-4.329,-4.329,-4.329,-4.329,-4.329,-4.329,-4.329,-4.329,-4.329,-4.329,-4.329,-4.329,-4.329,-4.329,-4.329,-4.329,-4.329,-4.329,-4.329,-4.329,-4.329,-4.329,-4.329,-4.3379,-4.4706,-4.5214,-4.5364,-4.6711,-4.7249,-4.7249,-4.7279,-4.7309,-4.7309,-5.1229,-5.1229,-5.1229,-5.1229,-5.1229,-5.1229,-5.1229,-5.1229,-5.1229,-5.1229,-5.1229,-5.1229,-5.1229,-5.1229,-5.1229,-5.1229,-5.1229,-5.1229,-5.1229,-5.1229,-5.1229,-5.1229,-5.1229,-5.1229,-5.1229,-5.1229,-5.1109,-5.0794,-5.0794,-5.0511,-4.9853,-4.9613,-4.9284,-4.891,-4.8207,-4.7908,-4.7878,-4.7489,-4.7309,-4.7309,-4.7309,-4.7309,-4.7309,-4.7309,-4.7309,-4.7309,-4.7309,-4.7309,-4.7309,-4.7309,-4.7309,-4.7309,-4.7309,-4.7309,-4.7309,-4.7309,-4.7309,-4.7309,-4.7309,-4.713,-4.683,-4.6369,-4.5933,-4.5334,-4.4496,-4.4107,-4.3798,-4.3379,-4.329,-4.329,-4.329,-4.329,-4.329,-4.329,0.0,-4.329,-4.329,-4.329,-4.329,-4.329,-4.329,-4.329,-4.329,-4.329,-4.329,-4.329,-4.329,-4.329,-4.329,-4.329,-4.329,-4.329,-4.329,-4.329,-4.329,-4.329,-4.329,-4.329,-4.329,-4.329,-4.329,-4.329,-4.329,-4.329,-4.329,-4.329,-4.3379,-4.4766,-4.5304,-4.5424,-4.677,-4.7309,-4.7309,-4.7309,-4.7309,-4.7309,-5.1229,-5.1229,-5.1229,-5.1229,-5.1229,-5.1229,-5.1229,-5.1229,-5.1229,-5.1229,-5.1229,-5.1229,-5.1229,-5.1229,-5.1229,-5.1229,-5.1229,-5.1229,-5.1229,-5.1229,-5.1229,-5.1229,-5.1229,-5.1229,-5.1229,-5.1229,-5.1229,-5.1229,-5.1229,-5.0943,-5.0495,-5.0285,-5.0002,-4.9553,-4.8895,-4.8596,-4.8566,-4.7908,-4.7608,-4.7608,-4.7399,-4.7309,-4.7309,-4.7309,-4.7309,-4.7309,-4.7309,-4.7309,-4.7309,-4.7309,-4.7309,-4.7309,-4.7309,-4.7309,-4.7309,-4.7309,-4.7309,-4.7309,-4.7309,-4.7309,-4.7189,-4.6741,-4.6471,-4.604,-4.5155,-4.4616,-4.4197,-4.3708,-4.3439,-4.329,-4.329,-4.329,-4.329,-4.329,-4.329,-4.329,-4.329,-4.329,-4.329,-4.329,-4.329,-4.329,-4.329,-4.329,-4.329,-4.329,-4.329,-4.329,-4.329,-4.329,-4.329,-4.329,-4.329,-4.329,-4.329,-4.329,-4.329,-4.329,-4.329,-4.329,-4.329,-4.329,-4.329,-4.329,-4.329,-4.329,-4.3379,-4.4526,-4.5095,-4.5394,-4.6561,-4.713,-4.7309,-4.7309,-4.7309,-4.7309,-5.1229,-5.1229,-5.1229,-5.1229,-5.1229,-5.1229,-5.1229,-5.1229,-5.1229,-5.1229,-5.1229,-5.1229,-5.1229,-5.1229,-5.1229,-5.1229,-5.1229,-5.1229,-5.1229,-5.1229,-5.1229,-5.1229,-5.1229,-5.1229,-5.1229,-5.1229,-5.1229,-5.1229,-5.1229,-5.1229,-5.1199,-5.0495,-5.0196,-5.0166,-4.9583,-4.9329,-4.9269,-4.8566,-4.8297,-4.8237,-4.7578,-4.7309,-4.7309,-4.7309,-4.7309,-4.7309,-4.7309,-4.7309,-4.7309,-4.7309,-4.7309,-4.7309,-4.7309,-4.7309,-4.7309,-4.7309,-4.7309,-4.7309,-4.7309,-4.7309,-4.7309,-4.7309,-4.68,-4.6279,-4.6279,-4.5263,-4.4317,-4.4317,-4.3768,-4.329,-4.329,-4.329,-4.329,-4.329,-4.329,-4.329,-4.329,-4.329,-4.329,-4.329,-4.329,-4.329,-4.329,-4.329,-4.329,-4.329,-4.329,-4.329,-4.329,-4.329,-4.329,-4.329,-4.329,-4.329,-4.329,-4.329,-4.329,-4.329,-4.329,-4.329,-4.329,-4.329,-4.329,-4.329,-4.329,-4.329,-4.3349,-4.4007,-4.4706,-4.5364,-4.6052,-4.6741,-4.7309,-4.7309,-4.7309,-4.7309,-5.1229,-5.1229,-5.1229,-5.1229,-5.1229,-5.1229,-5.1229,-5.1229,-5.1229,-5.1229,-5.1229,-5.1229,-5.1229,-5.1229,-5.1229,-5.1229,-5.1229,-5.1229,-5.1229,-5.1229,-5.1229,-5.1229,-5.1229,-5.1229,-5.1229,-5.1229,-5.1229,-5.1229,-5.1229,-5.1229,-5.1229,-5.102,-5.0883,-5.0853,-5.0242,-4.9942,-4.9912,-4.9254,-4.903,-4.9,-4.8745,-4.8416,-4.7997,-4.7997,-4.7698,-4.7309,-4.7309,-4.7309,-4.7309,-4.7309,-4.7309,-4.7309,-4.7309,-4.7309,-4.7309,-4.7309,-4.7309,-4.7309,-4.7309,-4.7309,-4.7309,-4.7309,-4.716,-4.689,-4.6399,-4.598,-4.5574,-4.5095,-4.4466,-4.4018,-4.4018,-4.3618,-4.329,-4.329,-4.329,-4.329,-4.329,-4.329,-4.329,-4.329,-4.329,-4.329,-4.329,-4.329,-4.329,-4.329,-4.329,-4.329,-4.329,-4.329,-4.329,-4.329,-4.329,-4.329,-4.329,-4.329,-4.329,-4.329,-4.329,-4.329,-4.329,-4.329,-4.329,-4.329,-4.329,-4.329,-4.3349,-4.4007,-4.4436,-4.4736,-4.5831,-4.6399,-4.6681,-4.713,-4.7309,-4.7309,-5.1229,-5.1229,-5.1229,-5.1229,-5.1229,-5.1229,-5.1229,-5.1229,-5.1229,-5.1229,-5.1229,-5.1229,-5.1229,-5.1229,-5.1229,-5.1229,-5.1229,-5.1229,-5.1229,-5.1229,-5.1229,-5.1229,-5.1229,-5.1229,-5.1229,-5.1229,-5.1229,-5.1229,-5.1229,-5.1229,-5.1229,-5.1229,-5.1229,-5.1199,-5.0764,-5.0584,-5.0524,-4.9912,-4.9643,-4.9643,-4.9419,-4.909,-4.8686,-4.8686,-4.8267,-4.7698,-4.7698,-4.7519,-4.7309,-4.7309,-4.7309,-4.7309,-4.7309,-4.7309,-4.7309,-4.7309,-4.7309,-4.7309,-4.7309,-4.7309,-4.7309,-4.7309,-4.7309,-4.7189,-4.68,-4.6501,-4.6202,-4.5783,-4.5155,-4.4706,-4.4706,-4.4167,-4.3678,-4.3678,-4.3469,-4.329,-4.329,-4.329,-4.329,-4.329,-4.329,-4.329,-4.329,-4.329,-4.329,-4.329,-4.329,-4.329,-4.329,-4.329,-4.329,-4.329,-4.329,-4.329,-4.329,-4.329,-4.329,-4.329,-4.329,-4.329,-4.329,-4.329,-4.329,-4.329,-4.329,-4.329,-4.3319,-4.3738,-4.4077,-4.4436,-4.5484,-4.6082,-4.6411,-4.707,-4.7309,-4.7309,-5.1229,-5.1229,-5.1229,-5.1229,-5.1229,-5.1229,-5.1229,-5.1229,-5.1229,-5.1229,-5.1229,-5.1229,-5.1229,-5.1229,-5.1229,-5.1229,-5.1229,-5.1229,-5.1229,-5.1229,-5.1229,-5.1229,-5.1229,-5.1229,-5.1229,-5.1229,-5.1229,-5.1229,-5.1229,-5.1229,-5.1229,-5.1229,-5.1229,-5.1229,-5.1229,-5.1229,-5.1169,-5.0524,-5.0285,-5.0226,-4.9673,-4.9449,-4.9389,-4.9389,-4.9,-4.8386,-4.8386,-4.7967,-4.7369,-4.7339,-4.7309,-4.7309,-4.7309,-4.7309,-4.7309,-4.7309,-4.7309,-4.7309,-4.7309,-4.7309,-4.7309,-4.7309,-4.7309,-4.7309,-4.7309,-4.683,-4.6369,-4.6369,-4.5873,-4.5394,-4.5394,-4.4855,-4.4407,-4.4407,-4.3798,-4.3379,-4.3379,-4.3319,-4.329,-4.329,-4.329,-4.329,-4.329,-4.329,-4.329,-4.329,-4.329,-4.329,-4.329,-4.329,-4.329,-4.329,-4.329,-4.329,-4.329,-4.329,-4.329,-4.329,-4.329,-4.329,-4.329,-4.329,-4.329,-4.329,-4.329,-4.329,-4.329,-4.329,-4.3648,-4.4287,-4.4945,-4.5633,-4.6279,-4.698,-4.7249,-4.7309,-5.1229,-5.1229,-5.1229,-5.1229,-5.1229,-5.1229,-5.1229,-5.1229,-5.1229,-5.1229,-5.1229,-5.1229,-5.1229,-5.1229,-5.1229,-5.1229,-5.1229,-5.1229,-5.1229,-5.1229,-5.1229,-5.1229,-5.1229,-5.1229,-5.1229,-5.1229,-5.1229,-5.1229,-5.1229,-5.1229,-5.1229,-5.1229,-5.1229,-5.1229,-5.1229,-5.1229,-5.1199,-5.1033,-5.0973,-5.0943,-5.084,-5.0481,-5.0032,-5.0032,-4.9613,-4.909,-4.909,-4.8626,-4.7997,-4.7489,-4.7309,-4.7309,-4.7309,-4.7309,-4.7309,-4.7309,-4.7309,-4.7309,-4.7309,-4.7309,-4.7309,-4.7309,-4.7309,-4.7309,-4.7309,-4.7189,-4.71,-4.71,-4.6561,-4.6082,-4.6082,-4.5544,-4.5095,-4.5095,-4.4526,-4.4067,-4.4067,-4.3618,-4.329,-4.329,-4.329,-4.329,-4.329,-4.329,-4.329,-4.329,-4.329,-4.329,-4.329,-4.329,-4.329,-4.329,-4.329,-4.329,-4.329,-4.329,-4.329,-4.329,-4.329,-4.329,-4.329,-4.329,-4.329,-4.329,-4.329,-4.329,-4.329,-4.329,-4.3379,-4.3559,-4.4257,-4.4945,-4.5603,-4.6292,-4.686,-4.7309,-5.1229,-5.1229,-5.1229,-5.1229,-5.1229,-5.1229,-5.1229,-5.1229,-5.1229,-5.1229,-5.1229,-5.1229,-5.1229,-5.1229,-5.1229,-5.1229,-5.1498,-5.1678,-5.1678,-5.1977,-5.2007,-5.1708,-5.1678,-5.1528,-5.1229,-5.1229,-5.1229,-5.1229,-5.1229,-5.1229,-5.1229,-5.1229,-5.1229,-5.1229,-5.1229,-5.1229,-5.1229,-5.1229,-5.1229,-5.1229,-5.1229,-5.102,-5.0674,-5.0674,-5.0301,-4.9733,-4.9733,-4.9314,-4.8656,-4.7997,-4.7788,-4.7728,-4.7399,-4.7309,-4.7309,-4.7309,-4.7309,-4.7309,-4.7309,-4.7309,-4.7309,-4.7309,-4.7309,-4.7309,-4.7309,-4.7309,-4.7309,-4.7309,-4.704,-4.68,-4.68,-4.6232,-4.5783,-4.5783,-4.5214,-4.4796,-4.4796,-4.4496,-4.4167,-4.3838,-4.3768,-4.3648,-4.3319,-4.329,-4.329,-4.329,-4.329,-4.329,-4.329,-4.329,-4.329,-4.329,-4.329,-4.3021,-4.2508,-4.3021,-4.3021,-4.2508,-4.3021,-4.329,-4.329,-4.329,-4.329,-4.329,-4.329,-4.329,-4.329,-4.329,-4.329,-4.3349,-4.4047,-4.4706,-4.5364,-4.6082,-4.6741,-4.7309,-5.1229,-5.1229,-5.1229,-5.1229,-5.1229,-5.1229,-5.1229,-5.1229,-5.1229,-5.1229,-5.1229,-5.1229,-5.1229,-5.1319,-5.1439,-5.1558,-5.2067,-5.2366,-5.2366,-5.2875,-5.2935,-5.2396,-5.2366,-5.2127,-5.1558,-5.1439,-5.1319,-5.1229,-5.1229,-5.1229,-5.1229,-5.1229,-5.1229,-5.1229,-5.1229,-5.1229,-5.1229,-5.1229,-5.1229,-5.1229,-5.1229,-5.1229,-5.1229,-5.1229,-5.0823,-5.0375,-5.0375,-5.0002,-4.9344,-4.8686,-4.8446,-4.8327,-4.7668,-4.7489,-4.7459,-4.7339,-4.7309,-4.7309,-4.7309,-4.7309,-4.7309,-4.7309,-4.7309,-4.7309,-4.7309,-4.7309,-4.7309,-4.7309,-4.7309,-4.7309,-4.7309,-4.686,-4.6459,-4.6459,-4.5933,-4.5454,-4.5454,-4.5364,-4.5095,-4.4556,-4.4496,-4.4257,-4.3678,-4.3618,-4.3618,-4.3618,-4.3618,-4.3589,-4.3469,-4.3469,-4.3409,-4.329,-4.329,-4.286,-4.1906,-4.282,-4.271,-4.1587,-4.278,-4.329,-4.329,-4.329,-4.329,-4.329,-4.329,-4.329,-4.329,-4.329,-4.329,-4.3349,-4.3888,-4.4616,-4.5394,-4.6202,-4.683,-4.7309,-5.1229,-5.1229,-5.1229,-5.1229,-5.1229,-5.1229,-5.1229,-5.1229,-5.1229,-5.1229,-5.1229,-5.1229,-5.1229,-5.1738,-5.2306,-5.2875,-5.2995,-5.3054,-5.3054,-5.3144,-5.3144,-5.3054,-5.3054,-5.2995,-5.2905,-5.2366,-5.1798,-5.1229,-5.1229,-5.1229,-5.1229,-5.1229,-5.1229,-5.1229,-5.1229,-5.1229,-5.1229,-5.1229,-5.1229,-5.1229,-5.1229,-5.1229,-5.1229,-5.1229,-5.1169,-5.1079,-5.1079,-5.0614,-4.9956,-4.9344,-4.9179,-4.906,-4.8356,-4.8147,-4.8027,-4.7489,-4.7309,-4.7309,-4.7309,-4.7309,-4.7309,-4.7309,-4.7309,-4.7309,-4.7309,-4.7309,-4.7309,-4.7309,-4.7309,-4.7309,-4.7309,-4.7249,-4.716,-4.716,-4.6621,-4.613,-4.613,-4.5663,-4.5274,-4.5185,-4.5155,-4.5125,-4.5035,-4.5035,-4.5035,-4.5035,-4.5035,-4.4796,-4.4227,-4.4167,-4.3888,-4.3319,-4.329,-4.325,-4.3061,-4.321,-4.271,-4.1587,-4.278,-4.329,-4.329,-4.329,-4.329,-4.329,-4.329,-4.329,-4.329,-4.329,-4.329,-4.329,-4.3379,-4.4227,-4.5454,-4.6711,-4.7219,-4.7309,-5.1229,-5.1229,-5.1229,-5.1229,-5.1229,-5.1229,-5.1229,-5.1229,-5.1229,-5.1229,-5.1528,-5.1768,-5.1768,-5.2366,-5.2875,-5.3144,-5.3533,-5.3743,-5.3743,-5.4102,-5.4132,-5.3773,-5.3743,-5.3563,-5.3204,-5.2905,-5.2606,-5.2306,-5.1588,-5.1229,-5.1229,-5.1229,-5.1229,-5.1229,-5.1229,-5.1229,-5.1229,-5.1229,-5.1229,-5.1229,-5.1229,-5.1229,-5.1229,-5.1229,-5.1229,-5.1229,-5.1229,-5.0973,-5.0644,-5.0032,-4.9793,-4.9703,-4.9045,-4.888,-4.876,-4.8057,-4.7848,-4.7788,-4.7399,-4.7309,-4.7309,-4.7309,-4.7309,-4.7309,-4.7309,-4.7309,-4.7309,-4.7309,-4.7309,-4.7309,-4.7309,-4.7309,-4.7309,-4.7309,-4.707,-4.686,-4.686,-4.6621,-4.6292,-4.5903,-4.5544,-4.5304,-4.5304,-4.5304,-4.5304,-4.5304,-4.5304,-4.5155,-4.4885,-4.4175,-4.4015,-4.4396,-4.372,-4.3399,-4.347,-4.408,-4.3512,-4.1674,-4.2518,-4.2708,-4.2386,-4.3021,-4.329,-4.329,-4.329,-4.329,-4.329,-4.329,-4.329,-4.329,-4.329,-4.4137,-4.5454,-4.68,-4.7309,-4.7309]},{"header":{"parameterUnit":"m.s-1","parameterCategory":1,"la1":30.6,"la2":28.766,"lo1":-90.7593,"lo2":-88.6598,"dy":0.0162,"dx":0.0183,"nx":116,"ny":114,"refTime":"2024-05-02T00:00:00:Z","depth":0,"parameterNumber":3,"parameterNumberName":"V-component_of_WINDS"},"data":[0.0,0.0,0.0,0.0,0.0,0.0,0.0,0.0,0.0,0.0,0.0,0.0,0.0,0.0,0.0,0.0,0.0,0.0,0.0,0.0,0.0,0.0,0.0,0.0,0.0,0.0,0.0,0.0,0.0,0.0,0.0,0.0,0.0,0.0,0.0,0.0,0.0,0.0,0.0,0.0,0.0,0.0,0.0,0.0,0.0,0.0,0.0,0.0,0.0,0.0,0.0,0.0,0.0,0.0,0.0,0.0,0.0,0.0,0.0,0.0,0.0,0.0,0.0,0.0,0.0,0.0,0.0,0.0,0.0,0.0,0.0,0.0,0.0,0.0,0.0,0.0,0.0,0.0,0.0,0.0,0.0,0.0,0.0,0.0,0.0,0.0,0.0,0.0,0.0,0.0,0.0,0.0,0.0,0.0,0.0,0.0,0.0,0.0,0.0,0.0,0.0,0.0,0.0,0.0,0.0,0.0,0.0,0.0,0.0,0.0,0.0,0.0,0.0,0.0,0.0,0.0,0.0,0.0,0.0,0.0,0.0,0.0,0.0,0.0,0.0,0.0,0.0,0.0,0.0,0.0,0.0,0.0,0.0,0.0,0.0,0.0,0.0,0.0,0.0,0.0,0.0,0.0,0.0,0.0,0.0,0.0,0.0,0.0,0.0,0.0,0.0,0.0,0.0,0.0,0.0,0.0,0.0,0.0,0.0,0.0,0.0,0.0,0.0,0.0,0.0,0.0,0.0,0.0,0.0,0.0,0.0,0.0,0.0,0.0,0.0,0.0,0.0,0.0,0.0,0.0,0.0,0.0,0.0,0.0,0.0,0.0,0.0,0.0,0.0,0.0,0.0,0.0,0.0,0.0,0.0,0.0,0.0,0.0,0.0,0.0,0.0,0.0,0.0,0.0,0.0,0.0,0.0,0.0,0.0,0.0,0.0,0.0,0.0,0.0,0.0,0.0,0.0,0.0,0.0,0.0,0.0,0.0,0.0,0.0,0.0,0.0,0.0,0.0,0.0,0.0,0.0,0.0,0.0,0.0,0.0,0.0,0.0,0.0,0.0,0.0,0.0,0.0,0.0,0.0,0.0,0.0,0.0,0.0,0.0,0.0,0.0,0.0,0.0,0.0,0.0,0.0,0.0,0.0,0.0,0.0,0.0,0.0,0.0,0.0,0.0,0.0,0.0,0.0,0.0,0.0,0.0,0.0,0.0,0.0,0.0,0.0,0.0,0.0,0.0,0.0,0.0,0.0,0.0,0.0,0.0,0.0,0.0,0.0,0.0,0.0,0.0,0.0,0.0,0.0,0.0,0.0,0.0,0.0,0.0,0.0,0.0,0.0,0.0,0.0,0.0,0.0,0.0,0.0,0.0,0.0,0.0,0.0,0.0,0.0,0.0,0.0,0.0,0.0,0.0,0.0,0.0,0.0,0.0,0.0,0.0,0.0,0.0,0.0,0.0,0.0,0.0,0.0,0.0,0.0,0.0,0.0,0.0,0.0,0.0,0.0,0.0,0.0,0.0,0.0,0.0,0.0,0.0,0.0,0.0,0.0,0.0,0.0,0.0,0.0,0.0,0.0,0.0,0.0,0.0,0.0,0.0,0.0,0.0,0.0,0.0,0.0,0.0,0.0,0.0,0.0,0.0,0.0,0.0,0.0,0.0,0.0,0.0,0.0,0.0,0.0,0.0,0.0,0.0,0.0,0.0,0.0,0.0,0.0,0.0,0.0,0.0,0.0,0.0,0.0,0.0,0.0,0.0,0.0,0.0,0.0,0.0,0.0,0.0,0.0,0.0,0.0,0.0,0.0,0.0,0.0,0.0,0.0,0.0,0.0,0.0,0.0,0.0,0.0,0.0,0.0,0.0,0.0,0.0,0.0,0.0,0.0,0.0,0.0,0.0,0.0,0.0,0.0,0.0,0.0,0.0,0.0,0.0,0.0,0.0,0.0,0.0,0.0,0.0,0.0,0.0,0.0,0.0,0.0,0.0,0.0,0.0,0.0,0.0,0.0,0.0,0.0,0.0,0.0,0.0,0.0,0.0,0.0,0.0,0.0,0.0,0.0,0.0,0.0,0.0,0.0,0.0,0.0,0.0,0.0,0.0,0.0,0.0,0.0,0.0,0.0,0.0,0.0,0.0,0.0,0.0,0.0,0.0,0.0,0.0,0.0,0.0,0.0,0.0,0.0,0.0,0.0,0.0,0.0,0.0,0.0,0.0,0.0,0.0,0.0,0.0,0.0,0.0,0.0,0.0,0.0,0.0,0.0,0.0,0.0,0.0,0.0,0.0,0.0,0.0,0.0,0.0,0.0,0.0,0.0,0.0,0.0,0.0,0.0,0.0,0.0,0.0,0.0,0.0,0.0,0.0,0.0,0.0,0.0,0.0,0.0,0.0,0.0,0.0,0.0,0.0,0.0,0.0,0.0,0.0,0.0,0.0,0.0,0.0,0.0,0.0,0.0,0.0,0.0,0.0,0.0,0.0,0.0,0.0,0.0,0.0,0.0,0.0,0.0,0.0,0.0,0.0,0.0,0.0,0.0,0.0,0.0,0.0,0.0,0.0,0.0,0.0,0.0,0.0,0.0,0.0,0.0,0.0,0.0,0.0,0.0,0.0,0.0,0.0,0.0,0.0,0.0,0.0,0.0,0.0,0.0,0.0,0.0,0.0,0.0,0.0,0.0,0.0,0.0,0.0,0.0,0.0,0.0,0.0,0.0,0.0,0.0,0.0,0.0,0.0,0.0,0.0,0.0,0.0,0.0,0.0,0.0,0.0,0.0,0.0,0.0,0.0,0.0,0.0,0.0,0.0,0.0,0.0,0.0,0.0,0.0,0.0,0.0,0.0,0.0,0.0,0.0,0.0,0.0,0.0,0.0,0.0,0.0,0.0,0.0,0.0,0.0,0.0,0.0,0.0,0.0,0.0,0.0,0.0,0.0,0.0,0.0,0.0,0.0,0.0,0.0,0.0,0.0,0.0,0.0,0.0,0.0,0.0,0.0,0.0,0.0,0.0,0.0,0.0,0.0,0.0,0.0,0.0,0.0,0.0,0.0,0.0,0.0,0.0,0.0,0.0,0.0,0.0,0.0,0.0,0.0,0.0,0.0,0.0,0.0,0.0,0.0,0.0,0.0,0.0,0.0,0.0,0.0,0.0,0.0,0.0,0.0,0.0,0.0,0.0,0.0,0.0,0.0,0.0,0.0,0.0,0.0,0.0,0.0,0.0,0.0,0.0,0.0,0.0,0.0,0.0,0.0,0.0,0.0,0.0,0.0,0.0,0.0,0.0,0.0,0.0,0.0,0.0,0.0,0.0,0.0,0.0,0.0,0.0,0.0,0.0,0.0,0.0,0.0,0.0,0.0,0.0,0.0,0.0,0.0,0.0,0.0,0.0,0.0,0.0,0.0,0.0,0.0,0.0,0.0,0.0,0.0,0.0,0.0,0.0,0.0,0.0,0.0,0.0,0.0,0.0,0.0,0.0,0.0,0.0,0.0,0.0,0.0,0.0,0.0,0.0,0.0,0.0,0.0,0.0,0.0,0.0,0.0,0.0,0.0,0.0,0.0,0.0,0.0,0.0,0.0,0.0,0.0,0.0,0.0,0.0,0.0,0.0,0.0,0.0,0.0,0.0,0.0,0.0,0.0,0.0,0.0,0.0,0.0,0.0,0.0,0.0,0.0,0.0,0.0,0.0,0.0,0.0,0.0,0.0,0.0,0.0,0.0,0.0,0.0,0.0,0.0,0.0,0.0,0.0,0.0,0.0,0.0,0.0,0.0,0.0,0.0,0.0,0.0,0.0,0.0,0.0,0.0,0.0,0.0,0.0,0.0,0.0,0.0,0.0,0.0,0.0,0.0,0.0,0.0,0.0,0.0,0.0,0.0,0.0,0.0,0.0,0.0,0.0,0.0,0.0,0.0,0.0,0.0,0.0,0.0,0.0,0.0,0.0,0.0,0.0,0.0,0.0,0.0,0.0,0.0,0.0,0.0,0.0,0.0,0.0,0.0,0.0,0.0,0.0,0.0,0.0,0.0,0.0,0.0,0.0,0.0,0.0,0.0,0.0,0.0,0.0,0.0,0.0,0.0,0.0,0.0,0.0,0.0,0.0,0.0,0.0,0.0,0.0,0.0,0.0,0.0,0.0,0.0,0.0,0.0,0.0,0.0,0.0,0.0,0.0,0.0,0.0,0.0,0.0,0.0,0.0,0.0,0.0,0.0,0.0,0.0,0.0,0.0,0.0,0.0,0.0,0.0,0.0,0.0,0.0,0.0,0.0,0.0,0.0,0.0,0.0,0.0,0.0,0.0,0.0,0.0,0.0,0.0,0.0,0.0,0.0,0.0,0.0,0.0,0.0,0.0,0.0,0.0,0.0,0.0,0.0,0.0,0.0,0.0,0.0,0.0,0.0,0.0,0.0,0.0,0.0,0.0,0.0,0.0,0.0,0.0,0.0,0.0,0.0,0.0,0.0,0.0,0.0,0.0,0.0,0.0,0.0,0.0,0.0,0.0,0.0,0.0,0.0,0.0,0.0,0.0,0.0,0.0,0.0,0.0,0.0,0.0,0.0,0.0,0.0,0.0,0.0,0.0,0.0,0.0,0.0,0.0,0.0,0.0,0.0,0.0,0.0,0.0,0.0,0.0,0.0,0.0,0.0,0.0,0.0,0.0,0.0,0.0,0.0,0.0,0.0,0.0,0.0,0.0,0.0,0.0,0.0,0.0,0.0,0.0,0.0,0.0,0.0,0.0,0.0,0.0,0.0,0.0,0.0,0.0,0.0,0.0,0.0,0.0,0.0,0.0,0.0,0.0,0.0,0.0,0.0,0.0,0.0,0.0,0.0,0.0,0.0,0.0,0.0,0.0,0.0,0.0,0.0,0.0,0.0,0.0,0.0,0.0,0.0,0.0,0.0,0.0,0.0,0.0,0.0,0.0,0.0,0.0,0.0,0.0,0.0,0.0,0.0,0.0,0.0,0.0,0.0,0.0,0.0,0.0,0.0,0.0,0.0,0.0,0.0,0.0,0.0,0.0,0.0,0.0,0.0,0.0,0.0,0.0,0.0,0.0,0.0,0.0,0.0,0.0,0.0,0.0,0.0,0.0,0.0,0.0,0.0,0.0,0.0,0.0,0.0,0.0,0.0,0.0,0.0,0.0,0.0,0.0,0.0,0.0,0.0,0.0,0.0,0.0,0.0,0.0,0.0,0.0,0.0,0.0,0.0,0.0,0.0,0.0,0.0,0.0,0.0,0.0,0.0,0.0,0.0,0.0,0.0,0.0,0.0,0.0,0.0,0.0,0.0,0.0,0.0,0.0,0.0,0.0,0.0,0.0,0.0,0.0,0.0,0.0,0.0,0.0,0.0,0.0,0.0,0.0,0.0,0.0,0.0,0.0,0.0,0.0,0.0,0.0,0.0,0.0,0.0,0.0,0.0,0.0,0.0,0.0,0.0,0.0,0.0,0.0,0.0,0.0,0.0,0.0,0.0,0.0,0.0,0.0,0.0,0.0,0.0,0.0,0.0,0.0,0.0,0.0,0.0,0.0,0.0,0.0,0.0,0.0,0.0,0.0,0.0,0.0,0.0,0.0,0.0,0.0,0.0,0.0,0.0,0.0,0.0,0.0,0.0,0.0,0.0,0.0,0.0,0.0,0.0,0.0,0.0,0.0,0.0,0.0,0.0,0.0,0.0,0.0,0.0,0.0,0.0,0.0,0.0,0.0,0.0,0.0,0.0,0.0,0.0,0.0,0.0,0.0,0.0,0.0,0.0,0.0,0.0,0.0,0.0,0.0,0.0,0.0,0.0,0.0,0.0,0.0,0.0,0.0,0.0,0.0,0.0,0.0,0.0,0.0,0.0,0.0,0.0,0.0,0.0,0.0,0.0,0.0,0.0,0.0,0.0,0.0,0.0,0.0,0.0,0.0,0.0,0.0,0.0,0.0,0.0,0.0,0.0,0.0,0.0,0.0,0.0,0.0,0.0,0.0,0.0,0.0,0.0,0.0,0.0,0.0,0.0,0.0,0.0,0.0,0.0,0.0,0.0,0.0,0.0,0.0,0.0,0.0,0.0,0.0,0.0,0.0,0.0,0.0,0.0,0.0,0.6607,0.6607,0.0,0.0,0.0,0.0,0.0,0.0,0.0,0.0,0.0,0.0,0.0,0.0,0.0,0.0,0.0,0.0,0.0,0.0,0.0,0.0,0.0,0.0,0.0,1.2425,1.2556,1.2556,1.2652,1.2732,1.2732,1.2879,0.0,0.0,0.0,0.0,1.3213,1.3213,1.3213,1.3213,1.3213,1.3213,1.32,1.3901,1.4216,1.4253,0.0,0.0,0.0,0.0,0.0,0.0,0.0,0.0,0.0,0.0,0.0,0.0,0.0,0.0,0.0,0.0,0.0,0.0,0.0,0.0,0.0,0.0,0.0,0.0,0.0,0.0,0.0,0.0,0.0,0.0,0.0,0.0,0.0,0.0,0.0,0.0,0.0,0.0,0.0,0.0,0.0,0.0,0.0,0.0,0.0,0.0,0.0,0.0,0.0,0.0,0.0,0.0,0.0,0.0,0.0,0.0,0.0,0.0,0.0,0.0,0.0,0.0,0.0,0.0,0.0,0.0,0.0,0.0,0.0,0.0,0.6763,0.6702,0.0,0.0,0.0,0.0,0.0,0.0,0.0,0.0,0.0,0.0,0.0,0.0,0.0,0.0,0.0,0.0,0.0,0.0,0.0,0.0,0.0,1.2398,1.2452,1.2717,1.2864,1.2864,1.3066,1.3213,1.3213,1.3253,1.328,1.328,1.3333,1.336,1.336,1.336,1.336,1.336,1.336,1.336,1.336,1.336,1.336,1.336,1.3412,0.0,0.0,0.0,0.0,0.0,0.0,0.0,0.0,0.0,0.0,0.0,0.0,0.0,0.0,0.0,0.0,0.0,0.0,0.0,0.0,0.0,0.0,0.0,0.0,0.0,0.0,0.0,0.0,0.0,0.0,0.0,0.0,0.0,0.0,0.0,0.0,0.0,0.0,0.0,0.0,0.0,0.0,0.0,0.0,0.0,0.0,0.0,0.0,0.0,0.0,0.0,0.0,0.0,0.0,0.0,0.0,0.0,0.0,0.0,0.0,0.0,0.0,0.0,0.7173,0.7173,0.7173,0.7173,0.7173,0.7166,0.6959,0.6831,0.6776,0.6749,0.0,0.0,0.0,0.0,0.0,0.0,0.0,0.0,0.0,0.0,0.0,0.0,0.0,0.0,0.0,0.0,0.0,0.0,0.0,1.2824,1.3066,1.3133,1.3146,1.3146,1.3186,1.3213,1.3213,1.34,1.3547,1.3547,1.3828,1.3975,1.3975,1.3975,1.3975,1.3975,1.3975,1.3975,1.3975,1.3975,1.3975,1.399,1.428,1.4477,1.4587,0.0,0.0,0.0,0.0,0.0,0.0,0.0,0.0,0.0,0.0,0.0,0.0,0.0,0.0,0.0,0.0,0.0,0.0,0.0,0.0,0.0,0.0,0.0,0.0,0.0,0.0,0.0,0.0,0.0,0.0,0.0,0.0,0.0,0.0,0.0,0.0,0.0,0.0,0.0,0.0,0.0,0.8463,0.8204,0.0,0.0,0.0,0.0,0.0,0.0,0.0,0.0,0.0,0.0,0.0,0.0,0.0,0.7204,0.7339,0.7339,0.7407,0.7543,0.7543,0.7543,0.7543,0.7543,0.7543,0.7536,0.7495,0.0,0.7031,0.691,0.0,0.0,0.0,0.0,0.0,0.0,0.0,0.0,0.0,0.0,0.0,0.0,0.0,0.0,0.0,0.0,0.0,0.0,0.0,0.0,0.0,1.332,1.3413,1.3413,1.3614,1.3707,1.3707,1.3828,1.3895,1.3895,1.4015,1.4082,1.4082,1.4082,1.4082,1.4082,1.4082,1.4082,1.4082,1.4082,1.4082,1.4124,1.4255,1.4196,1.4069,1.4493,0.0,0.0,0.0,0.0,0.0,0.0,0.0,0.0,0.0,0.0,0.0,0.0,0.0,0.0,0.0,0.0,0.0,0.0,0.0,0.0,0.0,0.0,0.0,0.0,0.0,0.0,0.0,0.0,0.0,0.0,0.0,0.0,0.0,0.0,0.0,0.0,0.0,0.0,0.0,0.9121,0.7999,0.7525,0.7077,0.6858,0.0,0.0,0.0,0.0,0.0,0.0,0.0,0.0,0.0,0.74,0.74,0.7428,0.7502,0.7502,0.7536,0.7597,0.7597,0.7597,0.7597,0.7597,0.7597,0.7597,0.7597,0.7522,0.7387,0.7238,0.7177,0.7163,0.0,0.0,0.0,0.0,0.6898,0.6831,0.0,0.0,0.0,0.0,0.0,0.0,0.0,0.0,0.0,0.0,0.0,0.0,1.3427,1.3627,1.372,1.372,1.3961,1.4082,1.4082,1.4082,1.4082,1.4082,1.4082,1.4082,1.4082,1.4082,1.4082,1.4082,1.4162,1.4202,1.4202,1.4282,1.4309,1.4309,1.4229,1.4028,1.372,1.372,1.4184,1.49,0.0,0.0,0.0,0.0,0.0,0.0,0.0,0.0,0.0,0.0,0.0,0.0,0.0,0.0,0.0,0.0,0.0,0.0,0.0,0.0,0.0,0.0,0.0,0.0,0.0,0.0,0.0,0.0,0.0,0.0,0.0,0.0,0.0,0.0,0.0,0.0,0.0,0.9059,0.8042,0.7151,0.7041,0.7095,0.0,0.0,0.0,0.0,0.0,0.0,0.7428,0.7536,0.7597,0.7597,0.7597,0.7617,0.7651,0.7651,0.7692,0.7773,0.7773,0.7787,0.7821,0.7787,0.7773,0.7767,0.7733,0.7712,0.7699,0.7509,0.7428,0.7421,0.7305,0.7213,0.7213,0.7213,0.7146,0.7102,0.0,0.0,0.0,0.0,0.0,0.0,0.0,0.0,0.0,0.0,0.0,1.3693,1.4015,1.4055,1.4068,1.4068,1.4082,1.4082,1.4082,1.4082,1.4082,1.4082,1.4082,1.4082,1.4082,1.4082,1.4082,1.4082,1.4362,1.4496,1.4509,1.4834,1.4968,1.4955,1.4629,1.4335,1.4068,1.4068,1.4657,1.5651,1.5651,0.0,0.0,0.0,0.0,0.0,0.0,0.0,0.0,0.0,0.0,0.0,0.0,0.0,0.0,0.0,0.0,0.0,0.0,0.0,0.0,0.0,0.0,0.0,0.0,0.0,0.0,0.0,0.0,0.0,0.0,0.0,0.0,0.0,0.0,0.0,0.0,0.0,0.0,0.7514,0.7392,0.0,0.0,0.0,0.0,0.7577,0.7584,0.759,0.759,0.7597,0.7597,0.7597,0.7597,0.7665,0.7801,0.7801,0.795,0.8286,0.8286,0.8309,0.8431,0.8296,0.8286,0.8279,0.8079,0.7968,0.7948,0.7706,0.759,0.759,0.7584,0.7577,0.7577,0.7577,0.757,0.7563,0.0,0.0,0.0,0.0,0.0,1.4467,1.4216,1.3691,1.34,1.3573,1.3814,1.3975,1.4082,1.4082,1.4082,1.4082,1.4082,1.4082,1.4082,1.4082,1.4175,1.4362,1.4362,1.4362,1.4362,1.4362,1.4362,1.4362,1.4656,1.4803,1.4803,1.4955,1.5008,1.5008,1.4901,1.4643,1.4349,1.4162,1.4334,1.4657,1.4657,1.5031,0.0,0.0,0.0,0.0,0.0,0.0,0.0,0.0,0.0,0.0,0.0,0.0,0.0,0.0,0.0,0.0,0.0,0.0,0.0,0.0,0.0,0.0,0.0,0.0,0.0,0.0,0.0,0.0,0.0,0.0,0.0,0.0,0.0,0.0,0.0,0.0,0.0,0.7458,0.7461,0.0,0.7597,0.7597,0.7597,0.7597,0.7685,0.7733,0.7733,0.7923,0.8031,0.8031,0.8119,0.8194,0.8241,0.8241,0.8296,0.8404,0.8404,0.8431,0.8479,0.8431,0.8404,0.8404,0.835,0.8323,0.8309,0.8113,0.7916,0.7726,0.7638,0.7597,0.7597,0.7597,0.7597,0.7597,0.0,0.0,0.0,1.6827,1.5607,1.4644,1.4568,1.4013,1.364,1.3733,1.3961,1.4082,1.4082,1.4082,1.4082,1.4082,1.4082,1.4135,1.4229,1.4229,1.4362,1.4656,1.4669,1.4629,1.4479,1.4616,1.4669,1.4669,1.4963,1.511,1.5156,1.5204,1.5257,1.5257,1.5196,1.5003,1.4803,1.4509,1.4269,1.4082,1.4082,1.4334,1.4699,0.0,0.0,0.0,0.0,0.0,0.0,0.0,0.0,0.0,0.0,0.0,0.0,0.0,0.0,0.0,0.0,0.0,0.0,0.0,0.0,0.0,0.0,0.0,0.0,0.0,0.0,0.0,0.0,0.0,0.0,0.0,0.0,0.0,0.0,0.0,0.7915,0.7562,0.7611,0.7692,0.774,0.7746,0.7773,0.7821,0.7916,0.7991,0.8038,0.8235,0.8395,0.8395,0.8431,0.8479,0.8479,0.8479,0.8506,0.856,0.856,0.8587,0.8635,0.8581,0.856,0.8554,0.8506,0.8479,0.8472,0.8377,0.8221,0.8018,0.7821,0.7746,0.7746,0.7746,0.7746,0.774,0.0,1.7993,1.7801,1.7296,1.6356,1.5552,1.5312,1.436,1.3761,1.4055,1.4082,1.4082,1.4082,1.4082,1.4082,1.4082,1.4082,1.4215,1.4496,1.4522,1.4656,1.5008,1.5022,1.4843,1.4549,1.483,1.5022,1.5022,1.5271,1.5404,1.5418,1.5698,1.5784,1.5771,1.5538,1.5404,1.5378,1.5142,1.4687,1.4108,1.4108,1.4741,1.5545,0.0,0.0,0.0,0.0,0.0,0.0,0.0,0.0,0.0,0.0,0.0,0.0,0.0,0.0,0.0,0.0,0.0,0.0,0.0,0.0,0.0,0.0,0.0,0.0,0.0,0.0,0.0,0.0,0.0,0.0,0.0,0.0,0.0,1.1283,1.0084,0.891,0.7938,0.7821,0.7882,0.7982,0.8002,0.8113,0.832,0.8327,0.8336,0.8472,0.8492,0.8499,0.8499,0.8506,0.8513,0.8513,0.8513,0.8581,0.873,0.873,0.8811,0.8892,0.8798,0.873,0.8723,0.8567,0.8506,0.8499,0.8492,0.8486,0.8459,0.8167,0.8002,0.7995,0.7995,0.7995,0.7968,1.8008,1.7688,1.7384,1.7243,1.6859,1.627,1.5427,1.5224,1.4878,1.4195,1.4082,1.4082,1.4082,1.4082,1.4082,1.4082,1.4082,1.4215,1.4496,1.4522,1.475,1.5257,1.5284,1.5244,1.515,1.5231,1.5284,1.5284,1.5565,1.5712,1.5712,1.5792,1.5784,1.5784,1.5704,1.5591,1.5391,1.5311,1.5057,1.4754,1.4482,1.444,1.4489,0.0,0.0,0.0,0.0,0.0,0.0,0.0,0.0,0.0,0.0,0.0,0.0,0.0,0.0,0.0,0.0,0.0,0.0,0.0,0.0,0.0,0.0,0.0,0.0,0.0,0.0,0.0,0.0,0.0,0.0,0.0,1.3668,1.2153,1.0278,0.8989,0.8096,0.7856,0.8011,0.816,0.8201,0.8303,0.8377,0.8418,0.8425,0.8438,0.8479,0.8696,0.8811,0.8811,0.9022,0.9137,0.9137,0.9137,0.9157,0.9198,0.9198,0.9218,0.9259,0.9218,0.9198,0.9191,0.9091,0.9023,0.9009,0.8737,0.8648,0.8628,0.8438,0.8296,0.8208,0.8208,0.8133,0.7982,1.8208,1.8002,1.7911,1.8247,1.7848,1.7192,1.6285,1.5904,1.5296,1.425,1.4082,1.4082,1.4082,1.4082,1.4082,1.4082,1.4202,1.4389,1.4683,1.4937,1.5164,1.5391,1.5511,1.5524,1.5404,1.5511,1.5578,1.5578,1.5704,1.5784,1.5784,1.5784,1.5784,1.5784,1.5784,1.5691,1.5578,1.6123,1.6172,1.5953,1.6301,1.5647,1.4442,1.4322,1.4269,1.4341,1.4867,1.4615,1.4208,1.481,0.0,0.0,0.0,0.0,0.0,0.0,0.0,0.0,0.0,0.0,0.0,0.0,0.0,0.0,0.0,0.0,0.0,0.0,0.0,0.0,0.0,0.0,0.0,0.0,1.3991,1.2252,1.0829,0.9526,0.8559,0.8047,0.816,0.8347,0.835,0.8431,0.8533,0.8662,0.8676,0.873,0.8852,0.9028,0.9123,0.9123,0.9293,0.9381,0.9381,0.9381,0.9381,0.9381,0.9381,0.9381,0.9381,0.9381,0.9381,0.9374,0.9344,0.9303,0.9289,0.8994,0.8899,0.0,0.0,0.0,0.0,0.0,0.8262,0.8133,1.8555,1.8676,1.8987,1.9785,1.9183,1.827,1.7406,1.6601,1.5587,1.4292,1.4208,1.425,1.4124,1.4082,1.4082,1.4082,1.4349,1.4656,1.5035,1.5524,1.5712,1.5458,1.5698,1.5712,1.5444,1.5698,1.5784,1.5784,1.5784,1.5784,1.5784,1.5784,1.5784,1.5784,1.5784,1.5784,1.5879,1.7185,1.7551,1.7357,1.8661,1.7637,1.537,1.5094,1.4941,1.4913,1.4525,1.4387,1.4387,1.4273,0.0,0.0,0.0,0.0,0.0,0.0,0.0,0.0,0.0,0.0,0.0,0.0,0.0,0.0,0.0,0.0,0.0,0.0,0.0,0.0,0.0,0.0,0.0,0.0,1.3908,1.2394,1.2443,1.1331,0.9971,0.848,0.8361,0.837,0.8499,0.854,0.8669,0.894,0.8925,0.9103,0.9367,0.0,0.0,0.0,0.0,0.9429,0.9429,0.9429,0.9429,0.9429,0.9429,0.9429,0.9429,0.9429,0.9429,0.9429,0.9415,0.9408,0.9395,0.9303,0.9228,0.9166,0.8676,0.8506,0.8506,0.8486,0.8404,0.8347,1.8719,1.9163,1.9707,1.9883,2.0042,1.9496,1.76,1.79,1.7334,1.4447,1.4852,1.5061,1.4208,1.4082,1.4082,1.4082,1.4349,1.475,1.5284,1.5631,1.5758,1.5704,1.5758,1.5758,1.5704,1.5758,1.5784,1.5784,1.5784,1.5784,1.5784,1.5784,1.5784,1.5784,1.5784,1.5784,1.5879,1.7185,1.7654,1.7718,1.8943,1.8823,1.7889,1.7825,1.7792,1.7647,1.6649,1.6271,1.6155,1.513,1.4834,1.4834,1.4834,0.0,0.0,0.0,0.0,0.0,0.0,0.0,0.0,0.0,0.0,0.0,0.0,0.0,0.0,0.0,0.0,0.0,0.0,0.0,0.0,1.5784,1.5586,1.5059,1.4051,1.3891,1.2537,0.89,0.8554,0.8635,0.8662,0.8879,0.9105,0.9166,0.9225,0.932,0.9374,0.9496,0.9564,0.9564,0.968,0.9734,0.9734,0.9734,0.9734,0.9734,0.0,0.0,0.9734,0.9734,0.9734,0.9727,0.9612,0.9564,0.9551,0.9401,0.9323,0.918,0.8791,0.8669,0.8648,0.8526,0.8465,0.8438,1.9423,1.9609,1.998,2.0195,2.043,2.004,1.8399,1.8638,1.8221,1.6,1.5711,1.5696,1.5711,1.4741,1.4389,1.5021,1.5004,1.515,1.5578,1.5752,1.5784,1.5784,1.5784,1.5784,1.5784,1.5784,1.5784,1.5784,1.5784,1.5784,1.5784,1.5784,1.5784,1.5832,1.648,1.6763,1.6842,1.8718,1.9497,1.9633,2.0809,2.1129,2.0706,1.9366,1.8862,1.8742,1.7996,1.7715,1.7585,1.699,1.6389,1.5903,1.5903,1.5486,1.5035,0.0,0.0,0.0,0.0,0.0,0.0,0.0,0.0,0.0,0.0,0.0,0.0,0.0,0.0,1.5784,1.5784,0.0,1.5824,1.6032,1.5619,1.5159,1.4713,1.4242,1.2863,1.0055,0.977,0.9568,0.9023,0.9125,0.9275,0.9367,0.9449,0.953,0.9598,0.9673,0.9713,0.9713,0.9781,0.9822,0.9822,0.9822,0.9822,0.9822,0.9822,0.9822,0.9822,0.9822,0.9822,0.9815,0.9747,0.9713,0.9707,0.9557,0.9408,0.9309,0.9103,0.8954,0.8818,0.8737,0.8662,0.8594,2.0246,2.0039,2.0156,2.0546,2.0605,2.0235,1.9155,1.9195,1.8838,1.7455,1.6723,1.6601,1.7212,1.5545,1.4923,1.6121,1.569,1.555,1.6136,1.5927,1.5784,1.5784,1.5784,1.5784,1.5784,1.5784,1.5784,1.5784,1.5784,1.5784,1.5784,1.5784,1.5784,1.5832,1.6857,1.7451,1.7824,2.0042,2.1078,2.1436,2.2624,2.3101,2.2867,2.0695,1.9734,1.9462,1.8956,1.8622,1.8403,1.8141,1.7393,1.661,1.661,1.5953,1.5223,1.5404,1.5484,0.0,0.0,0.0,0.0,0.0,0.0,0.0,0.0,0.0,1.5784,1.5784,1.5784,1.5784,1.5784,1.5784,1.5925,1.6268,1.5453,1.4908,1.539,1.4548,1.3361,1.1931,1.1282,1.0506,0.9299,0.9262,0.9347,0.9591,0.9632,0.97,0.9815,0.9822,0.9822,0.9822,0.9822,0.9822,0.9822,0.9822,0.9822,0.9822,0.9822,0.9822,0.9822,0.9822,0.9822,0.9822,0.9822,0.9822,0.9815,0.97,0.9564,0.9422,0.9422,0.9259,0.9022,0.8994,0.8886,0.8757,2.0795,2.0527,2.0546,2.0605,2.0605,2.0235,1.9155,1.9805,1.9668,1.7577,1.806,1.8301,1.7415,1.6232,1.5866,1.665,1.5709,1.5745,1.7375,1.6433,1.5784,1.5784,1.5784,1.5784,1.5784,1.5784,1.5784,1.5784,1.5784,1.5784,1.5784,1.5784,1.5784,1.5832,1.5974,1.6622,1.7777,1.9131,2.0296,2.1436,2.2624,2.3101,2.3081,2.2761,2.1975,2.09,1.9788,1.8698,1.7626,1.6509,1.6007,1.5913,1.5913,1.5819,1.5738,1.5765,0.0,1.5744,1.5771,1.5784,1.5784,1.5784,1.5784,1.5784,0.0,0.0,1.5784,1.5784,1.5784,1.5784,1.5784,1.5784,1.5925,1.6268,1.6388,1.6566,1.6896,1.7042,1.6554,1.5045,1.274,1.0715,0.9313,0.9401,0.9571,0.9605,0.9727,0.9802,0.9822,0.9822,0.9822,0.9822,0.9822,0.9822,0.9822,0.9822,0.9822,0.9822,0.9822,0.9822,0.9822,0.9822,0.9822,0.9822,0.9822,0.9822,0.9822,0.9802,0.9713,0.9585,0.9585,0.9483,0.9313,0.9234,0.9035,0.8858,2.1638,2.0972,2.0605,2.0605,2.0605,2.045,2.0001,2.0313,2.0274,1.9353,1.9076,1.9076,1.9195,1.7843,1.7149,1.7683,1.6208,1.5929,1.7608,1.6527,1.5784,1.5784,1.5784,1.5784,1.5784,1.5784,1.5784,1.5784,1.5784,1.5784,1.5784,1.5784,1.5784,1.5879,1.7296,1.8257,1.8872,2.0764,2.1898,2.2403,2.2906,2.3101,2.3101,2.3101,2.2359,2.1346,2.1543,2.1275,0.0,1.9434,1.8518,1.7855,1.7124,1.6386,1.5784,1.5784,1.5784,0.0,1.5784,1.5784,0.0,0.0,1.5784,1.5784,1.5784,1.5784,1.5784,1.5784,1.5784,1.5784,1.5784,1.5965,1.6179,0.0,1.6767,1.7061,1.7407,1.7502,1.7159,1.5839,1.4757,1.3162,1.0752,0.9945,0.9646,0.9727,0.9788,0.9822,0.9822,0.9822,0.9822,0.9822,0.9822,0.9822,0.9822,0.9822,0.9822,0.9822,0.9822,0.9822,0.9822,0.9822,0.9822,0.9822,0.9822,0.9822,0.9822,0.9822,0.9788,0.9734,0.9734,0.9646,0.9496,0.934,0.9191,0.9062,2.2226,2.1221,2.0605,2.0605,2.0605,2.0605,2.0605,2.0605,2.0605,2.0605,1.9923,1.9608,2.0118,1.8967,1.8296,1.8693,1.7201,1.6737,1.7934,1.694,1.615,1.5832,1.5784,1.5784,1.5784,1.5784,1.5784,1.5784,1.615,1.6339,1.6339,1.6655,1.6842,1.6889,1.8718,1.9679,2.0133,2.1854,2.2818,2.3101,2.3101,2.3101,2.3101,2.3101,2.2536,2.1854,2.2403,2.2403,2.1943,2.1123,2.0206,1.9268,1.8102,1.7091,1.6244,1.5927,1.5784,1.5784,1.5784,0.0,0.0,1.5784,1.5784,1.5784,1.5784,1.5784,1.5784,1.5784,1.5784,1.5811,1.5939,1.6126,1.6393,1.6767,1.7058,1.73,1.7542,1.7582,1.7304,1.655,1.6267,1.5254,1.3098,1.1728,1.1009,1.1133,1.114,1.114,1.114,1.114,1.0899,1.0482,1.0482,1.024,0.9822,0.9822,0.9822,0.9822,0.9822,0.9822,0.9822,0.9822,0.9822,0.9822,0.9822,0.9822,0.9822,0.9822,0.9822,0.9822,0.9822,0.9754,0.9652,0.9544,0.9381,0.9275,2.2226,2.1221,2.0605,2.0605,2.0605,2.0605,2.0605,2.0605,2.0605,2.0605,2.0566,2.0157,1.9155,1.9015,1.9137,1.9516,1.8778,1.8458,1.8819,1.8102,1.7091,1.5832,1.5784,1.5784,1.5784,1.5784,1.5784,1.5784,1.7044,1.7638,1.7684,1.881,1.9405,1.9405,1.9451,2.0178,2.1257,2.1346,2.2031,2.3101,2.3101,2.3101,2.3101,2.3101,2.3101,2.2906,2.1747,2.0612,1.9588,0.0,1.9542,1.9268,1.8102,1.7684,0.0,1.615,1.5784,0.0,0.0,0.0,1.5784,1.5784,1.5784,1.5784,1.5784,1.5784,1.5784,1.5784,1.5784,1.5912,1.6206,1.6308,1.6509,1.7099,1.7192,1.73,1.7542,1.7582,1.7702,1.7901,1.6833,1.6179,0.0,1.5221,1.448,1.4421,1.4421,1.4421,1.4421,1.4421,1.3765,1.2157,1.2157,1.1382,0.9822,0.9822,0.9822,0.9822,0.9822,0.9822,0.9822,0.9822,0.9822,0.9822,0.9822,0.9822,0.9822,0.9822,0.9822,0.9822,0.9822,0.9822,0.9815,0.9808,0.9625,0.9374,2.3172,2.2188,2.1336,2.0722,2.0605,2.0605,2.0605,2.0605,2.0605,2.0605,2.0605,0.0,0.0,0.0,0.0,0.0,1.904,1.8624,2.0018,1.8306,1.7169,1.7077,1.7044,1.6669,1.5832,1.6622,1.6669,1.5784,1.6244,1.6433,1.648,1.7731,1.8319,1.8365,1.998,2.0926,2.1346,2.2164,2.2731,2.3101,2.3101,2.3101,2.3101,2.3101,2.3101,2.3057,0.0,2.2227,2.1765,0.0,0.0,0.0,1.8102,0.0,0.0,1.5927,1.5784,1.5784,1.5784,0.0,1.5784,1.5784,1.5784,1.5784,1.5784,1.5784,1.5784,1.5784,1.5784,1.5811,1.5965,1.6299,1.662,1.682,1.7181,1.7527,1.7569,1.7756,1.7996,1.8303,1.8082,0.0,0.0,0.0,0.0,1.4599,1.4599,1.4599,1.4599,1.4599,1.3885,1.2277,1.2217,1.1434,0.9822,0.9822,0.9822,0.9822,0.9822,0.9822,0.9822,0.9822,0.9822,0.9822,0.9822,0.9822,0.9822,0.9822,0.9822,0.9822,0.9822,0.9822,0.9822,0.9822,0.9754,0.9659,0.0,2.3231,2.2226,2.126,2.1106,0.0,0.0,0.0,0.0,0.0,0.0,0.0,0.0,0.0,0.0,0.0,0.0,1.9353,2.0171,1.9006,1.8245,1.8087,1.8257,1.7948,1.7156,1.7902,1.7948,1.7109,1.7109,1.7109,1.7156,1.8395,1.8993,1.9085,2.1078,2.1943,2.1987,2.2775,2.3101,2.3101,2.3101,2.3101,2.3101,2.3101,2.3101,0.0,2.3101,2.3101,2.2994,0.0,0.0,0.0,0.0,0.0,0.0,0.0,1.5784,1.5784,1.5784,1.5784,1.5784,1.5784,1.5784,1.5784,1.5784,1.5784,1.5784,1.5784,1.5784,1.5858,1.5965,1.638,1.674,1.6847,1.7275,1.7582,1.7582,1.7849,1.8102,1.845,1.8744,1.9038,0.0,0.0,0.0,1.6326,1.6326,1.6326,1.6326,1.6326,1.5607,1.3994,1.3935,1.2868,1.0657,1.0664,1.0361,0.9822,0.9822,1.0119,1.0657,1.0058,1.0119,1.0657,1.0058,0.9822,0.9822,0.9822,0.9822,0.9822,0.9822,0.9822,0.9822,0.9822,0.9822,0.9808,0.0,0.0,2.3246,0.0,0.0,0.0,0.0,0.0,0.0,0.0,0.0,0.0,0.0,0.0,0.0,0.0,0.0,0.0,1.9575,2.0195,2.0105,1.8952,1.9327,1.9526,1.9497,1.9542,1.9542,1.9497,1.9497,1.9497,1.9542,2.0747,2.1302,2.1346,2.2536,2.3101,2.3101,2.3101,2.3101,2.3101,2.3101,2.3101,2.3101,2.3101,2.3101,2.3101,2.3101,2.3101,0.0,0.0,0.0,0.0,0.0,0.0,0.0,0.0,0.0,1.5784,1.5784,1.5784,1.5784,1.5784,1.5784,1.5784,1.5784,1.5784,1.5784,1.5784,1.5784,1.5912,0.0,0.0,1.678,1.7125,1.742,1.7569,1.7582,1.7862,1.8115,0.0,0.0,0.0,0.0,0.0,0.0,1.943,0.0,1.943,1.943,1.943,1.8648,1.7032,1.702,1.5478,1.2337,1.2337,1.1555,1.0058,0.9943,1.0778,1.2277,1.0664,1.0778,1.2217,1.0717,0.9997,0.9943,0.9943,0.9883,0.9822,0.9822,0.9822,0.9822,0.9822,0.9822,0.9822,0.0,0.0,0.0,0.0,0.0,0.0,0.0,0.0,0.0,0.0,0.0,0.0,0.0,0.0,0.0,0.0,0.0,0.0,2.0749,2.0122,1.9882,2.0192,2.0316,2.011,1.948,2.0387,2.0387,1.9497,1.9497,1.9497,1.9542,2.0747,2.1302,2.1346,2.2536,2.3101,2.3101,2.3101,2.3101,2.3101,2.3101,2.3101,2.3101,2.3101,2.3101,2.3101,2.3101,0.0,0.0,0.0,0.0,0.0,0.0,1.6292,1.5784,0.0,0.0,1.5784,1.5784,1.5784,1.5784,1.5784,1.5784,1.5784,1.5784,1.5784,1.5784,1.5784,1.5784,1.5845,0.0,0.0,0.0,1.6767,1.7061,0.0,1.7555,1.805,0.0,1.8477,0.0,1.9279,1.9417,1.943,0.0,0.0,1.943,1.943,1.943,1.943,1.8648,1.7032,1.702,1.602,1.4004,1.4004,1.3765,1.3347,1.2157,1.2457,1.3944,1.2337,1.2449,1.3944,1.3526,1.2697,1.1615,1.1615,1.0899,0.9822,0.9822,0.9822,0.9822,0.9822,0.9822,0.9822,0.0,0.0,0.0,0.0,0.0,0.0,0.0,0.0,0.0,0.0,0.0,0.0,0.0,0.0,0.0,0.0,0.0,0.0,0.0,2.0453,2.0428,2.0876,2.1291,2.1268,2.0828,2.1629,2.1765,2.1078,2.0539,2.0314,2.0296,2.0971,2.1302,2.1346,2.2536,2.3101,2.3101,2.3101,2.3101,0.0,0.0,2.3101,2.3101,2.3101,2.3101,2.3101,0.0,0.0,0.0,0.0,0.0,1.8365,1.6433,1.5784,1.5784,1.5784,0.0,1.5784,1.5784,1.5784,1.5784,1.5784,1.5784,1.5784,1.5784,1.5784,1.5784,1.5784,1.5784,0.0,1.6005,1.6166,0.0,0.0,0.0,0.0,1.7542,1.8103,1.849,0.0,1.9011,0.0,1.943,1.943,1.943,0.0,1.943,1.943,1.943,1.943,1.8997,1.8098,1.804,1.7267,1.5666,1.4955,1.4599,1.4599,1.3706,1.4123,1.5607,1.4004,1.4123,1.5607,1.4896,1.4063,1.3228,1.3228,1.2689,1.1856,1.114,1.0838,1.0778,1.0058,0.9822,0.9822,0.0,0.0,0.0,0.0,0.0,0.0,0.0,0.0,0.0,0.0,2.0605,2.0605,0.0,0.0,0.0,0.0,0.0,0.0,0.0,0.0,2.1132,2.119,2.1951,2.2461,2.2519,2.2886,2.3101,2.3101,2.2031,2.1525,2.1525,2.1525,2.1525,2.1569,2.2624,2.3101,2.3101,2.3101,2.3101,2.3101,2.3101,2.3101,2.3101,0.0,0.0,0.0,0.0,0.0,0.0,0.0,1.8688,1.7498,1.6197,1.5784,1.5784,1.5784,1.5784,1.5784,1.5784,1.5784,1.5784,1.5784,1.5784,1.5784,1.5784,1.5784,1.5784,1.5784,0.0,1.5965,1.6268,1.6348,1.6563,1.7112,0.0,1.73,1.7542,1.8103,1.849,1.849,1.9011,1.943,1.943,1.943,1.943,1.943,1.943,1.943,1.943,1.943,1.943,1.943,1.943,1.8706,1.7325,1.5902,1.5262,1.5252,1.5015,1.5784,1.7267,1.5666,1.5784,1.7267,1.5843,1.5133,1.4896,1.4896,1.4777,1.448,1.3048,1.2517,1.2337,1.0717,1.0119,1.0058,0.0,0.0,0.0,0.0,0.0,0.0,0.0,0.0,0.0,0.0,2.0605,2.0605,0.0,0.0,0.0,0.0,0.0,0.0,0.0,0.0,0.0,2.1171,2.1719,2.2168,2.25,2.2886,0.0,0.0,0.0,2.2775,2.2775,2.2775,2.2775,2.2818,2.2994,2.3101,2.3101,2.3101,2.3101,2.3101,2.3101,2.3101,2.3101,0.0,0.0,0.0,0.0,0.0,0.0,0.0,1.8688,1.7498,1.6197,1.5784,1.5784,1.5784,1.5784,1.5784,1.5784,1.5784,1.5784,1.5784,1.5784,1.5784,1.5784,1.5784,0.0,0.0,1.6019,1.6206,1.6308,1.6473,1.674,1.7152,0.0,0.0,0.0,0.0,1.849,0.0,0.0,0.0,1.943,1.943,0.0,0.0,1.943,1.943,1.943,1.943,1.943,1.943,1.943,1.9243,1.8997,1.8706,1.859,1.8532,1.7208,1.7443,1.8939,1.7325,1.7455,1.8952,1.8706,0.0,1.655,1.655,1.5784,1.454,1.4302,1.4183,1.4004,1.2397,1.1796,1.1615,0.0,0.0,0.0,0.0,0.0,0.0,0.0,2.1011,2.1145,2.0683,2.0605,2.0605,2.0605,2.0605,2.0605,0.0,0.0,0.0,0.0,0.0,0.0,0.0,0.0,0.0,0.0,0.0,0.0,0.0,0.0,0.0,0.0,0.0,0.0,0.0,0.0,0.0,2.3101,2.3101,2.3101,2.3101,2.3101,2.3101,0.0,0.0,0.0,0.0,0.0,0.0,0.0,0.0,1.9222,1.7498,1.6197,1.5784,1.5784,1.5784,1.5784,1.5784,1.5784,1.5784,1.5784,1.5784,1.5784,1.5784,1.5784,0.0,0.0,0.0,1.6179,1.6415,1.6723,1.6714,0.0,1.7353,0.0,0.0,0.0,0.0,0.0,0.0,0.0,0.0,0.0,1.943,1.943,1.943,1.943,1.943,1.943,1.943,1.943,1.943,1.943,1.943,1.943,1.943,1.943,1.9372,1.8648,1.8648,1.9372,1.859,1.8648,1.943,1.943,1.8939,1.8227,1.8227,1.7892,1.7232,1.6388,1.6166,1.6095,1.4516,1.384,1.3565,0.0,0.0,0.0,0.0,0.0,0.0,2.1603,2.1659,2.1735,2.1011,2.0702,2.0605,2.0605,2.0605,2.0605,0.0,0.0,0.0,0.0,0.0,0.0,0.0,0.0,0.0,0.0,0.0,0.0,0.0,0.0,0.0,0.0,0.0,0.0,0.0,0.0,0.0,0.0,0.0,2.3101,0.0,0.0,0.0,0.0,0.0,0.0,0.0,0.0,0.0,0.0,0.0,2.0025,1.8272,1.6983,1.6244,1.5784,1.5784,1.5784,1.5784,1.5784,1.5784,1.5784,1.5784,1.5784,1.5784,1.5784,1.5784,0.0,0.0,1.6375,1.6526,1.7112,1.7007,1.7048,0.0,1.7447,0.0,0.0,0.0,0.0,0.0,0.0,0.0,0.0,1.943,0.0,1.943,1.943,1.943,1.943,1.943,1.943,1.943,1.943,1.943,1.943,1.943,1.943,1.943,1.943,1.943,1.943,1.943,1.943,1.943,1.943,1.943,1.943,1.943,1.9533,1.9681,1.8391,1.8119,1.8178,1.6629,1.579,1.5469,0.0,0.0,0.0,0.0,0.0,0.0,2.3415,2.2504,2.1962,2.1886,2.1106,2.0605,2.0605,2.0605,2.0605,0.0,0.0,0.0,0.0,0.0,0.0,0.0,0.0,0.0,0.0,0.0,0.0,0.0,0.0,0.0,0.0,0.0,0.0,0.0,0.0,0.0,0.0,0.0,0.0,0.0,0.0,0.0,0.0,0.0,0.0,0.0,0.0,0.0,0.0,0.0,0.0,2.0747,1.9542,1.7623,1.5784,1.5784,0.0,0.0,1.5784,1.5784,1.5784,1.5784,1.5784,1.5784,1.5784,0.0,0.0,1.6206,1.6486,1.6767,1.7139,1.7393,1.7515,1.7569,0.0,1.7555,0.0,0.0,0.0,0.0,0.0,0.0,0.0,0.0,1.943,1.943,1.943,1.943,1.943,1.943,1.943,1.943,1.943,1.943,1.943,1.943,1.943,1.943,1.943,1.943,1.943,1.943,1.943,1.943,1.943,1.943,0.0,1.943,1.9533,1.98,1.9622,1.9734,1.9789,1.8227,1.7451,1.6989,0.0,0.0,0.0,0.0,0.0,0.0,2.3745,2.3158,2.2691,2.2075,2.1183,2.0605,2.0605,2.0605,2.0605,2.0605,2.0605,0.0,0.0,0.0,0.0,0.0,0.0,0.0,0.0,0.0,2.2461,2.3101,0.0,0.0,0.0,0.0,0.0,0.0,0.0,0.0,0.0,0.0,0.0,0.0,0.0,0.0,0.0,0.0,0.0,0.0,0.0,0.0,0.0,0.0,0.0,0.0,2.0747,1.9389,0.0,0.0,1.6951,1.6763,1.6008,1.5784,1.5784,1.5784,1.5784,1.5784,1.5784,0.0,1.5917,1.6433,1.662,1.6847,1.738,1.7554,1.7582,1.7582,0.0,0.0,0.0,0.0,0.0,0.0,0.0,0.0,0.0,0.0,1.943,1.943,1.943,1.943,1.943,1.943,1.943,1.943,1.943,1.943,1.943,1.943,1.943,1.943,1.943,1.943,1.943,1.943,1.943,1.943,1.943,1.943,0.0,1.9559,1.98,2.008,2.0254,2.0508,2.0699,2.005,1.9621,1.9292,0.0,0.0,0.0,0.0,0.0,2.6,2.4612,2.3891,2.3342,2.2914,2.1773,2.1011,2.1011,2.126,2.1242,2.0644,2.0605,0.0,0.0,0.0,0.0,0.0,0.0,0.0,0.0,0.0,2.2305,2.3101,2.3101,2.3101,0.0,0.0,0.0,0.0,0.0,0.0,0.0,0.0,0.0,0.0,0.0,0.0,0.0,0.0,0.0,0.0,0.0,0.0,0.0,0.0,0.0,0.0,0.0,0.0,0.0,0.0,1.7684,1.7404,1.615,1.5784,1.5784,1.5784,1.5784,1.5784,0.0,1.5899,1.6099,1.6607,1.678,1.6994,1.7488,1.7582,1.7582,0.0,0.0,1.7582,0.0,0.0,0.0,0.0,0.0,1.943,0.0,1.943,1.943,1.943,1.943,1.943,1.943,1.943,1.943,1.943,1.943,1.943,1.943,1.943,1.943,1.943,1.943,1.943,1.943,1.943,1.943,1.943,1.943,1.947,0.0,1.972,2.0027,2.0388,2.0601,2.0855,2.1109,2.1109,2.0869,2.0508,0.0,0.0,0.0,0.0,0.0,2.6499,2.6465,2.4755,2.3854,2.4814,2.3231,2.2,2.2,2.2877,2.2713,2.0779,2.0605,0.0,0.0,0.0,0.0,0.0,0.0,0.0,2.1875,2.1894,2.2305,2.3101,2.3101,2.3101,2.3101,2.3101,2.3101,0.0,0.0,0.0,0.0,0.0,0.0,0.0,0.0,0.0,2.3101,0.0,0.0,0.0,0.0,0.0,0.0,0.0,0.0,0.0,0.0,2.3057,2.2359,0.0,1.7684,1.7404,1.615,1.5784,1.5784,1.5784,1.5784,1.5784,0.0,1.6059,1.6353,1.6647,1.6941,1.7286,1.7528,1.7582,1.7582,1.7582,0.0,0.0,1.7582,0.0,0.0,0.0,0.0,1.943,1.943,1.943,1.943,1.943,1.943,0.0,1.943,1.943,1.943,1.943,1.943,1.943,1.943,1.943,1.943,1.943,1.943,1.943,1.943,1.943,1.943,1.943,1.943,1.9533,0.0,1.98,2.0147,2.0668,2.0681,2.0855,2.1109,2.1109,2.0735,2.018,0.0,0.0,0.0,0.0,0.0,0.0,2.6499,2.537,2.4636,2.4981,2.3854,2.3047,2.3047,2.3305,2.3268,2.2638,2.1962,0.0,0.0,0.0,0.0,0.0,0.0,0.0,2.1875,2.1894,2.2305,2.3101,2.3101,2.3101,2.3101,2.3101,2.3101,2.3101,2.3101,0.0,0.0,0.0,0.0,0.0,0.0,2.3101,2.3101,0.0,0.0,0.0,0.0,0.0,0.0,0.0,0.0,0.0,0.0,0.0,0.0,2.0764,2.0161,1.9724,1.7669,1.7077,1.6904,1.6021,1.5784,1.5784,1.5784,1.6059,1.6353,1.6647,1.6991,1.7286,1.7528,1.7582,1.7582,1.7582,1.7582,0.0,0.0,0.0,0.0,0.0,1.9011,1.943,0.0,0.0,1.943,1.943,1.943,1.943,1.943,1.943,1.943,1.943,1.943,1.943,1.943,1.943,1.943,1.943,1.943,1.943,1.943,1.943,1.943,1.943,1.9573,1.972,1.9826,2.0241,2.0508,2.0695,2.0895,2.1029,2.1109,2.1109,2.0869,2.0508,0.0,0.0,0.0,0.0,0.0,0.0,2.6499,2.5652,2.5158,2.5511,2.4707,2.4072,2.4072,2.4397,2.4181,2.3025,2.2691,0.0,0.0,0.0,0.0,0.0,0.0,0.0,2.1875,2.2031,2.2461,2.3101,2.3101,2.3101,2.3101,2.3101,2.3101,2.3101,2.3101,2.3101,0.0,0.0,0.0,0.0,2.3101,2.3101,2.3101,0.0,0.0,0.0,0.0,0.0,0.0,0.0,0.0,0.0,0.0,0.0,0.0,0.0,2.1987,2.1436,0.0,1.8056,1.7498,1.6716,1.615,1.5927,1.6433,1.6765,1.7072,1.7329,1.7636,1.7839,1.7634,1.7582,1.7582,1.7582,1.7582,0.0,0.0,0.0,0.0,1.8798,0.0,0.0,0.0,1.943,1.943,1.943,1.943,1.943,1.943,1.943,1.943,1.943,1.943,1.943,1.943,1.943,1.943,1.943,1.943,1.943,1.943,1.943,1.943,1.9386,1.9679,1.9867,0.0,2.0481,2.0735,2.0855,2.1042,2.1109,2.1109,2.1109,2.0855,2.0481,0.0,0.0,0.0,0.0,0.0,0.0,0.0,2.5687,2.5441,2.6396,2.5711,2.5123,2.5123,2.5955,2.5381,2.2542,2.3099,0.0,0.0,0.0,0.0,0.0,0.0,2.1405,2.1914,2.2305,2.2715,2.3101,2.3101,2.3101,2.3101,2.3101,2.3101,2.3101,2.3101,2.3101,2.3101,2.3101,2.3101,2.3101,2.3101,2.3101,0.0,0.0,0.0,0.0,0.0,0.0,0.0,0.0,0.0,0.0,0.0,0.0,0.0,0.0,0.0,0.0,0.0,1.8872,1.7963,1.787,1.6936,1.6386,1.7544,1.8033,0.0,1.8449,1.8775,1.8695,1.7791,1.7582,1.7582,1.7582,0.0,0.0,0.0,1.8103,0.0,0.0,1.943,0.0,1.943,1.943,1.943,1.943,1.943,1.943,1.943,1.943,1.943,1.943,1.943,1.943,1.943,1.943,1.943,1.943,1.943,1.943,1.943,1.943,1.943,0.0,1.9706,2.0,2.0294,2.0588,2.0869,2.1109,2.1109,2.1109,2.1109,2.1109,2.0735,2.0167,0.0,0.0,0.0,0.0,0.0,0.0,0.0,0.0,0.0,0.0,2.6267,2.6129,2.6129,2.6336,2.6198,0.0,0.0,0.0,0.0,0.0,0.0,0.0,2.1132,2.1541,2.2344,2.2461,2.2715,2.3101,2.3101,2.3101,2.3101,2.3101,2.3101,2.3101,2.3101,2.3101,2.3101,2.3101,2.3101,2.3101,2.3101,2.3101,0.0,0.0,0.0,0.0,2.3101,2.3101,0.0,0.0,0.0,0.0,0.0,0.0,0.0,0.0,2.3101,2.2969,2.2403,0.0,2.0206,1.9314,1.8856,1.8718,0.0,1.9267,1.9288,1.863,0.0,1.8695,1.7791,1.7582,1.7582,1.7582,0.0,0.0,1.7582,0.0,0.0,1.935,1.943,1.943,1.943,1.943,1.943,1.943,1.943,1.943,1.943,1.943,1.943,1.943,1.943,1.943,1.943,1.943,1.943,1.943,1.943,1.943,1.943,1.943,1.9492,1.972,2.0,2.0294,2.0588,2.0882,2.1042,2.1109,2.1109,2.1109,2.1109,2.1109,2.0735,2.0167,0.0,0.0,0.0,0.0,0.0,0.0,0.0,0.0,0.0,0.0,2.6499,2.6499,2.6499,2.6499,2.6302,0.0,0.0,0.0,0.0,0.0,0.0,2.119,2.158,2.2031,2.25,2.2695,2.2867,2.3101,2.3101,2.3101,2.3101,2.3101,2.3101,2.3101,2.3101,2.3101,2.3101,2.3101,2.3101,2.3101,2.3101,0.0,0.0,0.0,0.0,0.0,2.3101,2.3101,0.0,2.3101,2.3101,2.3101,0.0,0.0,0.0,0.0,2.3101,2.3101,2.3101,2.2227,2.1123,2.0477,1.9906,1.9633,2.0206,0.0,0.0,0.0,0.0,0.0,0.0,0.0,0.0,0.0,1.8499,0.0,0.0,0.0,1.8851,1.9319,1.943,1.943,0.0,1.943,1.943,1.943,1.943,1.943,1.943,1.943,1.943,1.943,1.943,1.943,1.943,1.943,1.943,1.943,1.943,1.943,1.943,1.9506,1.9653,1.9826,2.0254,2.0535,2.0695,2.0989,2.1109,2.1109,2.1109,2.1029,2.0909,2.0909,2.0535,2.004,0.0,0.0,0.0,0.0,0.0,0.0,0.0,0.0,0.0,0.0,0.0,0.0,0.0,0.0,0.0,0.0,0.0,0.0,0.0,0.0,2.2473,2.195,2.2276,2.2539,2.2617,2.2906,2.3101,2.3101,2.3101,2.3101,2.3101,2.3101,2.3101,2.3101,2.3101,2.3101,2.3101,2.3101,2.3101,2.3101,2.3101,0.0,0.0,0.0,0.0,0.0,0.0,0.0,0.0,2.3101,2.3101,2.3101,2.3101,0.0,0.0,0.0,0.0,0.0,2.3101,2.2378,2.1561,2.1569,2.0809,2.0314,2.1346,0.0,0.0,0.0,0.0,0.0,0.0,2.1693,0.0,0.0,0.0,0.0,1.8892,1.8843,1.9038,1.939,1.943,0.0,1.943,1.943,1.943,1.943,1.943,1.943,1.943,1.943,1.943,1.943,1.943,1.943,1.943,1.943,1.943,1.943,1.943,1.943,1.943,1.9666,1.9826,1.9893,0.0,0.0,2.0762,2.1002,2.1109,2.1109,2.1109,2.0935,2.0681,2.0681,2.0307,1.9786,0.0,0.0,0.0,0.0,0.0,0.0,0.0,0.0,0.0,0.0,0.0,0.0,0.0,0.0,0.0,0.0,0.0,0.0,0.0,2.6318,2.604,2.5138,2.3452,2.2676,2.2984,2.3062,2.3101,2.3101,2.3101,2.3101,2.3101,2.3101,2.3101,2.3101,2.3101,2.3101,2.3101,2.3101,2.3101,2.3101,2.3101,0.0,0.0,0.0,0.0,0.0,0.0,0.0,0.0,2.3101,2.3101,2.3101,2.3101,0.0,0.0,0.0,0.0,0.0,2.3101,2.295,2.2818,2.2818,2.2687,2.2599,2.2775,0.0,0.0,0.0,0.0,0.0,0.0,2.1693,2.1643,0.0,0.0,2.0074,0.0,0.0,1.9038,1.939,0.0,1.943,1.943,1.943,1.943,1.943,1.943,1.943,1.943,1.943,1.943,1.943,1.943,1.943,1.943,1.943,1.943,1.943,1.943,1.943,1.943,1.9666,1.9933,2.0187,0.0,2.0815,2.1042,2.1096,2.1109,2.1109,2.1109,2.0935,2.0681,2.0681,2.0307,1.976,0.0,0.0,0.0,0.0,0.0,0.0,0.0,0.0,0.0,0.0,0.0,0.0,0.0,0.0,0.0,0.0,0.0,0.0,0.0,2.6932,2.6409,2.5304,2.4283,2.3835,2.3996,2.343,2.3101,2.3101,2.3101,2.3101,2.3101,2.3101,2.3101,2.3101,2.3101,2.3101,2.3101,2.3101,2.3101,2.3101,0.0,0.0,0.0,0.0,0.0,0.0,0.0,0.0,0.0,0.0,2.3101,2.3101,2.3101,0.0,0.0,0.0,0.0,0.0,2.3101,2.3101,2.3101,2.3101,2.3101,2.3101,2.3101,2.3101,0.0,0.0,0.0,0.0,0.0,0.0,2.3633,2.2918,0.0,2.1559,2.1663,2.1601,2.159,0.0,0.0,2.1487,2.0644,2.0587,2.0256,1.9475,1.943,1.943,1.943,1.943,1.943,1.943,1.943,1.943,1.943,1.943,1.943,1.943,1.943,1.943,1.943,1.9666,1.996,2.0254,0.0,2.0842,2.1109,2.1109,2.1109,2.1096,2.0935,2.0695,2.0401,2.008,1.98,1.9546,0.0,0.0,0.0,0.0,0.0,0.0,0.0,0.0,0.0,0.0,0.0,0.0,0.0,0.0,0.0,0.0,0.0,0.0,0.0,2.7495,2.6748,2.5608,2.5336,2.4957,2.4425,2.3541,2.3101,2.3101,2.3101,2.3101,2.3101,2.3101,2.3101,2.3101,2.3101,2.3101,2.3101,2.3101,2.3101,2.3101,0.0,0.0,0.0,0.0,0.0,0.0,0.0,0.0,0.0,0.0,0.0,0.0,0.0,0.0,0.0,2.3101,2.3101,2.3101,2.3101,2.3101,2.3101,2.3101,2.3101,2.3101,2.3101,2.3101,0.0,0.0,0.0,0.0,0.0,2.5693,0.0,2.4474,2.3685,2.3207,2.3345,2.359,2.3822,2.3822,2.3822,2.3375,2.2194,2.2153,2.1487,2.004,1.9924,1.9764,1.943,1.943,1.943,1.943,1.943,1.943,1.943,1.943,1.943,1.943,1.943,1.943,1.943,1.9666,1.992,2.0147,2.0441,2.0695,2.0909,2.0909,2.0909,2.0882,2.0655,2.0388,2.0067,1.9559,1.943,1.943,0.0,0.0,0.0,0.0,0.0,0.0,0.0,0.0,0.0,0.0,0.0,0.0,0.0,0.0,0.0,0.0,0.0,0.0,2.9613,2.956,2.9067,2.7924,2.6912,2.54,2.3256,2.3144,2.3101,2.3101,2.3101,2.3101,2.3101,2.3101,2.3101,2.3101,2.3101,2.3101,2.3101,2.3101,2.3101,2.3101,2.3101,0.0,0.0,0.0,0.0,0.0,0.0,0.0,0.0,0.0,0.0,0.0,0.0,0.0,2.3101,2.3101,2.3101,2.3101,2.3101,2.3101,2.3101,2.3101,2.3101,2.3101,2.3101,2.3101,0.0,2.4238,0.0,0.0,0.0,2.5693,2.581,2.617,2.534,2.4772,2.5129,0.0,2.3822,2.3822,2.3822,2.3766,2.3654,2.3654,2.3039,2.1529,2.1415,2.0873,1.9475,1.943,1.943,1.943,1.943,1.943,1.943,1.943,1.943,1.943,1.943,1.943,1.943,1.9666,1.9813,1.984,2.0134,2.0281,2.0233,2.0233,2.0233,2.0233,2.0207,2.008,1.9786,1.9479,1.943,1.943,0.0,0.0,0.0,0.0,0.0,0.0,0.0,0.0,0.0,0.0,0.0,0.0,0.0,0.0,0.0,0.0,0.0,0.0,2.9804,2.9145,2.8227,2.7157,2.6047,2.4723,2.3144,2.3101,2.3101,2.3101,2.3101,2.3101,2.3101,2.3101,2.3101,2.3101,2.3101,2.3101,2.3101,2.3101,2.3101,2.3101,2.3101,2.3101,0.0,0.0,0.0,0.0,0.0,0.0,0.0,0.0,2.3101,2.3101,2.3101,2.3101,2.3101,2.3101,2.3101,2.3101,2.3101,2.3101,2.3101,2.3101,2.3101,0.0,0.0,2.334,2.3711,2.4297,2.4629,0.0,0.0,0.0,2.583,2.6309,2.6263,2.6305,2.6774,2.6691,2.6608,2.6608,2.6608,2.6227,2.5316,2.5206,2.4599,2.3095,2.2983,2.2702,2.2153,2.1259,2.1202,2.2096,2.1259,2.1202,2.2096,2.2153,2.1658,2.0759,1.9809,1.943,1.943,1.9479,1.9626,1.9813,1.992,2.0067,2.0167,2.0167,2.0167,2.0153,2.004,1.9786,1.9519,1.947,1.943,1.943,0.0,0.0,0.0,0.0,0.0,0.0,0.0,0.0,0.0,0.0,0.0,0.0,0.0,0.0,0.0,0.0,0.0,0.0,2.9804,2.9067,2.8148,2.7035,2.6232,2.5168,2.3671,2.3627,2.3474,2.3101,2.3101,2.3101,2.3101,2.3101,2.3101,2.3101,2.3101,2.3101,2.3101,2.3101,2.3101,2.3101,2.3101,2.3101,0.0,0.0,0.0,0.0,0.0,0.0,0.0,0.0,2.3101,2.3101,2.3101,2.3101,2.3101,2.3101,2.3101,2.3101,2.3101,2.3101,2.3101,2.3101,0.0,0.0,2.3296,2.3574,2.3945,2.4512,2.498,2.5371,2.5635,0.0,0.0,0.0,2.6836,2.7207,2.7793,2.8105,2.8301,2.8301,2.8301,2.7887,2.6879,2.6771,2.6155,2.4654,2.4544,2.4322,2.3822,2.2814,2.2758,2.3766,2.2814,2.2758,2.3766,2.3822,2.3263,2.2251,2.1259,2.0314,1.943,1.943,1.9479,1.9666,1.9666,1.9773,1.996,1.996,1.996,1.9947,1.9746,1.9546,1.943,1.943,1.943,1.943,0.0,0.0,0.0,0.0,0.0,0.0,0.0,0.0,2.9804,2.9804,2.9804,0.0,0.0,0.0,0.0,0.0,0.0,0.0,2.9804,2.9804,2.9287,2.8124,2.8084,2.7052,2.483,2.4787,2.4211,2.3101,2.3101,2.3101,2.3101,2.3101,2.3101,2.3101,2.3101,2.3101,2.3101,2.3101,2.3101,2.3101,2.3101,2.3101,2.3101,0.0,0.0,0.0,0.0,0.0,0.0,0.0,2.3101,2.3101,2.3101,2.3101,2.3101,2.3101,2.3101,2.3101,2.3101,2.3101,2.3101,2.3101,0.0,0.0,2.3789,2.3809,2.4043,2.4949,2.543,2.5693,2.5693,2.5693,0.0,2.6875,2.7012,2.7324,2.8164,2.8301,2.8301,2.8301,2.8301,2.8301,2.8301,2.8301,2.7672,2.6209,2.61,2.5426,2.3933,2.3822,2.3822,2.3822,2.3822,2.3822,2.3822,2.3822,2.3822,2.3822,2.3822,2.2266,1.943,1.943,1.943,1.943,1.943,1.943,1.943,1.943,1.943,1.943,1.943,1.943,1.943,1.943,1.943,1.943,0.0,0.0,0.0,0.0,0.0,0.0,0.0,0.0,2.9804,2.9804,2.9804,0.0,0.0,0.0,0.0,0.0,0.0,0.0,2.9804,2.9067,2.8466,2.8124,2.6603,2.5483,2.483,2.3996,2.343,2.3101,2.3101,2.3101,2.3101,2.3101,2.3101,2.3101,2.3101,2.3101,2.3101,2.3101,2.3101,2.3101,2.3101,2.3101,2.3101,0.0,0.0,0.0,0.0,0.0,0.0,0.0,0.0,0.0,2.3101,2.3101,2.3101,2.3101,2.3101,2.3101,2.3101,2.3101,0.0,2.3101,0.0,0.0,0.0,2.4473,0.0,0.0,2.5644,2.5693,2.5693,2.5693,0.0,2.6875,2.7012,2.7324,2.8164,2.8301,2.8301,2.8301,2.8301,2.8301,2.8301,2.8301,2.8121,2.7672,2.7672,2.7457,2.7006,2.5991,2.5882,2.6952,2.5936,2.5936,2.6952,2.6952,2.6445,2.5426,2.5426,2.4378,2.2435,2.143,2.0916,2.0873,1.9866,1.943,1.943,1.943,1.943,1.943,1.943,1.943,1.943,1.943,1.943,1.943,0.0,0.0,0.0,0.0,0.0,0.0,0.0,0.0,2.9804,2.9804,2.9804,2.9804,0.0,0.0,0.0,0.0,0.0,0.0,2.9804,2.9145,2.8767,2.8767,2.7481,2.6378,2.5504,2.393,2.3101,2.3101,2.3101,2.3101,2.3101,2.3101,2.3101,2.3101,2.3276,2.3398,2.3418,2.353,2.3608,2.3608,2.3608,2.3608,2.3588,0.0,0.0,0.0,0.0,0.0,0.0,0.0,0.0,0.0,2.3101,2.3101,2.3101,2.3101,2.3101,2.3101,2.3101,2.3101,0.0,2.3315,2.3711,2.4199,2.4805,0.0,0.0,0.0,2.5693,2.5693,2.5693,2.5693,0.0,2.6875,2.7012,2.7324,2.8164,2.8301,2.8301,2.8301,2.8301,2.8301,2.8301,2.8301,2.8301,2.8301,2.8301,2.8301,2.8301,2.7438,2.7384,2.8281,2.7438,2.7384,2.8281,2.8301,2.7833,2.6987,2.6987,2.6499,2.5498,2.2814,2.1586,2.1529,2.004,1.943,1.943,1.943,1.943,1.943,1.943,1.943,1.943,1.943,1.943,1.943,0.0,0.0,2.9804,2.9804,0.0,0.0,0.0,0.0,2.9804,2.9804,2.9804,2.9804,0.0,0.0,0.0,0.0,0.0,0.0,2.9804,2.9804,2.9804,2.9804,2.9702,2.8633,2.64,2.4296,2.3212,2.3101,2.3101,2.312,2.3159,2.3159,2.3179,2.3237,2.3672,2.3848,2.3867,2.4258,2.4414,2.4414,2.4414,2.4414,2.4375,2.3984,0.0,0.0,0.0,0.0,0.0,0.0,0.0,0.0,2.3218,2.3218,2.3218,2.3218,2.3218,2.3218,2.3218,2.3218,0.0,2.375,2.416,0.0,2.5499,2.5693,2.5693,2.5693,0.0,2.5693,2.5693,2.5693,2.5966,2.6875,2.7012,2.7324,2.8164,2.8301,2.8301,2.8301,2.8301,2.8301,2.8301,2.8301,2.8301,2.8301,2.8301,2.8301,2.8301,2.8301,2.8301,2.8301,2.8301,2.8301,2.8301,2.8301,2.8301,2.8301,2.8301,2.8301,2.8174,2.3933,2.1926,2.1756,2.0371,1.9822,1.9822,1.9822,1.9707,1.9591,1.9591,1.9533,1.943,1.943,1.943,1.943,0.0,0.0,2.9804,2.9804,0.0,0.0,0.0,0.0,0.0,0.0,0.0,0.0,0.0,0.0,0.0,0.0,0.0,0.0,2.9804,2.9804,2.9804,2.9804,2.8924,2.7441,2.521,2.466,2.4016,2.3101,2.3101,2.3276,2.3652,2.3652,2.3828,2.4095,2.4238,2.4277,2.4277,2.4375,2.4414,2.4414,2.4414,2.4414,2.4414,2.4316,2.4277,0.0,0.0,0.0,0.0,0.0,0.0,0.0,2.4095,2.4095,2.4095,2.4095,2.4095,2.4095,2.4095,2.4095,0.0,0.0,2.4609,2.5078,2.5557,2.5693,2.5693,2.5693,2.5693,2.5693,2.5693,2.5693,2.5966,2.6875,2.7012,2.7324,2.8164,2.8301,2.8301,2.8301,2.8301,2.8301,2.8301,2.8301,2.8301,2.8301,2.8301,2.8301,2.8301,2.8301,2.8301,2.8301,2.8301,2.8301,2.8301,2.8301,2.8301,2.8301,2.8301,2.8301,2.8228,2.61,2.4488,2.3319,2.2983,2.283,2.283,2.283,2.2153,2.1145,2.1145,2.0429,1.943,1.943,1.943,1.943,0.0,0.0,0.0,0.0,0.0,0.0,0.0,0.0,0.0,0.0,0.0,0.0,0.0,0.0,0.0,0.0,0.0,0.0,2.9804,2.9804,2.9585,2.9028,2.8426,2.7319,2.563,2.5847,2.5423,2.421,2.45,2.4355,2.3789,2.4004,2.4199,2.4434,2.4629,2.4727,2.4746,2.4961,2.4992,2.4992,2.4992,2.4992,2.4972,2.4805,2.4727,2.4707,2.4492,0.0,0.0,0.0,0.0,0.0,0.0,0.0,2.4414,2.4414,2.4414,2.4414,2.4414,0.0,0.0,2.4668,0.0,2.5449,2.5635,2.5693,2.5693,2.5693,2.5693,2.5693,2.5693,2.5693,2.5966,2.6875,2.7012,2.7324,2.8164,2.8301,2.8301,2.8301,2.8301,2.8301,2.8301,2.8301,2.8301,2.8301,2.8301,2.8301,2.8301,2.8301,2.8301,2.8301,2.8301,2.8301,2.8301,2.8301,2.8301,2.8301,2.8301,2.8301,2.8228,2.6771,2.5261,2.3822,2.3822,2.3822,2.3822,2.3822,2.3375,2.2645,2.2645,2.1756,2.0472,2.0472,2.004,1.943,0.0,0.0,0.0,0.0,0.0,0.0,0.0,0.0,0.0,0.0,0.0,0.0,0.0,0.0,0.0,0.0,0.0,0.0,2.993,3.0005,2.9677,2.8691,2.8651,2.8167,2.7103,2.7302,2.6778,2.5583,2.5933,2.5365,2.4023,2.4375,2.457,2.4668,2.5019,2.5176,2.5215,2.5586,2.5693,2.5693,2.5693,2.5693,2.5654,2.5332,2.5176,2.5137,2.4766,2.4602,2.4602,2.4602,0.0,0.0,0.0,0.0,2.4602,2.4602,2.4602,2.4602,2.4602,0.0,2.4727,2.5098,2.5469,0.0,2.5693,2.5693,2.5693,2.5693,2.5693,2.5693,2.5693,2.5693,2.5966,2.6875,2.7012,2.7324,2.8164,2.8301,2.8301,2.8301,2.8301,2.8301,2.8301,2.8301,2.8301,2.8301,2.8301,2.8301,2.8301,2.8301,2.8301,2.8301,2.8301,2.8301,2.8301,2.8301,2.8301,2.8301,2.8301,2.8301,2.8247,2.706,2.5772,2.4599,2.4599,2.4599,2.4599,2.4599,2.4433,2.4211,2.4211,2.3263,2.1983,2.1983,2.1031,1.9751,0.0,0.0,0.0,0.0,0.0,0.0,0.0,0.0,0.0,0.0,2.9804,2.9804,0.0,0.0,2.9804,2.9804,2.9804,3.0005,3.0482,0.0,0.0,3.0957,3.0957,3.0442,2.9379,2.8365,2.7261,2.6178,2.5583,2.513,2.4949,2.5008,2.5195,2.5518,2.5577,2.5596,2.5596,2.5654,2.5693,2.5693,2.5693,2.5693,2.5674,2.5615,2.5596,2.5596,2.5538,2.5518,2.5518,2.5518,2.5518,0.0,0.0,0.0,2.5518,2.5518,2.5518,2.5518,0.0,0.0,2.5518,0.0,2.5635,2.5693,0.0,0.0,2.5693,0.0,2.5693,2.5693,2.5693,2.5693,2.5966,2.6875,2.7012,2.7324,2.8164,2.8301,2.8301,2.8301,2.8301,2.8301,2.8301,2.8301,2.8301,2.8301,2.8301,2.8301,2.8301,2.8301,2.8301,2.8301,2.8301,2.8301,2.8301,2.8301,2.8301,2.8301,2.8301,2.8301,2.8281,2.8121,2.7906,2.7672,2.7672,2.7672,2.7672,2.7672,2.6952,2.5772,2.5772,2.4875,2.3487,2.3487,2.2589,2.1316,0.0,0.0,0.0,0.0,0.0,0.0,0.0,0.0,0.0,0.0,0.0,3.0256,3.0256,3.0507,3.0683,3.0683,3.0683,3.0783,3.1035,3.126,3.1141,3.0538,3.11,3.0869,2.9803,3.0132,2.9436,2.7587,2.7519,2.6816,2.5449,2.5449,2.5547,2.5693,2.5693,2.5693,2.5693,2.5693,2.5693,2.5693,2.5693,2.5693,2.5693,2.5693,2.5693,2.5693,2.5693,2.5693,2.5693,2.5693,2.5693,2.5693,2.5693,0.0,0.0,0.0,2.5693,0.0,2.5693,2.5693,2.5693,0.0,2.5693,2.5693,2.5693,0.0,2.5693,2.5693,2.5693,2.5693,2.5693,2.5693,2.5888,2.6562,2.6855,2.7226,2.7851,2.8144,2.8301,2.8301,2.8301,2.8301,2.8301,2.8301,2.8301,2.8301,2.8301,2.8301,2.8301,2.8301,2.8301,2.8301,2.8301,2.8301,2.8301,2.8301,2.8301,2.8301,2.8301,2.8301,2.8301,2.8301,2.8301,2.8301,2.8301,2.8301,2.8301,2.8301,2.7906,2.733,2.733,2.6391,2.5096,2.5096,2.4156,2.2814,0.0,0.0,0.0,0.0,0.0,0.0,0.0,0.0,0.0,0.0,0.0,3.0809,3.0809,0.0,0.0,0.0,3.1386,3.1461,3.1587,3.1738,3.1481,3.0658,3.1439,3.1481,3.0658,3.1515,3.1086,2.9261,2.9353,2.8308,2.6207,2.6207,2.6014,2.5693,2.5693,2.5693,2.5693,2.581,2.5898,2.5898,2.5898,2.5898,2.5849,2.5732,2.5693,2.5693,2.5693,2.5693,2.5693,2.5693,2.5693,2.5693,2.5693,2.5693,0.0,0.0,0.0,0.0,0.0,0.0,2.5693,2.5693,2.5693,2.5693,0.0,0.0,2.5693,0.0,2.5693,2.5693,2.5693,2.5693,2.583,2.6309,2.6641,2.7051,2.765,2.793,2.8184,2.8281,2.8301,2.8301,2.8301,2.8301,2.8301,2.8301,2.8301,2.8301,2.8301,2.8301,2.8301,2.8301,2.8301,2.8301,2.8301,2.8301,2.8301,2.8301,2.8301,2.8301,2.8301,2.8301,2.8301,2.8301,2.8301,2.8301,2.8301,2.8301,2.8301,2.8301,2.8301,2.7618,2.6662,2.6662,2.5717,2.4378,0.0,0.0,0.0,0.0,0.0,0.0,0.0,0.0,0.0,0.0,0.0,3.1361,3.1361,3.1361,3.1386,3.1386,3.1386,3.1612,3.2139,3.2692,3.2993,3.295,3.2993,0.0,3.295,3.1816,3.1175,3.1042,2.9943,2.8773,2.7505,2.7505,2.686,2.5693,2.5693,2.5693,2.5713,2.6172,2.6348,2.6348,2.6348,2.6348,2.6309,2.5849,2.5693,2.5693,2.5693,2.5693,2.5693,2.5693,2.5693,2.5693,2.5693,2.5693,2.5693,0.0,0.0,0.0,0.0,2.5693,0.0,2.5693,0.0,0.0,0.0,0.0,2.5693,2.5693,2.5693,2.5693,2.5693,2.5693,2.583,2.6309,2.6406,2.6719,2.7611,2.7728,2.7851,2.8242,2.8301,2.8301,2.8301,2.8301,2.8301,2.8301,2.8301,2.8301,2.8301,2.8301,2.8301,2.8301,2.8301,2.8301,2.8301,2.8301,2.8301,2.8301,2.8301,2.8301,2.8301,2.8301,2.8301,2.8301,2.8301,2.8301,2.8301,2.8301,2.8301,2.8301,2.8301,2.8228,2.8174,2.8174,2.7222,2.5991,0.0,0.0,0.0,0.0,0.0,0.0,0.0,0.0,0.0,0.0,0.0,0.0,0.0,3.224,3.2466,3.2466,3.2466,3.2566,3.2767,3.2968,3.3111,3.3111,3.3111,3.3111,3.3111,3.2655,3.1996,3.1223,2.9988,2.8773,2.7579,2.6764,2.6298,2.6152,2.6152,2.6152,2.6191,2.6602,2.6797,2.6758,2.6504,2.6387,2.6348,2.5898,2.5693,2.5693,2.5693,2.5693,2.5693,2.5693,2.5693,2.5693,2.5693,0.0,0.0,0.0,0.0,0.0,0.0,0.0,0.0,2.5693,2.5693,2.5693,2.5693,2.5693,2.5693,2.5693,2.5693,2.5693,2.5693,2.5693,2.5752,2.5937,2.6211,2.6484,2.6797,2.7376,2.7767,2.7924,2.8125,2.8301,2.8301,2.8301,2.8301,2.8301,2.8301,2.8301,2.8301,2.8301,2.8301,2.8301,2.8301,2.8301,2.8301,2.8301,2.8301,2.8301,2.8301,2.8301,2.8301,2.8301,2.8301,2.8301,2.8301,2.8301,2.8301,2.8301,2.8301,2.8301,2.8301,2.8301,2.8301,2.8301,2.796,2.7511,0.0,0.0,0.0,3.1637,0.0,3.1738,3.1938,3.1964,3.1964,3.1964,0.0,0.0,0.0,0.0,3.3111,3.3111,3.3111,3.3111,3.3111,3.3111,3.3111,3.3111,3.3111,3.3111,3.3111,3.3111,3.2698,3.1821,3.0598,2.9669,2.9061,2.7352,2.6792,2.7262,2.694,2.6738,2.6621,2.7051,2.7226,2.7207,2.6934,2.6816,2.6777,2.6328,2.6122,2.6103,2.5966,2.5908,2.5937,2.5732,2.5693,2.5693,0.0,0.0,0.0,0.0,0.0,0.0,2.5693,0.0,0.0,0.0,0.0,2.5693,2.5693,0.0,2.5693,2.5693,2.5693,2.5693,2.5693,2.5693,2.5693,2.5693,2.5977,2.623,2.6367,2.6875,2.7344,2.7689,2.7963,2.8144,2.8281,2.8301,2.8301,2.8301,2.8301,0.0,2.8301,2.8301,2.8301,2.8301,2.8301,2.8301,2.8301,2.8301,2.8301,2.8301,2.8301,2.8301,2.8301,2.8301,2.8301,2.8301,2.8301,2.8301,2.8301,2.8301,2.8301,2.8301,2.8301,2.8301,2.8301,2.8301,2.8301,2.8301,3.1436,3.1436,3.1612,3.2139,3.224,3.2416,3.2993,3.3093,3.3093,3.3093,0.0,0.0,0.0,0.0,0.0,3.3162,3.3162,3.3162,3.3162,3.3162,3.3162,3.3162,3.3162,3.3162,3.3162,3.3162,3.3162,3.3162,3.1869,3.1532,3.2055,2.9471,2.8523,2.8985,2.8113,2.7441,2.709,2.75,2.7728,2.7728,2.7728,2.7728,2.7669,2.7187,2.7012,2.6973,2.6562,2.6406,2.6348,2.5869,0.0,0.0,0.0,0.0,0.0,0.0,0.0,0.0,0.0,0.0,0.0,0.0,0.0,0.0,2.5742,0.0,2.5693,2.5742,2.5742,2.5693,2.5693,2.5693,2.5693,2.5693,2.5693,2.583,2.6309,2.6387,2.6699,2.7571,2.7689,2.7812,2.8242,2.8281,2.8281,2.8301,2.8301,2.8301,2.8301,2.8301,2.8301,2.8301,2.8301,2.8301,2.8301,2.8301,2.8301,2.8301,2.8301,2.8301,2.8301,2.8301,2.8301,2.8301,2.8301,2.8301,2.8301,2.8301,2.8301,2.8301,2.8301,2.8301,2.8301,2.8301,2.8301,2.8301,3.2616,3.2616,3.2667,3.2817,3.2842,3.2893,3.3043,3.342,3.3671,0.0,0.0,0.0,3.4274,3.4274,3.4274,3.4274,3.4274,3.4274,3.4274,3.4274,3.4274,3.4274,3.4274,3.4274,3.4274,3.4274,3.4274,3.4274,3.3029,3.2505,3.2648,3.0,2.9055,2.9467,2.8253,2.7773,2.7949,2.8066,2.8125,2.8086,2.7845,2.7728,2.7669,2.7187,2.7012,2.6992,2.6875,2.6836,2.6816,2.6699,2.6465,2.6152,0.0,0.0,0.0,0.0,0.0,0.0,2.5693,0.0,0.0,0.0,0.0,0.0,2.6839,2.6332,2.5965,2.6887,2.6332,2.5693,2.5693,2.5693,2.5693,2.5693,2.5693,2.5732,2.5898,2.6191,2.6484,2.6719,2.7012,2.7363,2.7793,2.7885,2.7969,0.0,2.8301,2.8301,2.8301,2.8301,2.8301,2.8301,2.8301,2.8301,2.8301,2.8301,2.8301,2.8301,2.8301,2.8301,2.8301,2.8301,2.8301,2.8301,2.8301,2.8301,2.8301,2.8301,2.8301,2.8301,2.8301,2.8301,2.8301,2.8301,2.8301,2.8301,3.337,3.342,3.3495,3.3721,3.3771,3.3771,3.3771,3.4048,3.4248,0.0,0.0,0.0,3.468,3.468,3.468,3.468,3.468,3.468,3.468,3.468,3.468,3.468,3.468,3.468,3.468,3.468,3.468,3.468,3.3489,3.2982,3.3078,3.0504,2.9539,2.9878,2.8521,2.8066,2.8301,2.8301,2.8301,2.8262,2.8027,2.793,2.7891,2.7637,2.7539,2.7519,2.7344,2.7285,2.7266,2.707,2.6738,0.0,0.0,0.0,0.0,0.0,0.0,0.0,0.0,0.0,0.0,0.0,0.0,0.0,2.7531,2.703,2.6572,2.6764,2.6207,2.5868,2.638,2.6476,2.6668,2.7152,2.6791,2.6284,2.5791,2.6377,2.6792,2.6467,2.7033,2.7502,2.7395,2.7402,2.7578,2.8008,2.8027,2.8105,2.8281,2.8301,2.8301,2.8301,2.8301,2.8301,2.8301,2.8301,2.8301,2.8301,2.8301,2.8301,2.8301,2.8301,2.8301,2.8301,2.8301,2.8301,2.8301,2.8301,2.8301,2.8301,2.8301,2.8301,2.8301,2.8301,2.8301,2.8301,0.0,3.3997,3.4148,3.465,3.468,3.468,3.468,3.4731,3.4781,0.0,3.4876,3.4901,3.4901,3.4901,3.4901,3.4901,3.4901,3.4901,3.4901,3.4901,3.4901,3.4901,3.4901,3.4901,3.4901,3.4901,3.4901,3.4901,3.3798,3.3456,3.3744,3.1357,3.0338,3.0463,2.9112,2.8441,2.8301,2.8301,2.8301,2.8301,2.8301,2.8301,2.8301,2.8301,2.8301,2.8242,2.7871,2.7787,2.7728,2.7226,2.6836,0.0,0.0,0.0,0.0,0.0,2.5859,0.0,0.0,0.0,0.0,0.0,2.8402,0.0,2.819,2.7908,2.7531,2.6524,2.6187,2.6476,2.7579,2.7814,2.8143,2.9235,2.8495,2.741,2.6284,2.6982,2.7365,2.6794,2.7577,2.7889,2.7199,2.6984,2.7129,2.7611,2.7689,2.7904,2.8262,2.8301,2.8301,2.8301,2.8301,2.8301,2.8301,2.8301,2.8301,2.8301,2.8301,2.8301,2.8301,2.8301,2.8301,2.8301,2.8301,2.8301,2.8301,2.8301,2.8301,2.8301,2.8301,2.8301,2.8301,2.8301,2.8301,2.8301,3.455,3.455,3.46,3.4655,3.468,3.468,3.468,3.5056,3.5332,3.5332,3.578,3.6078,3.6078,3.6078,3.6078,3.6078,3.6078,3.6078,3.6078,3.6078,3.6078,3.6078,3.6078,3.6078,3.6078,3.6078,3.6078,3.6078,3.5843,3.5752,3.5804,3.4219,3.2914,3.1825,3.0514,2.9303,2.8301,2.8301,2.8301,2.8301,2.8301,2.8301,2.8301,2.8301,2.8301,2.8281,2.8203,2.8164,2.8105,2.7676,2.748,2.7363,0.0,0.0,0.0,2.7419,0.0,0.0,0.0,0.0,0.0,0.0,2.7767,0.0,3.0124,2.9761,2.9258,2.9988,2.935,2.8773,2.9004,2.905,2.9143,2.935,2.9212,2.8958,2.8727,2.8049,2.7904,2.8718,2.8177,2.775,2.7966,2.7082,2.668,2.7109,2.7461,2.7904,2.8262,2.8301,2.8301,2.8301,2.8301,2.8301,2.8301,2.8301,2.8301,2.8301,2.8301,2.8301,2.8301,2.8301,2.8301,2.8301,2.8301,2.8301,2.8301,2.8301,2.8301,2.8301,2.8301,2.8301,2.8301,2.8301,2.8301,2.8301,3.5031,3.5082,3.5182,3.5504,3.5554,3.5554,3.5554,3.578,3.5956,3.5956,3.6182,3.6405,3.6405,3.6405,3.6405,3.6405,3.6405,3.6405,3.6405,3.6405,3.6405,3.6405,3.6405,3.6405,3.6405,3.6405,3.6405,3.6405,3.6405,3.6073,3.5379,3.4727,3.3674,3.223,3.0927,2.9911,2.925,2.8601,2.8301,2.8301,2.8301,2.8301,2.8301,2.8301,2.8301,2.8301,2.8301,2.8301,2.8262,2.8047,2.7885,0.0,2.7402,2.7051,2.6931,0.0,2.7806,2.7214,0.0,0.0,0.0,2.9212,0.0,0.0,0.0,3.0732,3.0305,3.0305,2.9806,2.9579,3.0169,3.0305,3.0508,3.1134,3.0732,3.0508,3.1134,3.0192,2.9396,2.9396,2.9396,2.9,2.7989,2.738,2.6901,2.671,2.7305,2.7806,2.7969,2.8184,2.8301,2.8301,2.8301,2.8301,2.8301,2.8301,2.8301,2.8301,2.8301,2.8301,2.8301,2.8301,2.8301,2.8301,2.8301,2.8301,2.8301,2.8301,2.8301,2.8301,2.8301,2.8301,2.8301,2.8301,2.8301,2.8301,3.5583,3.5658,3.5855,3.6329,3.6405,3.6405,3.6405,3.6405,3.6405,3.6405,3.6405,3.6405,3.6405,3.6405,3.6405,3.6405,3.6405,3.6405,3.6405,3.6405,3.6405,3.6405,3.6405,3.6405,3.6405,3.6405,3.6405,3.6405,3.6405,3.5858,3.4775,3.4775,3.4019,3.2632,3.1286,3.0514,3.0224,2.8847,2.8301,2.8301,2.8301,2.8301,2.8301,2.8301,2.8301,2.8301,2.8301,2.8301,2.8301,2.8301,2.8066,2.7845,2.7845,2.7688,0.0,0.0,0.0,0.0,0.0,0.0,0.0,0.0,0.0,3.2525,0.0,0.0,0.0,3.0305,0.0,0.0,0.0,0.0,0.0,0.0,0.0,0.0,0.0,3.2122,0.0,3.0237,3.0777,3.044,2.8495,2.7861,2.7455,2.71,2.7317,2.7636,2.8053,2.8127,2.8203,2.8301,2.8301,2.8301,2.8301,2.8301,2.8301,2.8301,2.8301,2.8301,2.8301,2.8301,2.8301,2.8301,2.8301,2.8301,2.8301,2.8301,2.8301,2.8301,2.8301,2.8301,2.8301,2.8301,2.8301,2.8301,3.6304,3.6329,3.6329,3.6405,3.6405,3.6405,3.6405,3.6405,3.6405,3.6405,3.6405,3.6405,3.6405,3.6405,3.6405,3.6405,3.6405,3.6405,3.6405,3.6405,3.6405,3.6405,3.6405,3.6405,3.6405,3.6405,3.6405,3.6405,3.6405,3.631,3.6168,3.6168,3.5475,3.4068,3.2705,3.1418,3.0224,0.0,2.8301,0.0,2.8301,2.8301,0.0,2.8301,2.8301,2.8301,2.8301,2.8301,2.8301,0.0,2.8262,2.8223,0.0,2.8782,2.9623,3.0883,0.0,0.0,0.0,0.0,0.0,0.0,3.1714,0.0,0.0,0.0,3.2853,3.2698,0.0,0.0,0.0,0.0,0.0,0.0,0.0,0.0,3.2348,3.2657,3.2828,3.2698,3.1821,3.1089,3.0822,2.8866,2.8147,2.9478,2.7693,2.7341,2.9187,2.8301,2.791,2.8281,2.8301,2.8301,2.8301,2.8301,2.8301,2.8301,2.8301,2.8301,2.8301,2.8301,2.8301,2.8301,2.8301,2.8301,2.8301,2.8301,2.8301,2.8301,2.8301,2.8301,2.8301,2.8301,2.8301,2.8301,3.6531,3.6405,3.6405,3.6405,3.6405,3.6405,3.6405,3.6681,3.7008,3.7287,3.7312,3.7312,3.7312,3.7312,3.7186,0.0,3.6835,3.6835,3.6835,3.6581,3.6556,3.6883,3.6581,3.6405,3.6405,3.6405,3.6405,3.6405,3.6405,3.6405,3.6405,3.6405,3.6121,3.5475,3.3304,3.1977,3.1316,0.0,2.8301,0.0,0.0,2.8652,0.0,2.8652,2.8652,2.8652,2.8652,2.8496,2.8301,0.0,2.8301,0.0,0.0,0.0,0.0,3.1589,0.0,0.0,0.0,0.0,0.0,0.0,0.0,0.0,3.3458,0.0,3.3111,0.0,0.0,0.0,0.0,0.0,0.0,0.0,3.2918,0.0,0.0,0.0,3.3111,0.0,0.0,0.0,3.1267,2.9624,2.8932,2.9594,2.8942,2.8855,2.9753,2.914,2.8838,2.8969,2.8569,2.8301,2.8301,2.8301,2.8301,2.8301,2.8301,2.8301,2.8301,2.8301,2.8301,2.8301,2.8301,2.8301,2.8301,2.8301,2.8301,2.8301,2.8301,2.8301,2.8301,2.8301,2.8301,2.8301,3.696,0.0,3.6857,3.6857,3.6857,3.6857,3.6857,3.7161,3.7563,3.7965,3.8015,3.8015,3.8015,3.8015,3.7839,0.0,3.7412,3.7412,3.7412,3.7036,3.6983,3.7186,3.6857,3.6556,3.6405,3.6405,3.6405,3.6405,3.6405,3.6405,3.6405,3.6405,3.6405,3.631,3.3946,3.2905,3.2733,0.0,2.9489,2.9632,2.9527,2.9372,2.9258,2.9141,2.9101,2.9101,2.9101,2.908,2.9026,2.9026,2.9212,0.0,2.8953,2.9755,3.103,0.0,0.0,0.0,3.5382,0.0,0.0,0.0,0.0,0.0,0.0,0.0,0.0,0.0,0.0,0.0,0.0,0.0,0.0,0.0,0.0,3.3018,0.0,3.3011,0.0,0.0,0.0,0.0,0.0,3.0643,3.0033,3.0373,3.0055,3.0025,3.0487,2.9937,2.9613,2.9513,2.8958,2.8516,2.8301,2.8301,2.8301,2.8301,2.8301,2.8301,2.8301,2.8301,2.8301,2.8301,2.8301,2.8301,2.8301,2.8301,2.8301,2.8301,2.8301,2.8301,2.8301,2.8301,2.8301,2.8301,3.7965,3.7965,0.0,3.7965,3.7965,3.7965,3.7965,3.7965,3.799,3.8015,3.8015,3.8015,3.8015,3.8015,3.799,0.0,3.799,3.799,3.799,3.7965,3.7713,3.7211,0.0,3.6958,3.6405,3.6405,3.6405,3.6405,3.6405,3.6405,3.6405,3.6405,3.6405,3.6358,3.4969,3.4337,3.4239,3.2805,3.252,3.2915,3.1476,3.0642,3.0117,0.0,2.9607,2.9607,2.9607,0.0,0.0,3.0893,3.1447,3.1927,3.0669,0.0,0.0,0.0,0.0,0.0,0.0,0.0,0.0,3.5483,0.0,0.0,0.0,0.0,3.3872,0.0,0.0,0.0,0.0,0.0,0.0,0.0,0.0,0.0,0.0,0.0,0.0,0.0,0.0,0.0,0.0,3.1865,3.1645,0.0,3.0756,3.0148,3.1756,3.0672,2.9838,2.9513,2.9504,2.9064,2.8281,2.8301,2.8301,2.8301,2.8301,2.8301,2.8301,2.8301,2.8301,2.8301,2.8301,2.8301,2.8301,2.8301,2.8301,2.8301,2.8301,2.8301,2.8301,2.8301,2.8301,2.8301,3.912,0.0,0.0,3.814,3.8015,3.814,3.8517,3.8567,3.8718,3.9069,3.912,3.912,3.912,3.912,3.8969,3.8617,3.8567,3.8567,3.8567,3.8216,0.0,3.8341,3.7939,3.7638,0.0,3.7086,3.6958,3.6958,3.6581,3.6405,3.6405,3.6405,3.6405,3.6358,3.4969,3.4625,0.0,0.0,0.0,0.0,0.0,3.2886,3.1958,0.0,2.998,2.998,2.998,3.0043,3.0198,3.1212,3.1466,3.1555,3.2074,3.2926,3.3723,3.3723,3.4678,3.581,0.0,0.0,3.6081,3.6081,0.0,0.0,0.0,0.0,0.0,0.0,0.0,0.0,0.0,0.0,0.0,0.0,0.0,0.0,0.0,0.0,0.0,0.0,0.0,0.0,0.0,0.0,0.0,0.0,3.2326,3.2094,3.2641,3.1772,3.139,3.1629,3.1091,3.0838,3.0979,3.0068,2.9597,2.9618,2.8688,2.8301,2.8301,2.8301,2.8301,2.8301,2.8301,2.8301,2.8301,2.8301,2.8301,2.8301,2.8301,2.8301,2.8301,2.8301,2.8301,2.8301,3.9697,3.9697,3.9471,3.8743,3.8592,3.8743,3.912,3.917,3.9295,3.9647,3.9697,3.9697,3.9697,3.9697,3.9546,3.9195,3.917,3.917,3.917,3.8818,0.0,3.8919,3.8517,3.8216,0.0,0.0,0.0,0.0,3.6983,3.6707,3.6707,3.6505,3.6405,3.6358,3.572,3.56,3.5842,3.5186,3.5235,0.0,0.0,3.4943,0.0,0.0,3.1701,3.1305,3.1851,3.2045,3.225,3.3224,3.3532,3.3553,3.3805,3.4237,3.4672,3.4433,3.5017,3.5763,3.6263,3.6405,0.0,3.6405,3.6107,0.0,3.583,0.0,3.4881,0.0,0.0,0.0,0.0,0.0,0.0,0.0,0.0,0.0,0.0,3.3111,0.0,0.0,0.0,0.0,0.0,0.0,0.0,3.3068,3.3111,3.3111,0.0,3.2626,3.2346,3.2391,3.2108,3.1961,3.2012,3.1331,3.0773,3.0276,2.9408,2.8741,2.8301,2.8301,2.8301,2.8301,2.8301,2.8301,2.8301,2.8301,2.8301,2.8301,2.8301,2.8301,2.8301,2.8301,2.8301,2.8301,3.9697,3.9697,3.9697,3.9697,3.9697,3.9697,3.9697,3.9697,3.9697,3.9697,3.9697,3.9697,3.9697,3.9697,3.9697,3.9697,3.9697,3.9697,3.9697,3.9697,0.0,0.0,3.8969,3.8642,3.809,0.0,0.0,0.0,0.0,3.7236,3.7211,3.6732,3.648,3.6505,3.6985,0.0,3.7312,3.7839,3.8391,3.8842,3.7972,3.6703,3.5398,3.5508,3.4626,3.3508,3.4847,3.5864,3.6611,3.6716,3.728,3.7643,3.5911,3.537,3.5201,3.4723,3.4531,3.4823,3.6073,3.6405,3.6405,3.6405,3.6405,0.0,0.0,0.0,3.5533,0.0,0.0,0.0,0.0,0.0,0.0,0.0,0.0,0.0,0.0,0.0,0.0,0.0,0.0,0.0,0.0,0.0,3.2466,3.3043,3.3111,3.3111,0.0,3.3111,3.2772,3.2053,3.2531,3.2464,3.169,3.2184,3.1774,3.0514,3.0359,2.9618,2.8388,2.8354,2.8301,2.8301,2.8301,2.8301,2.8301,2.8301,2.8301,2.8301,2.8301,2.8301,2.8301,2.8301,2.8301,2.8301,3.9697,3.9697,3.9697,3.9697,3.9697,3.9697,3.9697,3.9697,3.9697,3.9697,3.9697,3.9697,3.9697,3.9697,3.9697,3.9697,3.9697,0.0,0.0,0.0,0.0,3.9496,3.9471,3.9421,3.927,3.8868,3.8642,3.8642,0.0,0.0,3.7789,3.7638,3.7588,3.7588,0.0,3.804,3.8442,3.8592,3.8969,3.9496,3.9235,3.8243,3.7026,0.0,3.7636,3.6271,3.5563,3.5418,3.5817,3.6944,3.7192,3.7148,3.7788,3.7667,3.7171,3.6626,3.6478,3.6475,3.6411,3.6405,3.6405,3.6405,3.6405,3.6405,0.0,0.0,0.0,0.0,0.0,0.0,0.0,0.0,0.0,0.0,0.0,0.0,0.0,0.0,0.0,3.2867,0.0,0.0,0.0,3.229,3.2466,3.3043,3.3111,3.3111,3.3111,0.0,3.3189,3.336,3.3905,3.4265,3.4454,3.4052,3.3674,3.3327,3.1286,3.012,2.9755,2.8741,2.8301,2.8301,2.8301,2.8301,2.8301,2.8301,2.8301,2.8301,2.8301,2.8301,2.8301,2.8301,2.8301,2.8301,3.9697,3.9697,3.9697,3.9697,3.9697,3.9697,3.9697,3.9697,3.9697,3.9697,3.9697,3.9697,3.9697,3.9697,3.9697,3.9697,3.9697,0.0,3.9697,0.0,0.0,3.9697,3.9697,3.9697,3.9697,3.9396,0.0,3.922,0.0,3.8391,3.8391,3.8115,3.8015,0.0,0.0,3.8567,3.8944,3.912,3.9396,3.9697,3.9697,3.9181,0.0,3.9362,3.9181,3.8348,3.753,3.721,3.737,3.819,3.8258,3.8145,3.8716,3.8642,3.8266,3.7713,3.7362,3.7111,3.6857,3.6581,3.6405,3.6405,3.6405,3.6405,3.6405,3.6405,3.6329,0.0,3.5658,3.5307,0.0,0.0,0.0,0.0,0.0,0.0,0.0,0.0,0.0,0.0,3.2416,0.0,0.0,3.2215,3.2466,3.3043,3.3111,3.3111,0.0,0.0,3.3262,3.352,3.4299,3.4831,3.5132,3.5225,3.4969,3.4385,3.2805,3.1796,3.1133,3.0359,3.0068,3.0016,2.9408,2.9144,2.9144,2.9144,2.8847,2.8301,2.8301,2.8301,2.8301,2.8301,2.8301,2.8301,3.9697,3.9697,3.9697,3.9697,3.9697,3.9697,3.9697,3.9697,3.9697,3.9697,3.9697,3.9722,3.9798,3.9798,3.9798,3.9798,3.9798,3.9772,3.9697,3.9697,3.9697,3.9697,3.9697,3.9697,3.9697,3.9697,3.9697,0.0,3.922,3.8969,3.8969,3.8467,0.0,0.0,0.0,0.0,0.0,3.9496,3.9697,3.9697,3.9697,3.9697,3.9697,3.9697,3.9697,3.9697,3.9697,3.9697,3.9697,3.9697,3.9697,3.9622,3.912,3.8969,3.8868,3.8291,3.7739,3.7287,3.7211,3.6832,3.6405,3.6405,3.6405,3.6405,3.6405,3.6405,3.6405,3.6405,3.5981,3.5583,3.5508,0.0,0.0,0.0,0.0,0.0,0.0,0.0,0.0,0.0,0.0,0.0,0.0,3.2265,3.2466,3.3043,3.3111,0.0,0.0,0.0,3.3111,3.3111,3.4148,3.468,3.468,3.5805,3.581,3.4678,3.4483,3.3773,3.2582,3.2381,3.228,3.223,3.1081,3.0463,3.0307,3.0463,2.9755,2.8548,2.8548,2.8441,2.8301,2.8301,2.8301,2.8301,3.9697,3.9697,3.9697,3.9697,3.9697,3.9697,3.9697,3.9697,3.9697,3.9697,3.9697,3.9873,4.0325,4.0375,4.0375,4.0375,4.0375,0.0,0.0,0.0,0.0,3.9697,3.9697,3.9697,3.9697,3.9697,3.9697,3.9697,3.9597,3.9546,3.9546,3.9446,0.0,0.0,0.0,0.0,3.9546,3.9647,0.0,3.9697,3.9697,3.9697,3.9697,3.9697,3.9697,3.9697,3.9697,3.9697,3.9697,3.9697,3.9697,3.9672,3.9572,3.9546,3.9446,3.8868,3.8316,3.7764,3.7312,3.6832,3.6405,3.6405,3.6405,3.6405,3.6405,3.6405,3.6405,3.6405,3.6329,3.6081,3.5583,0.0,0.0,0.0,0.0,0.0,0.0,0.0,0.0,0.0,0.0,3.2918,0.0,0.0,3.2466,3.3043,3.3111,3.3111,0.0,0.0,3.3111,0.0,3.4148,3.468,0.0,0.0,3.6263,3.6073,3.4921,3.4288,3.397,3.2855,3.228,3.228,3.2028,3.1316,3.0359,3.1469,3.1184,2.9964,2.9964,2.925,2.8301,2.8301,2.8301,2.8301,3.9697,0.0,0.0,3.9697,3.9697,3.9697,3.9697,3.9697,3.9697,3.9697,3.9948,4.0224,4.0475,4.0777,4.0899,4.0899,4.0899,4.0701,4.0149,4.0124,3.9998,3.9697,3.9697,3.9697,3.9697,3.9697,3.9697,3.9697,3.9697,3.9697,3.9697,3.9697,0.0,0.0,0.0,3.9697,0.0,0.0,3.9697,3.9697,3.9697,3.9697,3.9697,3.9697,3.9697,3.9697,3.9697,3.9697,3.9697,3.9697,3.9697,3.9697,3.9697,3.9697,3.9647,3.9371,3.8894,3.8341,3.7764,3.7211,3.6782,3.648,3.6405,3.6405,3.6405,3.6405,3.6405,3.6405,3.6405,3.6207,3.5608,3.5056,0.0,0.0,0.0,0.0,0.0,0.0,0.0,0.0,0.0,0.0,0.0,0.0,0.0,0.0,0.0,3.3111,3.3111,0.0,3.3111,0.0,0.0,0.0,3.468,0.0,3.6405,3.6405,3.5763,3.5427,3.5427,3.4751,3.4435,3.4387,3.37,3.3005,3.2404,3.2331,3.2331,3.2353,3.1622,3.0514,2.9355,2.9355,2.89,2.8301,3.9697,3.9697,3.9697,3.9697,3.9697,3.9747,3.9848,3.9873,3.9873,3.9873,4.0249,4.0601,4.0827,4.1254,4.1505,4.1505,4.1505,4.1279,4.0727,4.0576,4.0325,3.9898,3.9747,3.9697,3.9697,3.9697,3.9697,3.9697,3.9697,3.9697,3.9697,3.9697,0.0,0.0,0.0,0.0,0.0,0.0,3.9697,3.9697,3.9697,3.9697,3.9697,3.9697,3.9697,3.9697,3.9697,3.9697,3.9697,3.9697,3.9697,3.9697,3.9697,3.9697,3.9697,3.9697,3.9295,3.8793,3.8165,3.7613,3.7061,3.6556,3.6405,3.6405,3.6405,3.6405,3.6405,3.6405,3.6405,3.6279,3.5805,3.5583,0.0,0.0,0.0,0.0,0.0,0.0,0.0,0.0,0.0,0.0,3.3111,0.0,0.0,0.0,0.0,3.3111,3.3111,3.3111,3.3111,0.0,0.0,3.468,3.468,0.0,3.6405,3.6405,3.6405,3.6405,3.6405,3.6405,3.6405,3.6358,3.5283,3.4824,3.4727,3.3304,3.3403,3.4288,3.3204,3.1927,3.0669,3.0432,2.9618,2.8708,3.9697,3.9697,3.9697,3.9697,3.9697,3.9848,4.035,4.045,4.045,4.045,4.0475,4.0902,4.1961,4.2112,4.2137,4.2137,4.2137,4.1856,4.125,4.0802,4.0501,4.045,3.9948,3.9697,3.9697,3.9697,3.9697,3.9697,3.9697,3.9697,3.9697,3.9697,3.9697,0.0,0.0,0.0,3.9697,3.9697,3.9697,3.9697,3.9697,3.9697,3.9697,3.9697,3.9697,3.9697,3.9697,3.9697,3.9697,3.9697,3.9697,3.9697,3.9697,3.9697,3.9697,3.9697,3.9295,3.8793,3.8165,3.7613,3.7061,3.6556,3.6405,3.6405,3.6405,3.6405,3.6405,3.6405,3.6405,3.638,3.6355,3.5881,3.5458,0.0,0.0,0.0,0.0,0.0,3.3111,3.3111,0.0,0.0,0.0,3.3111,0.0,0.0,3.3111,3.3111,3.3111,3.3111,3.3111,3.3111,3.4148,3.468,3.468,3.5805,3.6405,3.6405,3.6405,3.6405,3.6405,3.6405,3.6405,3.6405,3.6263,3.6216,3.6121,3.4775,3.4288,3.4385,3.4239,3.3353,3.1977,3.0773,3.0224,2.9964,3.9697,3.9697,3.9697,3.9697,3.9973,4.0249,4.0475,4.0802,4.1128,4.1455,4.1505,4.1656,4.2162,4.2514,4.2715,4.2715,4.2715,4.2409,4.1856,4.163,4.1204,4.0551,4.03,4.0023,3.9697,3.9697,3.9697,0.0,0.0,3.9697,3.9697,3.9697,3.9697,3.9697,3.9697,3.9697,3.9697,3.9697,3.9697,3.9697,3.9697,3.9697,3.9697,3.9697,3.9697,3.9697,3.9697,3.9697,3.9697,3.9697,3.9697,3.9697,3.9697,3.9697,3.9697,3.9697,3.9546,3.917,3.8241,3.7839,3.7462,3.6631,3.6405,3.6405,3.6405,3.6405,3.6405,3.6405,3.6405,3.6405,3.6405,3.6182,3.5931,3.5558,0.0,0.0,0.0,0.0,0.0,3.3162,0.0,3.3111,0.0,3.3111,0.0,0.0,0.0,3.3111,3.3111,3.3111,3.3111,3.3111,0.0,3.468,3.468,3.5805,3.6405,3.6405,3.6405,3.6405,3.6405,3.6405,3.6405,3.6405,3.6405,3.6405,3.6358,3.581,3.5619,3.5619,3.5619,3.4775,3.3525,3.2955,3.2252,3.1418,3.9697,3.9823,3.9948,3.9948,4.04,4.0802,4.0978,4.1329,4.1781,4.2389,4.2464,4.2464,4.2464,4.2735,4.2986,4.2986,4.2986,4.2811,4.2489,4.2313,4.1731,4.0802,4.0601,0.0,3.9697,3.9697,3.9697,3.9697,3.9697,0.0,3.9697,3.9697,3.9697,3.9697,3.9697,3.9697,3.9697,3.9697,3.9697,3.9697,3.9697,3.9697,3.9697,3.9697,3.9697,3.9697,3.9697,3.9697,3.9697,3.9697,3.9697,3.9697,3.9697,3.9697,3.9697,3.9697,3.9697,3.9446,3.8316,3.8015,3.7739,3.6681,3.6405,3.6405,3.6405,3.6405,3.6405,3.6405,3.6405,3.6405,3.6405,3.6405,3.6279,3.5855,0.0,0.0,0.0,3.4248,0.0,0.0,3.3319,3.3244,3.3136,3.3111,0.0,0.0,0.0,3.3111,3.3111,3.3111,3.3144,0.0,0.0,0.0,3.4906,3.5881,3.6405,3.6405,3.6405,3.6405,3.6405,3.6405,3.6405,3.6405,3.6405,3.6405,3.6405,3.6405,3.6405,3.6405,3.6405,3.581,3.4921,3.4532,3.3773,3.2855,3.9697,4.0124,4.0501,4.0501,4.0899,4.1505,4.2112,4.2187,4.2389,4.2886,4.2961,4.2961,4.2961,4.2986,4.2986,4.2986,4.2986,4.2986,4.2961,4.2514,4.1907,0.0,0.0,4.0249,3.9697,3.9697,3.9697,3.9697,0.0,0.0,3.9697,3.9697,3.9697,3.9697,3.9697,3.9697,3.9697,3.9697,3.9697,3.9697,3.9697,3.9697,3.9697,3.9697,3.9697,3.9697,3.9697,3.9697,3.9697,3.9697,3.9697,3.9697,3.9697,3.9697,3.9697,3.9697,3.9697,3.9446,3.8316,3.8015,3.7739,3.6681,3.6405,3.6405,3.6405,3.6405,3.6405,3.6405,3.6405,3.6405,3.6405,3.6405,3.6405,3.6405,0.0,0.0,0.0,3.5006,0.0,3.3947,3.3897,3.3671,3.3162,3.3111,0.0,0.0,0.0,3.3111,0.0,0.0,0.0,3.3872,3.4424,0.0,3.5483,3.6081,3.6405,3.6405,3.6405,3.6405,3.6405,3.6405,3.6405,3.6405,3.6405,3.6405,3.6405,3.6405,3.6405,3.6405,3.6405,3.6405,3.6216,3.4872,3.4385,3.419,4.0249,4.0701,4.1025,4.1025,4.153,4.1957,4.2187,4.2539,4.2841,4.2961,4.2986,4.2986,4.2986,4.2986,4.2986,4.2986,4.2986,4.2986,4.2986,4.2811,4.2514,4.1907,4.1379,4.0774,4.0275,3.9898,3.9697,3.9697,0.0,3.9697,3.9697,3.9697,3.9697,3.9697,3.9697,3.9697,3.9697,3.9697,3.9697,3.9697,3.9697,3.9697,3.9697,3.9697,3.9697,3.9697,3.9697,3.9697,3.9697,3.9697,3.9697,3.9697,3.9697,3.9697,3.9697,3.9697,3.9697,3.9446,3.8316,3.8015,3.7739,3.6681,3.6405,3.6405,3.6405,3.6405,3.6405,3.6405,3.6405,3.6405,3.6405,3.6405,3.6405,3.6405,3.6254,0.0,3.5558,0.0,3.5031,3.4525,3.4449,3.4248,3.3696,3.3646,0.0,0.0,0.0,0.0,0.0,0.0,0.0,0.0,3.4801,0.0,3.5508,3.6081,3.6405,3.6405,3.6405,3.6405,3.6405,3.6405,3.6405,3.6405,3.6405,3.6405,3.6405,3.6405,3.6405,3.6405,3.6405,3.6405,3.6358,3.5906,3.5763,3.5715,4.0774,4.1279,4.1656,4.1656,4.2108,4.2514,4.2514,4.276,4.2986,4.2986,4.2986,4.2986,4.2986,4.2986,4.2986,4.2986,4.2986,4.2986,4.2986,4.2986,4.2791,4.2238,4.1831,4.1304,4.0526,4.0174,3.9898,3.9697,3.9697,3.9697,3.9697,3.9697,3.9697,3.9697,3.9697,3.9697,3.9697,3.9697,3.9697,3.9697,3.9697,3.9697,3.9697,3.9697,3.9697,3.9697,3.9697,3.9697,3.9697,3.9697,3.9697,3.9697,3.9697,3.9697,3.9697,3.9697,3.9697,3.9446,3.8316,3.8015,3.7739,3.6681,3.6405,3.6405,3.6405,3.6405,3.6405,3.6405,3.6405,3.6405,3.6405,3.6405,3.6405,3.6405,3.6405,3.6279,3.5906,0.0,3.5655,0.0,0.0,3.4781,0.0,3.4198,3.4073,0.0,0.0,0.0,0.0,0.0,3.4299,3.45,3.5132,3.5608,3.5855,3.6182,3.6405,3.6405,3.6405,3.6405,3.6405,3.6405,3.6405,3.6405,3.6405,3.6405,3.6405,3.6405,3.6405,3.6405,3.6405,3.6405,3.6405,3.6405,3.6405,3.6405,4.1351,4.1831,4.2263,4.2263,4.269,4.2986,4.2986,4.2986,4.2986,4.2986,4.2986,4.2986,4.2986,4.2986,4.2986,4.2986,4.2986,4.2986,4.2986,4.2986,4.2816,4.2288,4.2238,4.1681,4.0651,4.0551,4.0249,3.9697,3.9697,3.9697,3.9697,3.9697,3.9697,3.9697,3.9697,3.9697,3.9697,3.9697,3.9697,3.9697,3.9697,3.9697,3.9697,3.9697,3.9697,3.9697,3.9697,3.9697,3.9697,3.9697,3.9697,3.9697,3.9697,3.9697,3.9697,3.9697,3.9697,3.9446,3.8316,3.8015,3.7739,3.6681,3.6405,3.6405,3.6405,3.6405,3.6405,3.6405,3.6405,3.6405,3.6405,3.6405,3.6405,3.6405,3.6405,3.6405,3.6405,3.6405,3.6182,0.0,0.0,0.0,3.4826,3.4776,3.4731,0.0,0.0,0.0,0.0,0.0,3.5006,3.5483,3.5533,3.5855,3.6405,3.6405,3.6405,3.6405,3.6405,3.6405,3.6405,3.6405,3.6405,3.6405,3.6405,3.6405,3.6405,3.6405,3.6405,3.6405,3.6405,3.6405,3.6405,3.6405,3.6405,3.6405,4.1957,4.2464,4.2841,4.2841,4.2942,4.2986,4.2986,4.2986,4.2986,4.2986,4.2986,4.2986,4.2986,4.2986,4.2986,4.2986,4.2986,4.2986,4.2986,4.2986,4.2911,4.2841,4.2439,4.2087,4.1835,4.0953,4.0249,3.9697,3.9697,3.9697,3.9697,3.9697,3.9697,3.9697,3.9697,3.9697,3.9697,3.9697,3.9697,3.9697,3.9697,3.9697,3.9697,3.9697,3.9697,3.9697,3.9697,3.9697,3.9697,3.9697,3.9697,3.9697,3.9697,3.9697,3.9697,3.9697,3.9697,3.9446,3.8316,3.8015,3.7739,3.6681,3.6405,3.6405,3.6405,3.6405,3.6405,3.6405,3.6405,3.6405,3.6405,3.6405,3.6405,3.6405,3.6405,3.6405,3.6405,3.6405,3.6355,0.0,3.6182,3.5956,3.5357,3.5307,3.5132,0.0,0.0,3.5307,3.5307,3.5755,3.583,3.5508,3.5956,3.6279,3.6405,3.6405,3.6405,3.6405,3.6405,3.6405,3.6405,3.6405,3.6405,3.6405,3.6405,3.6405,3.6405,3.6405,3.6405,3.6405,3.6405,3.6405,3.6405,3.6405,3.6405,3.6405,4.259,4.2816,4.2986,4.2986,4.2986,4.2986,4.2986,4.2986,4.2986,4.2986,4.2986,4.2986,4.2986,4.2986,4.2986,4.2986,4.2986,4.2986,4.2986,4.2986,4.2986,4.2986,4.274,4.2464,4.2213,4.158,4.0877,4.0074,3.9823,3.9697,3.9697,3.9697,3.9697,3.9697,3.9697,3.9697,3.9697,3.9697,3.9697,3.9697,3.9697,3.9697,3.9697,3.9697,3.9697,3.9697,3.9697,3.9697,3.9697,3.9697,3.9697,3.9697,3.9697,3.9697,3.9697,3.9697,3.9697,3.9496,3.8642,3.8216,3.7739,3.6681,3.6405,3.6405,3.6405,3.6405,3.6405,3.6405,3.6405,3.6405,3.6405,3.6405,3.6405,3.6405,3.6405,3.6405,3.6405,3.6405,3.6405,3.6405,3.6405,3.6279,3.5956,3.5906,3.5805,3.5504,3.5755,0.0,3.5906,3.6207,3.6279,3.5931,3.6207,3.6405,3.6405,3.6405,3.6405,3.6405,3.6405,3.6405,3.6405,3.6405,3.6405,3.6405,3.6405,3.6405,3.6405,3.6405,3.6405,3.643,3.6681,3.6782,3.6807,3.701,3.7111,3.7111,4.2986,4.2986,4.2986,4.2986,4.2986,4.2986,4.2986,4.2986,4.2986,4.2986,4.2986,4.2986,4.2986,4.2986,4.2986,4.2986,4.2986,4.2986,4.2986,4.2986,4.2986,4.2986,4.2986,4.2816,4.2338,4.2263,4.163,4.0526,4.0049,3.9772,3.9697,3.9697,3.9697,3.9697,3.9697,3.9697,3.9697,3.9697,3.9697,3.9697,3.9697,3.9697,3.9697,3.9697,3.9697,3.9697,3.9697,3.9697,3.9697,3.9697,3.9697,3.9697,3.9697,3.9697,3.9697,3.9697,3.9697,3.9572,3.907,3.8391,3.7663,3.6782,3.6455,3.6405,3.6405,3.6405,3.6405,3.6405,3.6405,3.6405,3.6405,3.6405,3.6405,3.6405,3.6405,3.6405,3.6405,0.0,3.6405,3.6405,3.6405,3.6405,3.6405,3.6405,3.6405,3.6405,3.6405,3.6405,3.6405,3.6405,3.6405,3.6405,3.6405,3.6405,3.6405,3.6405,3.6405,3.6405,3.6405,3.6405,3.6405,3.6405,3.6405,3.6405,3.6405,3.6405,3.6405,3.6505,3.6531,3.6581,3.7086,3.7312,3.7362,3.7839,3.8015,3.8015,4.2986,4.2986,4.2986,4.2986,4.2986,4.2986,4.2986,4.2986,4.2986,4.2986,4.2986,4.2986,4.2986,4.2986,4.2986,4.2986,4.2986,4.2986,4.2986,4.2986,4.2986,4.2986,4.2986,4.2936,4.2861,4.2439,4.163,4.0526,4.0425,4.0149,3.9697,3.9697,3.9697,3.9697,3.9697,3.9697,3.9697,3.9697,3.9697,3.9697,3.9697,3.9697,3.9697,3.9697,3.9697,3.9697,3.9697,3.9697,3.9697,3.9697,3.9697,3.9697,3.9697,3.9697,3.9697,3.9697,3.9697,3.9572,3.907,3.8115,3.7262,3.7111,3.6757,3.6405,3.6405,3.6405,3.6405,3.6405,3.6405,3.6405,3.6405,3.6405,3.6405,3.6405,3.6405,3.6405,3.6405,0.0,3.6405,3.6405,3.6405,3.6405,3.6405,3.6405,3.6405,3.6405,3.6405,3.6405,3.6405,3.6405,3.6405,3.6405,3.6405,3.6405,3.6405,3.6405,3.6405,3.6405,3.6405,3.6405,3.6405,3.6405,3.6405,3.6405,3.6405,3.6405,3.6455,3.6908,3.7109,3.7111,3.7663,3.7889,3.7889,3.7965,3.8015,3.8015,4.2986,4.2986,4.2986,4.2986,4.2986,4.2986,4.2986,4.2986,4.2986,4.2986,4.2986,4.2986,4.2986,4.2986,4.2986,4.2986,4.2986,4.2986,4.2986,4.2986,4.2986,4.2986,4.2986,4.2986,4.2986,4.2489,4.1961,4.1404,4.1103,4.0676,4.0149,4.0149,3.9973,3.9697,3.9697,3.9697,3.9697,3.9697,3.9697,3.9697,3.9697,3.9697,3.9697,3.9697,3.9697,3.9697,3.9697,3.9697,3.9697,3.9697,3.9697,3.9697,3.9697,3.9697,3.9697,3.9697,3.9697,3.9572,3.907,3.8542,3.7989,3.7337,3.6985,3.6782,3.648,3.6405,3.6405,3.6405,3.6405,3.6405,3.6405,3.6405,3.6405,3.6405,3.6405,3.6405,3.6405,3.6405,3.6405,3.6405,3.6405,3.6405,3.6405,3.6405,3.6405,3.6405,3.6405,3.6405,3.6405,3.6405,3.6405,3.6405,3.6405,3.6405,3.6405,3.6405,3.6405,3.6405,3.6405,3.6405,3.6405,3.6405,3.6405,3.6405,3.6405,3.6405,3.6455,3.7008,3.7186,3.7262,3.814,3.8467,3.8517,3.8793,3.8919,3.8919,4.2986,4.2986,4.2986,4.2986,4.2986,4.2986,4.2986,4.2986,4.2986,4.2986,4.2986,4.2986,4.2986,4.2986,4.2986,4.2986,4.2986,4.2986,4.2986,4.2986,4.2986,4.2986,4.2986,4.2986,4.2986,4.2615,4.2338,4.2213,4.1731,4.1254,4.0701,4.0576,4.03,3.9873,3.9747,3.9697,3.9697,3.9697,3.9697,3.9697,3.9697,3.9697,3.9697,3.9697,3.9697,3.9697,3.9697,3.9697,3.9697,3.9697,3.9697,3.9697,3.9697,3.9697,3.9697,3.9697,3.9697,3.9597,3.917,3.8969,3.8718,3.7789,3.7387,3.7086,3.6707,3.6505,3.6405,3.6405,3.6405,3.6405,3.6405,3.6405,3.6405,3.6405,0.0,3.6405,3.6405,3.6405,3.6405,3.6405,3.6405,3.6405,3.6405,3.6405,3.6405,3.6405,3.6405,3.6405,3.6405,3.6405,3.6405,3.6405,3.6405,3.6405,3.6405,3.6405,3.6405,3.6405,3.6405,3.6405,3.6405,3.6405,3.6405,3.6405,3.6405,3.6405,3.6455,3.7086,3.7387,3.7487,3.8617,3.912,3.917,3.9546,3.9697,3.9697,4.2986,4.2986,4.2986,4.2986,4.2986,4.2986,4.2986,4.2986,4.2986,4.2986,4.2986,4.2986,4.2986,4.2986,4.2986,4.2986,4.2986,4.2986,4.2986,4.2986,4.2986,4.2986,4.2986,4.2986,4.2986,4.2936,4.2715,4.2213,4.2162,4.1806,4.12,4.0752,4.0501,4.0425,3.9923,3.9697,3.9697,3.9697,3.9697,3.9697,3.9697,3.9697,3.9697,3.9697,3.9697,3.9697,3.9697,3.9697,3.9697,3.9697,3.9697,3.9697,3.9697,3.9697,3.9697,3.9697,3.9697,3.9697,3.9647,3.927,3.8894,3.8818,3.7965,3.7186,3.7136,3.6782,3.6405,3.6405,3.6405,3.6405,3.6405,3.6405,3.6405,3.6405,0.0,0.0,3.6405,3.6405,3.6405,3.6405,3.6405,3.6405,3.6405,3.6405,3.6405,3.6405,3.6405,3.6405,3.6405,3.6405,3.6405,3.6405,3.6405,3.6405,3.6405,3.6405,3.6405,3.6405,3.6405,3.6405,3.6405,3.6405,3.6405,3.6405,3.6405,3.6405,3.648,3.7513,3.7939,3.8065,3.9195,3.9647,3.9647,3.9672,3.9697,3.9697,4.2986,4.2986,4.2986,4.2986,4.2986,4.2986,4.2986,4.2986,4.2986,4.2986,4.2986,4.2986,4.2986,4.2986,4.2986,4.2986,4.2986,4.2986,4.2986,4.2986,4.2986,4.2986,4.2986,4.2986,4.2986,4.2986,4.2886,4.2715,4.2715,4.2384,4.1831,4.163,4.1354,4.0949,4.045,4.0199,4.0174,3.9848,3.9697,3.9697,3.9697,3.9697,3.9697,3.9697,3.9697,3.9697,3.9697,3.9697,3.9697,3.9697,3.9697,3.9697,3.9697,3.9697,3.9697,3.9697,3.9697,3.9697,3.9697,3.9546,3.9295,3.8994,3.8542,3.804,3.7337,3.701,3.6832,3.648,3.6405,3.6405,3.6405,3.6405,3.6405,3.6405,0.0,3.6405,3.6405,3.6405,3.6405,3.6405,3.6405,3.6405,3.6405,3.6405,3.6405,3.6405,3.6405,3.6405,3.6405,3.6405,3.6405,3.6405,3.6405,3.6405,3.6405,3.6405,3.6405,3.6405,3.6405,3.6405,3.6405,3.6405,3.6405,3.6405,3.6405,3.6405,3.648,3.7563,3.8015,3.8115,3.9245,3.9697,3.9697,3.9697,3.9697,3.9697,4.2986,4.2986,4.2986,4.2986,4.2986,4.2986,4.2986,4.2986,4.2986,4.2986,4.2986,4.2986,4.2986,4.2986,4.2986,4.2986,4.2986,4.2986,4.2986,4.2986,4.2986,4.2986,4.2986,4.2986,4.2986,4.2986,4.2986,4.2986,4.2986,4.2841,4.2464,4.2288,4.1957,4.158,4.1028,4.0777,4.0752,4.0199,3.9948,3.9948,3.9772,3.9697,3.9697,3.9697,3.9697,3.9697,3.9697,3.9697,3.9697,3.9697,3.9697,3.9697,3.9697,3.9697,3.9697,3.9697,3.9697,3.9697,3.9697,3.9697,3.9597,3.922,3.8994,3.8718,3.7889,3.7437,3.7086,3.6757,3.6531,3.6405,3.6405,3.6405,3.6405,3.6405,3.6405,3.6405,3.6405,3.6405,3.6405,3.6405,3.6405,3.6405,3.6405,3.6405,3.6405,3.6405,3.6405,3.6405,3.6405,3.6405,3.6405,3.6405,3.6405,3.6405,3.6405,3.6405,3.6405,3.6405,3.6405,3.6405,3.6405,3.6405,3.6405,3.6405,3.6405,3.6405,3.648,3.7362,3.7839,3.809,3.9069,3.9546,3.9697,3.9697,3.9697,3.9697,4.2986,4.2986,4.2986,4.2986,4.2986,4.2986,4.2986,4.2986,4.2986,4.2986,4.2986,4.2986,4.2986,4.2986,4.2986,4.2986,4.2986,4.2986,4.2986,4.2986,4.2986,4.2986,4.2986,4.2986,4.2986,4.2986,4.2986,4.2986,4.2986,4.2986,4.2961,4.2464,4.2213,4.2187,4.1605,4.13,4.125,4.0752,4.0526,4.0475,3.9923,3.9697,3.9697,3.9697,3.9697,3.9697,3.9697,3.9697,3.9697,3.9697,3.9697,3.9697,3.9697,3.9697,3.9697,3.9697,3.9697,3.9697,3.9697,3.9697,3.9697,3.9697,3.927,3.8919,3.8919,3.8064,3.7186,3.7186,3.6807,3.6405,3.6405,3.6405,3.6405,3.6405,3.6405,3.6405,3.6405,3.6405,3.6405,3.6405,3.6405,3.6405,3.6405,3.6405,3.6405,3.6405,3.6405,3.6405,3.6405,3.6405,3.6405,3.6405,3.6405,3.6405,3.6405,3.6405,3.6405,3.6405,3.6405,3.6405,3.6405,3.6405,3.6405,3.6405,3.6405,3.6405,3.6455,3.7008,3.7513,3.8065,3.8642,3.922,3.9697,3.9697,3.9697,3.9697,4.2986,4.2986,4.2986,4.2986,4.2986,4.2986,4.2986,4.2986,4.2986,4.2986,4.2986,4.2986,4.2986,4.2986,4.2986,4.2986,4.2986,4.2986,4.2986,4.2986,4.2986,4.2986,4.2986,4.2986,4.2986,4.2986,4.2986,4.2986,4.2986,4.2986,4.2986,4.2811,4.2791,4.2766,4.2158,4.1907,4.1882,4.1329,4.105,4.1025,4.0902,4.0626,4.0275,4.0275,4.0023,3.9697,3.9697,3.9697,3.9697,3.9697,3.9697,3.9697,3.9697,3.9697,3.9697,3.9697,3.9697,3.9697,3.9697,3.9697,3.9697,3.9697,3.9572,3.9346,3.902,3.8668,3.8241,3.7839,3.7312,3.6935,3.6935,3.6681,3.6405,3.6405,3.6405,3.6405,3.6405,3.6405,3.6405,3.6405,3.6405,3.6405,3.6405,3.6405,3.6405,3.6405,3.6405,3.6405,3.6405,3.6405,3.6405,3.6405,3.6405,3.6405,3.6405,3.6405,3.6405,3.6405,3.6405,3.6405,3.6405,3.6405,3.6405,3.6405,3.6405,3.6405,3.6455,3.7008,3.7287,3.7538,3.8542,3.902,3.917,3.9546,3.9697,3.9697,4.2986,4.2986,4.2986,4.2986,4.2986,4.2986,4.2986,4.2986,4.2986,4.2986,4.2986,4.2986,4.2986,4.2986,4.2986,4.2986,4.2986,4.2986,4.2986,4.2986,4.2986,4.2986,4.2986,4.2986,4.2986,4.2986,4.2986,4.2986,4.2986,4.2986,4.2986,4.2986,4.2986,4.2961,4.269,4.2539,4.2489,4.1882,4.1656,4.1656,4.1376,4.11,4.0852,4.0852,4.0501,4.0023,4.0023,3.9873,3.9697,3.9697,3.9697,3.9697,3.9697,3.9697,3.9697,3.9697,3.9697,3.9697,3.9697,3.9697,3.9697,3.9697,3.9697,3.9597,3.927,3.9019,3.8768,3.8417,3.7889,3.7513,3.7513,3.7061,3.6732,3.6732,3.6556,3.6405,3.6405,3.6405,3.6405,3.6405,3.6405,3.6405,3.6405,3.6405,3.6405,3.6405,3.6405,3.6405,3.6405,3.6405,3.6405,3.6405,3.6405,3.6405,3.6405,3.6405,3.6405,3.6405,3.6405,3.6405,3.6405,3.6405,3.6405,3.6405,3.6405,3.6405,3.643,3.6782,3.6985,3.7287,3.8165,3.8668,3.8944,3.9496,3.9697,3.9697,4.2986,4.2986,4.2986,4.2986,4.2986,4.2986,4.2986,4.2986,4.2986,4.2986,4.2986,4.2986,4.2986,4.2986,4.2986,4.2986,4.2986,4.2986,4.2986,4.2986,4.2986,4.2986,4.2986,4.2986,4.2986,4.2986,4.2986,4.2986,4.2986,4.2986,4.2986,4.2986,4.2986,4.2986,4.2986,4.2986,4.2936,4.2489,4.2288,4.2238,4.1681,4.1401,4.1351,4.1351,4.1025,4.0601,4.0601,4.0249,3.9747,3.9722,3.9697,3.9697,3.9697,3.9697,3.9697,3.9697,3.9697,3.9697,3.9697,3.9697,3.9697,3.9697,3.9697,3.9697,3.9697,3.9295,3.8994,3.8994,3.8492,3.809,3.809,3.7638,3.7262,3.7262,3.6832,3.648,3.648,3.643,3.6405,3.6405,3.6405,3.6405,3.6405,3.6405,3.6405,3.6405,3.6405,3.6405,3.6405,3.6405,3.6405,3.6405,3.6405,3.6405,3.6405,3.6405,3.6405,3.6405,3.6405,3.6405,3.6405,3.6405,3.6405,3.6405,3.6405,3.6405,3.6405,3.6405,3.6707,3.7161,3.7713,3.8291,3.8919,3.9421,3.9647,3.9697,4.2986,4.2986,4.2986,4.2986,4.2986,4.2986,4.2986,4.2986,4.2986,4.2986,4.2986,4.2986,4.2986,4.2986,4.2986,4.2986,4.2986,4.2986,4.2986,4.2986,4.2986,4.2986,4.2986,4.2986,4.2986,4.2986,4.2986,4.2986,4.2986,4.2986,4.2986,4.2986,4.2986,4.2986,4.2986,4.2986,4.2961,4.2916,4.2866,4.2841,4.266,4.2359,4.1982,4.1982,4.163,4.11,4.11,4.0802,4.0275,3.9848,3.9697,3.9697,3.9697,3.9697,3.9697,3.9697,3.9697,3.9697,3.9697,3.9697,3.9697,3.9697,3.9697,3.9697,3.9697,3.9597,3.9521,3.9521,3.9069,3.8668,3.8668,3.8216,3.7839,3.7839,3.7362,3.7059,3.7059,3.6681,3.6405,3.6405,3.6405,3.6405,3.6405,3.6405,3.6405,3.6405,3.6405,3.6405,3.6405,3.6405,3.6405,3.6405,3.6405,3.6405,3.6405,3.6405,3.6405,3.6405,3.6405,3.6405,3.6405,3.6405,3.6405,3.6405,3.6405,3.6405,3.6405,3.6405,3.648,3.6631,3.7136,3.7713,3.8266,3.8843,3.932,3.9697,4.2986,4.2986,4.2986,4.2986,4.2986,4.2986,4.2986,4.2986,4.2986,4.2986,4.2986,4.2986,4.2986,4.2986,4.2986,4.2986,4.3212,4.3363,4.3363,4.3614,4.3639,4.3388,4.3363,4.3237,4.2986,4.2986,4.2986,4.2986,4.2986,4.2986,4.2986,4.2986,4.2986,4.2986,4.2986,4.2986,4.2986,4.2986,4.2986,4.2986,4.2986,4.2811,4.2615,4.2615,4.2208,4.1731,4.1731,4.1379,4.0827,4.0275,4.0099,4.0049,3.9772,3.9697,3.9697,3.9697,3.9697,3.9697,3.9697,3.9697,3.9697,3.9697,3.9697,3.9697,3.9697,3.9697,3.9697,3.9697,3.9471,3.927,3.927,3.8793,3.8417,3.8417,3.7939,3.7588,3.7588,3.7337,3.7061,3.6784,3.6807,3.6707,3.643,3.6405,3.6405,3.6405,3.6405,3.6405,3.6405,3.6405,3.6405,3.6405,3.6405,3.6662,3.7196,3.6662,3.6662,3.7196,3.6662,3.6405,3.6405,3.6405,3.6405,3.6405,3.6405,3.6405,3.6405,3.6405,3.6405,3.6455,3.696,3.7513,3.8065,3.8668,3.922,3.9697,4.2986,4.2986,4.2986,4.2986,4.2986,4.2986,4.2986,4.2986,4.2986,4.2986,4.2986,4.2986,4.2986,4.3062,4.3162,4.3263,4.3689,4.394,4.394,4.4367,4.4418,4.3966,4.394,4.374,4.3263,4.3162,4.3062,4.2986,4.2986,4.2986,4.2986,4.2986,4.2986,4.2986,4.2986,4.2986,4.2986,4.2986,4.2986,4.2986,4.2986,4.2986,4.2986,4.2986,4.274,4.2363,4.2363,4.1957,4.1404,4.0852,4.0651,4.0551,3.9998,3.9848,3.9823,3.9722,3.9697,3.9697,3.9697,3.9697,3.9697,3.9697,3.9697,3.9697,3.9697,3.9697,3.9697,3.9697,3.9697,3.9697,3.9697,3.932,3.907,3.907,3.8542,3.814,3.814,3.8065,3.7839,3.7387,3.7337,3.7136,3.6732,3.6681,3.6681,3.6681,3.6681,3.6656,3.6556,3.6556,3.6505,3.6405,3.6405,3.6849,3.7815,3.6896,3.6964,3.8107,3.6943,3.6405,3.6405,3.6405,3.6405,3.6405,3.6405,3.6405,3.6405,3.6405,3.6405,3.6455,3.6908,3.7437,3.809,3.8768,3.9295,3.9697,4.2986,4.2986,4.2986,4.2986,4.2986,4.2986,4.2986,4.2986,4.2986,4.2986,4.2986,4.2986,4.2986,4.3413,4.389,4.4367,4.4468,4.4518,4.4518,4.4593,4.4593,4.4518,4.4518,4.4468,4.4392,4.394,4.3463,4.2986,4.2986,4.2986,4.2986,4.2986,4.2986,4.2986,4.2986,4.2986,4.2986,4.2986,4.2986,4.2986,4.2986,4.2986,4.2986,4.2986,4.2936,4.2861,4.2861,4.2564,4.2011,4.1404,4.1175,4.1075,4.0576,4.04,4.03,3.9848,3.9697,3.9697,3.9697,3.9697,3.9697,3.9697,3.9697,3.9697,3.9697,3.9697,3.9697,3.9697,3.9697,3.9697,3.9697,3.9647,3.9572,3.9572,3.912,3.8793,3.8793,3.8316,3.799,3.7914,3.7889,3.7864,3.7789,3.7789,3.7789,3.7789,3.7789,3.7588,3.7111,3.7061,3.6908,3.643,3.6405,3.6452,3.6615,3.6499,3.6964,3.8107,3.6943,3.6405,3.6405,3.6405,3.6405,3.6405,3.6405,3.6405,3.6405,3.6405,3.6405,3.6405,3.648,3.7111,3.814,3.9195,3.9622,3.9697,4.2986,4.2986,4.2986,4.2986,4.2986,4.2986,4.2986,4.2986,4.2986,4.2986,4.3237,4.3438,4.3438,4.394,4.4367,4.4593,4.492,4.5095,4.5095,4.5397,4.5422,4.5121,4.5095,4.4945,4.4644,4.4392,4.4141,4.389,4.3288,4.2986,4.2986,4.2986,4.2986,4.2986,4.2986,4.2986,4.2986,4.2986,4.2986,4.2986,4.2986,4.2986,4.2986,4.2986,4.2986,4.2986,4.2986,4.2866,4.259,4.1982,4.1781,4.1706,4.1153,4.0924,4.0824,4.0325,4.0149,4.0099,3.9772,3.9697,3.9697,3.9697,3.9697,3.9697,3.9697,3.9697,3.9697,3.9697,3.9697,3.9697,3.9697,3.9697,3.9697,3.9697,3.9496,3.932,3.932,3.912,3.8843,3.8517,3.8216,3.8015,3.8015,3.8015,3.8015,3.8015,3.8015,3.7889,3.7663,3.8316,3.8261,3.7335,3.8005,3.8312,3.8291,3.7648,3.8243,4.0069,3.8536,3.7619,3.7335,3.6662,3.6405,3.6405,3.6405,3.6405,3.6405,3.6405,3.6405,3.6405,3.6405,3.7036,3.814,3.927,3.9697,3.9697]}]]